[[{"header":{"parameterUnit":"m.s-1","parameterCategory":1,"la1":31.0,"la2":29.5877,"lo1":-88.7671,"lo2":-86.6584,"dy":0.0162,"dx":0.0185,"nx":115,"ny":88,"refTime":"2023-05-30T18:00:00:Z","depth":0,"parameterNumber":2,"parameterNumberName":"U-component_of_WINDS"},"data":[0.0,0.0,0.0,0.0,0.0,0.0,0.0,0.0,0.0,0.0,0.0,0.0,0.0,0.0,0.0,0.0,0.0,0.0,0.0,0.0,0.0,0.0,0.0,0.0,0.0,0.0,0.0,0.0,0.0,0.0,0.0,0.0,0.0,0.0,0.0,0.0,0.0,0.0,0.0,0.0,0.0,0.0,0.0,0.0,0.0,0.0,0.0,0.0,0.0,0.0,0.0,0.0,0.0,0.0,0.0,0.0,0.0,0.0,0.0,0.0,0.0,0.0,0.0,0.0,0.0,0.0,0.0,0.0,0.0,0.0,0.0,0.0,0.0,0.0,0.0,0.0,0.0,0.0,0.0,0.0,0.0,0.0,0.0,0.0,0.0,0.0,0.0,0.0,0.0,0.0,0.0,0.0,0.0,0.0,0.0,0.0,0.0,0.0,0.0,0.0,0.0,0.0,0.0,0.0,0.0,0.0,0.0,0.0,0.0,0.0,0.0,0.0,0.0,0.0,0.0,0.0,0.0,0.0,0.0,0.0,0.0,0.0,0.0,0.0,0.0,0.0,0.0,0.0,0.0,0.0,0.0,0.0,0.0,0.0,0.0,0.0,0.0,0.0,0.0,0.0,0.0,0.0,0.0,0.0,0.0,0.0,0.0,0.0,0.0,0.0,0.0,0.0,0.0,0.0,0.0,0.0,0.0,0.0,0.0,0.0,0.0,0.0,0.0,0.0,0.0,0.0,0.0,0.0,0.0,0.0,0.0,0.0,0.0,0.0,0.0,0.0,0.0,0.0,0.0,0.0,0.0,0.0,0.0,0.0,0.0,0.0,0.0,0.0,0.0,0.0,0.0,0.0,0.0,0.0,0.0,0.0,0.0,0.0,0.0,0.0,0.0,0.0,0.0,0.0,0.0,0.0,0.0,0.0,0.0,0.0,0.0,0.0,0.0,0.0,0.0,0.0,0.0,0.0,0.0,0.0,0.0,0.0,0.0,0.0,0.0,0.0,0.0,0.0,0.0,0.0,0.0,0.0,0.0,0.0,0.0,0.0,0.0,0.0,0.0,0.0,0.0,0.0,0.0,0.0,0.0,0.0,0.0,0.0,0.0,0.0,0.0,0.0,0.0,0.0,0.0,0.0,0.0,0.0,0.0,0.0,0.0,0.0,0.0,0.0,0.0,0.0,0.0,0.0,0.0,0.0,0.0,0.0,0.0,0.0,0.0,0.0,0.0,0.0,0.0,0.0,0.0,0.0,0.0,0.0,0.0,0.0,0.0,0.0,0.0,0.0,0.0,0.0,0.0,0.0,0.0,0.0,0.0,0.0,0.0,0.0,0.0,0.0,0.0,0.0,0.0,0.0,0.0,0.0,0.0,0.0,0.0,0.0,0.0,0.0,0.0,0.0,0.0,0.0,0.0,0.0,0.0,0.0,0.0,0.0,0.0,0.0,0.0,0.0,0.0,0.0,0.0,0.0,0.0,0.0,0.0,0.0,0.0,0.0,0.0,0.0,0.0,0.0,0.0,0.0,0.0,0.0,0.0,0.0,0.0,0.0,0.0,0.0,0.0,0.0,0.0,0.0,0.0,0.0,0.0,0.0,0.0,0.0,0.0,0.0,0.0,0.0,0.0,0.0,0.0,0.0,0.0,0.0,0.0,0.0,0.0,0.0,0.0,0.0,0.0,0.0,0.0,0.0,0.0,0.0,0.0,0.0,0.0,0.0,0.0,0.0,0.0,0.0,0.0,0.0,0.0,0.0,0.0,0.0,0.0,0.0,0.0,0.0,0.0,0.0,0.0,0.0,0.0,0.0,0.0,0.0,0.0,0.0,0.0,0.0,0.0,0.0,0.0,0.0,0.0,0.0,0.0,0.0,0.0,0.0,0.0,0.0,0.0,0.0,0.0,0.0,0.0,0.0,0.0,0.0,0.0,0.0,0.0,0.0,0.0,0.0,0.0,0.0,0.0,0.0,0.0,0.0,0.0,0.0,0.0,0.0,0.0,0.0,0.0,0.0,0.0,0.0,0.0,0.0,0.0,0.0,0.0,0.0,0.0,0.0,0.0,0.0,0.0,0.0,0.0,0.0,0.0,0.0,0.0,0.0,0.0,0.0,0.0,0.0,0.0,0.0,0.0,0.0,0.0,0.0,0.0,0.0,0.0,0.0,0.0,0.0,0.0,0.0,0.0,0.0,0.0,0.0,0.0,0.0,0.0,0.0,0.0,0.0,0.0,0.0,0.0,0.0,0.0,0.0,0.0,0.0,0.0,0.0,0.0,0.0,0.0,0.0,0.0,0.0,0.0,0.0,0.0,0.0,0.0,0.0,0.0,0.0,0.0,0.0,0.0,0.0,0.0,0.0,0.0,0.0,0.0,0.0,0.0,0.0,0.0,0.0,0.0,0.0,0.0,0.0,0.0,0.0,0.0,0.0,0.0,0.0,0.0,0.0,0.0,0.0,0.0,0.0,0.0,0.0,0.0,0.0,0.0,0.0,0.0,0.0,0.0,0.0,0.0,0.0,0.0,0.0,0.0,0.0,0.0,0.0,0.0,0.0,0.0,0.0,0.0,0.0,0.0,0.0,0.0,0.0,0.0,0.0,0.0,0.0,0.0,0.0,0.0,0.0,0.0,0.0,0.0,0.0,0.0,0.0,0.0,0.0,0.0,0.0,0.0,0.0,0.0,0.0,0.0,0.0,0.0,0.0,0.0,0.0,0.0,0.0,0.0,0.0,0.0,0.0,0.0,0.0,0.0,0.0,0.0,0.0,0.0,0.0,0.0,0.0,0.0,0.0,0.0,0.0,0.0,0.0,0.0,0.0,0.0,0.0,0.0,0.0,0.0,0.0,0.0,0.0,0.0,0.0,0.0,0.0,0.0,0.0,0.0,0.0,0.0,0.0,0.0,0.0,0.0,0.0,0.0,0.0,0.0,0.0,0.0,0.0,0.0,0.0,0.0,0.0,0.0,0.0,0.0,0.0,0.0,0.0,0.0,0.0,0.0,0.0,0.0,0.0,0.0,0.0,0.0,0.0,0.0,0.0,0.0,0.0,0.0,0.0,0.0,0.0,0.0,0.0,0.0,0.0,0.0,0.0,0.0,0.0,0.0,0.0,0.0,0.0,0.0,0.0,0.0,0.0,0.0,0.0,0.0,0.0,0.0,0.0,0.0,0.0,0.0,0.0,0.0,0.0,0.0,0.0,0.0,0.0,0.0,0.0,0.0,0.0,0.0,0.0,0.0,0.0,0.0,0.0,0.0,0.0,0.0,0.0,0.0,0.0,0.0,0.0,0.0,0.0,0.0,0.0,0.0,0.0,0.0,0.0,0.0,0.0,0.0,0.0,0.0,0.0,0.0,0.0,0.0,0.0,0.0,0.0,0.0,0.0,0.0,0.0,0.0,0.0,0.0,0.0,0.0,0.0,0.0,0.0,0.0,0.0,0.0,0.0,0.0,0.0,0.0,0.0,0.0,0.0,0.0,0.0,0.0,0.0,0.0,0.0,0.0,0.0,0.0,0.0,0.0,0.0,0.0,0.0,0.0,0.0,0.0,0.0,0.0,0.0,0.0,0.0,0.0,0.0,0.0,0.0,0.0,0.0,0.0,0.0,0.0,0.0,0.0,0.0,0.0,0.0,0.0,0.0,0.0,0.0,0.0,0.0,0.0,0.0,0.0,0.0,0.0,0.0,0.0,0.0,0.0,0.0,0.0,0.0,0.0,0.0,0.0,0.0,0.0,0.0,0.0,0.0,0.0,0.0,0.0,0.0,0.0,0.0,0.0,0.0,0.0,0.0,0.0,0.0,0.0,0.0,0.0,0.0,0.0,0.0,0.0,0.0,0.0,0.0,0.0,0.0,0.0,0.0,0.0,0.0,0.0,0.0,0.0,0.0,0.0,0.0,0.0,0.0,0.0,0.0,0.0,0.0,0.0,0.0,0.0,0.0,0.0,0.0,0.0,0.0,0.0,0.0,0.0,0.0,0.0,0.0,0.0,0.0,0.0,0.0,0.0,0.0,0.0,0.0,0.0,0.0,0.0,0.0,0.0,0.0,0.0,0.0,0.0,0.0,0.0,0.0,0.0,0.0,0.0,0.0,0.0,0.0,0.0,0.0,0.0,0.0,0.0,0.0,0.0,0.0,0.0,0.0,0.0,0.0,0.0,0.0,0.0,0.0,0.0,0.0,0.0,0.0,0.0,0.0,0.0,0.0,0.0,0.0,0.0,0.0,0.0,0.0,0.0,0.0,0.0,0.0,0.0,0.0,0.0,0.0,0.0,0.0,0.0,0.0,0.0,0.0,0.0,0.0,0.0,0.0,0.0,0.0,0.0,0.0,0.0,0.0,0.0,0.0,0.0,0.0,0.0,0.0,0.0,0.0,0.0,0.0,0.0,0.0,0.0,0.0,0.0,0.0,0.0,0.0,0.0,0.0,0.0,0.0,0.0,0.0,0.0,0.0,0.0,0.0,0.0,0.0,0.0,0.0,0.0,0.0,0.0,0.0,0.0,0.0,0.0,0.0,0.0,0.0,0.0,0.0,0.0,0.0,0.0,0.0,0.0,0.0,0.0,0.0,0.0,0.0,0.0,0.0,0.0,0.0,0.0,0.0,0.0,0.0,0.0,0.0,0.0,0.0,0.0,0.0,0.0,0.0,0.0,0.0,0.0,0.0,0.0,0.0,0.0,0.0,0.0,0.0,0.0,0.0,0.0,0.0,0.0,0.0,0.0,0.0,0.0,0.0,0.0,0.0,0.0,0.0,0.0,0.0,0.0,0.057,0.0,0.0,0.0,0.0,0.0,0.0,0.0,0.0,0.0,0.0,0.0,0.0,0.0,0.0,0.0,0.0,0.0,0.0,0.0,0.0,0.0,0.0,0.0,0.0,0.0,0.0,0.0,0.0,0.0,0.0,0.0,0.0,0.0,0.0,0.0,0.0,0.0,0.0,0.0,0.0,0.0,0.0,0.0,0.0,0.0,0.0,0.0,0.0,0.0,0.0,0.0,0.0,0.0,0.0,0.0,0.0,0.0,0.0,0.0,0.0,0.0,0.0,0.0,0.0,0.0,0.0,0.0,0.0,0.0,0.0,0.0,0.0,0.0,0.0,0.0,0.0,0.0,0.0,0.0,0.0,0.0,0.0,0.0,0.0,0.0,0.0,0.0,0.0,0.0,0.0,0.0,0.0,0.0,0.0,0.0,0.0,0.0,0.0,0.0,0.0,0.0,0.0,0.0,0.0,0.0,0.0,0.0,0.0,0.0,0.0,0.0,0.0,0.0,0.0,0.0,0.0,0.0,0.0,0.0,0.0,0.0,0.0,0.0,0.0,0.0,0.0,0.0,0.0,0.0,0.0,0.0,0.0,0.0,0.0,0.0,0.0,0.0,0.0,0.0,0.0,0.0,0.0,0.0,0.0,0.0,0.0,0.0,0.0,0.0,0.0,0.0,0.0,0.0,0.0,0.0,0.0,0.0,0.0,0.0,0.0,0.0,0.0,0.0,0.0,0.0,0.0,0.0,0.0,0.0,0.0,0.0,0.0,0.0,0.0,0.0,0.0,0.0,0.0,0.0,0.0,0.0,0.0,0.0,0.0,0.0,0.0,0.0,0.0,0.0,0.0,0.0,0.0,0.0,0.0,0.0,0.0,0.0,0.0,0.0,0.0,0.0,0.0,0.0,0.0,0.0,0.0,0.0,0.0,0.0,0.0,0.0,0.0,0.0,0.0,0.0,0.0,0.0,0.0,0.0,0.0,0.0,0.0,0.0,0.0,0.0,0.0,0.0,0.0,0.0,0.0,0.0,0.0,0.0,0.0,0.0,0.0,0.0,0.0,0.0,0.0,0.0,0.0,0.0,0.0,0.0,0.0,0.0,0.0,0.0,0.0,0.0,0.0,0.0,0.0,0.0,0.0,0.0,0.0,0.0,0.0,0.0,0.0,0.0,0.0,0.0,0.0,0.0,0.0,0.0,0.0,0.0,0.0,0.0,0.0,0.0,0.0,0.0,0.0,0.0,0.0,0.0,0.0,0.0,0.0,0.0,0.0,0.0,0.0,0.0,0.0,0.0,0.0,0.0,0.0,0.0,0.0,0.0,0.0,0.0,0.0,0.0,0.0,0.0,0.0,0.0,0.0,0.0,0.0,0.0,0.0,0.0,0.0,0.0,0.0,0.0,0.0,0.0,0.0,0.0,0.0,0.0,0.0,0.0,0.0,0.0,0.0,0.0,0.0,0.0,0.0,0.0,0.0,0.0,0.0,0.0,0.0,0.0,0.0,0.0,0.0,0.0,0.0,0.0,0.0,0.0,0.0,0.0,0.0,0.0,0.0,0.0,0.0,0.0,0.0,0.0,0.0,0.0,0.0,0.0,0.0,0.0,0.0,0.0,0.0,0.0,0.0,0.0,0.0,0.0,0.0,0.0,0.0,0.0,0.0,0.0,0.0,0.0,0.0,0.0,0.0,0.0,0.0,0.0,0.0,0.0,0.0,0.0,0.0,0.0,0.0,0.0,0.0,0.0,0.0,0.0,0.0,0.0,0.0,0.0,0.0,0.0,0.0,0.0,0.0,0.0,0.0,0.0,0.0,0.0,0.0,0.0,0.0,0.0,0.0,0.0,0.0,0.0,0.0,0.0,0.0,0.0,0.0,0.0,0.0,0.0,0.0,0.0,0.0,0.0,0.0,0.0,0.0,0.0,0.0,0.0,0.0,0.0,0.0,0.0,0.0,0.0,0.0,0.0,0.0,0.0,0.0,0.0,0.0,0.0,0.0,0.0,0.0,0.0,0.0,0.0,0.0,0.0,0.0,0.0,0.0,0.0,0.0,0.0,0.0,0.0,0.0,0.0,0.0,0.0,0.0,0.0,0.0,0.0,0.0,0.0,0.0,0.0,0.0,0.0,0.0,0.0,0.0,0.0,0.0,0.0,0.0,0.0,0.0,0.0,0.0,0.0,0.0,0.0,0.0,0.0,0.0,0.0,0.0,0.0,0.0,0.0,0.0,0.0,0.0,0.0,0.0,0.0,0.0,0.0,0.0,0.0,0.0,0.0,0.0,0.0,0.0,0.0,0.0,0.0,0.0,0.0,0.0,0.0,0.0,0.0,0.0,0.0,0.0,0.0,0.0,0.0,0.0,0.0,0.0,0.0,0.0,0.0,0.0,0.0,0.0,0.0,0.0,0.0,0.0,0.0,0.0,0.0,0.0,0.0,0.0,0.0,0.0,0.0,0.0,0.0,0.0,0.0,0.0,0.0,0.0,0.0,0.0,0.0,0.0,0.0,0.0,0.0,0.0,0.0,0.0,0.0,0.0,0.0,0.0,0.0,0.0,0.0,0.0,0.0,0.0,0.0,0.0,0.0,0.0,0.0,0.0,0.0,0.0,0.0,0.0,0.0,0.0,0.0,0.0,0.0,0.0,0.0,0.0,0.0,0.0,0.0,0.0,0.0,0.0,0.0,0.0,0.0,0.0,0.0,0.0,0.0,0.0,0.0,0.0,0.0,0.0,0.0,0.0,0.0,0.0,0.0,0.0,0.0,0.0,0.0,0.0,0.0,0.0,0.0,0.0,0.0,0.0,0.0,0.0,0.0,0.0,0.0,0.0,0.0,0.0,0.0,0.0,0.0,0.0,0.0,0.0,0.0,0.0,0.0,0.0,0.0,0.0,0.0,0.0,0.0,0.0,0.0,0.0,0.0,0.0,0.0,0.0,0.0,0.0,0.0,0.0,0.0,0.0,0.0,0.0,0.0,0.0,0.0,0.0,0.0,0.0,0.0,0.0,0.0,0.0,0.0,0.0,0.0,0.0,0.0,0.0,0.0,0.0,0.0,0.0,0.0,0.0,0.0,0.0,0.0,0.0,0.0,0.0,0.0,0.0,0.0,0.0,0.0,0.0,0.0,0.0,0.0,0.0,0.0,0.0,0.0,0.0,0.0,0.0,0.0,0.0,0.0,0.0,0.0,0.0,0.0,0.0,0.0,0.0,0.0,0.0,0.0,0.0,0.0,0.0,0.0,0.0,0.0,0.0,0.0,0.0,0.0,0.0,0.0,0.0,0.0,0.0,0.0,0.0,0.0,0.0,0.0,0.0,0.0,0.0,0.0,0.0,0.0,0.0,0.0,0.0,0.0,0.0,0.0,0.0,0.0,0.0,0.0,0.0,0.0,0.0,0.0,0.0,0.0,0.0,0.0,0.0,0.0,0.0,0.0,0.0,0.0,0.0,0.0,0.0,0.0,0.0,0.0,0.0,0.0,0.0,0.0,0.0,0.0,0.0,0.0,0.0,0.0,0.0,0.0,0.0,0.0,0.0,0.0,0.0,0.0,0.0,0.0,0.0,0.0,0.0,0.0084,0.0083,0.0,0.0,0.0,0.0,0.0,0.0,0.0,0.0,0.0,0.0,0.0,0.0,0.0,0.0,0.0,0.0,0.0,0.0,0.0,0.0,0.0,0.0,0.0,0.0,0.0,0.0,0.0,0.0,0.0,0.0,0.0,0.0,0.0,0.0,0.0,0.0,0.0,0.0,0.0,0.0,0.0,0.0,0.0,0.0,0.0,0.0,0.0,0.0,0.0,0.0,0.0,0.0,0.0,0.0,0.0,0.0,0.0,0.0,0.0,0.0,0.0,0.0,0.0,0.0,0.0,0.0,0.0,0.0,0.0,0.0,0.0,0.0,0.0,0.0,0.0,0.0,0.0,0.0,0.0,0.0,0.0,0.0,0.0,0.0,0.0,0.0,0.0,0.0,0.0,0.0,0.0,0.0,0.0,0.0,0.0,0.0,0.0,0.0,0.0,0.0,0.0,0.0,0.0,0.0,0.0,0.0,0.0,0.0,0.0,0.0,0.0,0.0,0.0,0.0249,0.027,0.0,0.0,0.0,0.0,0.0,0.0,0.0,0.0,0.0,0.0,0.0,0.0,0.0,0.0,0.0,0.0,0.0,0.0,0.0,0.0,0.0,0.0,0.0,0.0,0.0,0.0,0.0,0.0,0.0,0.0,0.0,0.0,0.0,0.0,0.0,0.0,0.0,0.0,0.0,0.0,0.0,0.0,0.0,0.0,0.0,0.0,0.0,0.0,0.0,0.0,0.0,0.0,0.0,0.0,0.0,0.0,0.0,0.0,0.0,0.0,0.0,0.0,0.0,0.0,0.0,0.0,0.0,0.0,0.0,0.0,0.0,0.0,0.0,0.0,0.0,0.0,0.0,0.0,0.0,0.0,0.0,0.0,0.0,0.0,0.0,0.0,0.0,0.0,0.0,0.0,0.0,0.0,0.0,0.0,0.0,0.0,0.0,0.0,0.0,0.0,0.0,0.0,0.0,0.0,0.0,0.0,0.0,0.0,0.0,0.0,0.0,0.0,0.0,0.0082,0.0189,0.0,0.0,0.0,0.0,0.0,0.0,0.0,0.0,0.0,0.0,0.0,0.0,0.0,0.0,0.0,0.0,0.0,0.0,0.0,0.0,0.0,0.0,0.0,0.0,0.0,0.0,0.0,0.0,0.0,0.0,0.0,0.0,0.0,0.0,0.0,0.0,0.0,0.0,0.0,0.0,0.0,0.0,0.0,0.0,0.0,0.0,0.0,0.0,0.0,0.0,0.0,0.0,0.0,0.0,0.0,0.0,0.0,0.0,0.0,0.0,0.0,0.0,0.0,0.0,0.0,0.0,0.0,0.0,0.0,0.0,0.0,0.0,0.0,0.0,0.0,0.0,0.0,0.0,0.0,0.0,0.0,0.0,0.0,0.0,0.0,0.0,0.0,0.0,0.0,0.0,0.0,0.0,0.0,0.0,0.0,0.0,0.0,0.0,0.0,0.0,0.0,0.0,0.0,0.0,0.0,0.0,0.0,0.0,0.0,0.1149,0.1055,0.101,0.1014,0.1086,0.0858,0.0299,0.0,0.0,0.0,0.0,0.0,0.0,0.0,0.0,0.0,0.0,0.0,0.0,0.0,0.0,0.0,0.0,0.0,0.0,0.0,0.0,0.0,0.0,0.0,0.0,0.0,0.0,0.0,0.0,0.0,0.0,0.0,0.0,0.0,0.0,0.0,0.0,0.0,0.0,0.0,0.0,0.0,0.0,0.0,0.0,0.0,0.0,0.0,0.0,0.0,0.0,0.0,0.0,0.0,0.0,0.0,0.0,0.0,0.0,0.0,0.0,0.0,0.0,0.0,0.0,0.0,0.0,0.0,0.0,0.0,0.0,0.0,0.0,0.0,0.0,0.0,0.0,0.0,0.0,0.0,0.0,0.0,0.0,0.0,0.0,0.0,0.0,0.0,0.0,0.0,0.0,0.0,0.0,0.0,0.0,0.0,0.0,0.0,0.0,0.0,0.0,0.0,0.0,0.0,0.0,0.0,0.0,0.0,0.0,0.3243,0.3105,0.3001,0.2905,0.2987,0.2196,0.0,0.0,0.0,0.0,0.0,0.0,0.0,0.0,0.0,0.0,0.0,0.0,0.0,0.0,0.0,0.0,0.0,0.0,0.0,0.0,0.0,0.0,0.0,0.0,0.0,0.0,0.0,0.0,0.0,0.0,0.0,0.0,0.0,0.0,0.0,0.0,0.0,0.0,0.0,0.0,0.0,0.0,0.0,0.0,0.0,0.0,0.0,0.0,0.0,0.0,0.0,0.0,0.0,0.0,0.0,0.0,0.0,0.0,0.0,0.0,0.0,0.0,0.0,0.0,0.0,0.0,0.0,0.0,0.0,0.0,0.0,0.0,0.0,0.0,0.0,0.0,0.0,0.0,0.0,0.0,0.0,0.0,0.0,0.0,0.0,0.0,0.0,0.0,0.0,0.0,0.0,0.0,0.0,0.0,0.0,0.0,0.0,0.0,0.0,0.0,0.0,0.0,0.0,0.0,0.0,0.0,0.0,0.0,0.0,0.5068,0.641,0.6516,0.5243,0.3745,0.2922,0.0,0.0,0.0,0.0,0.0,0.0,0.0,0.0,0.0,0.0,0.0,0.0,0.0,0.0,0.0,0.0,0.0,0.0,0.0,0.0,0.0,0.0,0.0,0.0,0.0,0.0,0.0,0.0,0.0,0.0,0.0,0.0,0.0,0.0,0.0,0.0,0.0,0.0,0.0,0.0,0.0,0.0,0.0,0.0,0.0,0.0,0.0,0.0,0.0,0.0,0.0,0.0,0.0,0.0,0.0,0.0,0.0,0.0,0.0,0.0,0.0,0.0,0.0,0.0,0.0,0.0,0.0,0.0,0.0,0.0,0.0,0.0,0.0,0.0,0.0,0.0,0.0,0.0,0.0,0.0,0.0,0.0,0.0,0.0,0.0,0.0,0.0,0.0,0.0,0.0,0.0,0.0,0.0,0.0,0.0,0.0,0.0,0.0,0.0,0.0,0.0,0.0,0.0,0.0,0.0,0.0,0.0,0.0,0.4907,0.5982,0.8843,0.9853,0.8858,0.5727,0.391,0.0,0.0,0.0,0.0,0.0,0.0,0.0,0.0,0.0,0.0,0.0,0.0,0.0,0.0,0.0,0.0,0.0,0.0,0.0,0.0,0.0,0.0,0.0,0.0,0.0,0.0,0.0,0.0,0.0,0.0,0.0,0.0,0.0,0.0,0.0,0.0,0.0,0.0,0.0,0.0,0.0,0.0,0.0,0.0,0.0,0.0,0.0,0.0,0.0,0.0,0.0,0.0,0.0,0.0,0.0,0.0,0.0,0.0,0.0,0.0,0.0,0.0,0.0,0.0,0.0,0.0,0.0,0.0,0.0,0.0,0.0,0.0,0.0,0.0,0.0,0.0,0.0,0.0,0.0,0.0,0.0,0.0,0.0,0.0,0.0,0.0,0.0,0.0,0.0,0.0,0.0,0.0,0.0,0.0,0.0,0.0,0.0,0.0,0.0,0.0,0.0,0.0,0.0,0.0,0.0,0.0,0.0,0.0,0.6331,0.6621,1.054,1.2583,1.2515,0.8121,0.5087,0.0,0.0,0.0,0.0,0.0,0.0,0.0,0.0,0.0,0.0,0.0,0.0,0.0,0.0,0.0,0.0,0.0,0.0,0.0,0.0,0.0,0.0,0.0,0.0,0.0,0.0,0.0,0.0,0.0,0.0,0.0,0.0,0.0,0.0,0.0,0.0,0.0,0.0,0.0,0.0,0.0,0.0,0.0,0.0,0.0,0.0,0.0,0.0,0.0,0.0,0.0,0.0,0.0,0.0,0.0,0.0,0.0,0.0,0.0,0.0,0.0,0.0,0.0,0.0,0.0,0.0,0.0,0.0,0.0,0.0,0.0,0.0,0.0,0.0,0.0,0.0,0.0,0.0,0.0,0.0,0.0,0.0,0.0,0.0,0.0,0.0,0.0,0.0,0.0,0.0,0.0,0.0,0.0,0.0,0.0,0.0,0.0,0.0,0.0,0.0,0.0,0.0,0.0,0.0,0.0,0.0,0.0,0.0,0.7197,0.9168,1.1417,1.2684,1.281,0.8549,0.6185,0.0,0.0,0.0,0.0,0.0,0.0,0.0,0.0,0.0,0.0,0.0,0.0,0.0,0.0,0.0,0.0,0.0,0.0,0.0,0.0,0.0,0.0,0.0,0.0,0.0,0.0,0.0,0.0,0.0,0.0,0.0,0.0,0.0,0.0,0.0,0.0,0.0,0.0,0.0,0.0,0.0,0.0,0.0,0.0,0.0,0.0,0.0,0.0,0.3924,0.0,0.0,0.0,0.0,0.0,0.0,0.0,0.0,0.0,0.0,0.0,0.0,0.0,0.0,0.0,0.0,0.0,0.0,0.0,0.0,0.0,0.0,0.0,0.0,0.0,0.0,0.0,0.0,0.0,0.0,0.0,0.0,0.0,0.0,0.0,0.0,0.0,0.0,0.0,0.0,0.0,0.0,0.0,0.0,0.0,0.0,0.0,0.0,0.0,0.0,0.0,0.0,0.0,0.0,0.0,0.0,0.0,0.0,0.0,0.7534,0.9954,1.1954,1.3036,1.3021,0.9945,0.7787,0.0,0.0,0.0,0.0,0.0,0.0,0.0,0.0,0.0,0.0,0.0,0.0,0.0,0.0,0.0,0.0,0.0,0.0,0.0,0.0,0.0,0.0,0.0,0.0,0.0,0.0,0.0,0.0,0.0,0.0,0.0,0.0,0.0,0.0,0.0,0.0,0.0,0.0,0.0,0.0,0.0,0.0,0.0,0.0,0.0,0.0,0.0,0.0,0.0,0.0,0.0,0.0,0.0,0.0,0.0,0.0,0.0,0.0,0.0,0.0,0.0,0.0,0.0,0.0,0.0,0.0,0.0,0.0,0.0,0.0,0.0,0.0,0.0,0.0,0.0,0.0,0.0,0.0,0.0,0.0,0.0,0.0,0.0,0.0,0.0,0.0,0.0,0.0,0.0,0.0,0.0,0.0,0.0,0.0,0.0,0.0,0.0,0.0,0.0,0.0,0.0,0.0,0.0,0.0,0.0,0.0,0.0,0.563,0.7806,1.0504,1.2413,1.3429,1.3399,1.1403,0.9209,0.6895,0.0,0.0,0.0,0.0,0.0,0.0,0.0,0.0,0.0,0.0,0.0,0.0,0.0,0.0,0.0,0.0,0.0,0.0,0.0,0.0,0.0,0.0,0.0,0.0,0.0,0.0,0.0,0.0,0.0,0.0,0.0,0.0,0.0,0.0,0.0,0.0,0.0,0.0,0.0339,0.0174,0.0,0.0,0.0,0.0,0.0,0.0,0.0,0.0,0.1487,0.0,0.0,0.0,0.0,0.0,0.0,0.0,0.0,0.0,0.0,0.0,0.0,0.0,0.0,0.0,0.0,0.0,0.0,0.0,0.0,0.0,0.0,0.0,0.0,0.0,0.0,0.0,0.0,0.0,0.0,0.0,0.0,0.0,0.0,0.0,0.0,0.0,0.0,0.0,0.0,0.0,0.0,0.0,0.0,0.0,0.0,0.0,0.0,0.0,0.0,0.0,0.0,0.0,0.0,0.0,0.0,0.619,0.6421,0.8651,1.2967,1.3271,1.3496,1.3567,1.1461,0.9204,0.6906,0.0,0.0,0.0,0.0,0.0,0.0,0.0,0.0,0.0,0.0,0.0,0.0,0.0,0.0,0.0,0.0,0.0,0.0,0.0,0.0,0.0,0.0,0.0,0.0,0.0,0.0,0.0,0.0,0.0,0.0,0.0,0.0,0.0,0.0,0.0,0.0,0.0,0.0,0.0,0.087,0.061,0.0,0.0,0.0,0.0,0.0,0.0,0.0,0.0,0.2771,0.0,0.0,0.0,0.0,0.0,0.0,0.0,0.0,0.0,0.0,0.0,0.0,0.0,0.0,0.0,0.0,0.0,0.0,0.0,0.0,0.0,0.0,0.0,0.0,0.0,0.0,0.0,0.0,0.0,0.0,0.0,0.0,0.0,0.0,0.0,0.0,0.0,0.0,0.0,0.0,0.0,0.0,0.0,0.0,0.0,0.0,0.0,0.0,0.0,0.0,0.0,0.0,0.0,0.0,0.0,0.6671,0.7908,1.017,1.3545,1.3599,1.3646,1.3784,1.1557,0.9277,0.0,0.0,0.0,0.0,0.0,0.0,0.0,0.0,0.0,0.0,0.0,0.0,0.0,0.0,0.0,0.0,0.0,0.0,0.0,0.0,0.0,0.0,0.0,0.0,0.0,0.0,0.0,0.0,0.0,0.0,0.0,0.0,0.0,0.0,0.0,0.0,0.0,0.0,0.0,0.0,0.186,0.1973,0.355,0.0,0.0,0.0,0.0,0.0,0.0,0.2995,0.2759,0.0,0.0,0.0,0.0,0.0,0.0,0.0,0.0,0.0,0.0,0.0,0.0,0.0,0.0,0.0,0.0,0.0,0.0,0.0,0.0,0.0,0.0,0.0,0.0,0.0,0.0,0.0,0.0,0.0,0.0,0.0,0.0,0.0,0.0,0.0,0.0,0.0,0.0,0.0,0.0,0.0,0.0,0.0,0.0,0.0,0.0,0.0,0.0,0.0,0.0,0.0,0.0,0.0,0.0,0.0,0.6961,0.94,1.1709,1.3807,1.3889,1.3914,1.3991,1.1157,0.8854,0.0,0.0,0.0,0.0,0.0,0.0,0.0,0.0,0.0,0.0,0.0,0.0,0.0,0.0,0.0,0.0,0.0,0.0,0.0,0.0,0.0,0.0,0.0,0.0,0.0,0.0,0.0,0.0,0.0,0.0,0.0,0.0,0.0,0.0,0.0,0.0,0.0,0.0,0.0,0.0,0.0,0.3247,0.4727,0.3668,0.0,0.0,0.0,0.0,0.301,0.332,0.0,0.0,0.0,0.0,0.0,0.0,0.0,0.0,0.0,0.0,0.0,0.0,0.0,0.0,0.0,0.0,0.0,0.0,0.0,0.0,0.0,0.0,0.0,0.0,0.0,0.0,0.0,0.0,0.0,0.0,0.0,0.0,0.0,0.0,0.0,0.0,0.0,0.0,0.0,0.0,0.0,0.0,0.0,0.0,0.0,0.0,0.0,0.0,0.0,0.0,0.0,0.0,0.0,0.0,0.0,0.0,0.7589,1.0317,1.2679,1.4543,1.4492,1.4369,1.4198,0.9689,0.7225,0.0,0.0,0.0,0.0,0.0,0.0,0.0,0.0,0.0,0.0,0.0,0.0,0.0,0.0,0.0,0.0,0.0,0.0,0.0,0.0,0.0,0.0,0.0,0.0,0.0,0.0,0.0,0.0,0.0,0.0,0.0,0.0,0.0,0.0,0.0,0.0,0.0,0.0,0.0,0.0,0.0,0.3282,0.4842,0.3719,0.2674,0.0,0.0,0.474,0.4651,0.6063,0.0,0.0,0.0,0.0,0.0,0.0,0.0,0.0,0.0,0.0,0.0,0.0,0.0,0.0,0.0,0.0,0.0,0.0,0.0,0.0,0.0,0.0,0.0,0.0,0.0,0.0,0.0,0.0,0.0,0.0,0.0,0.0,0.0,0.0,0.0,0.0,0.0,0.0,0.0,0.0,0.0,0.0,0.0,0.0,0.0,0.0,0.0,0.0,0.0,0.0,0.0,0.0,0.0,0.0,0.0,0.6711,0.7798,1.1534,1.3966,1.4755,1.4533,1.4394,1.4455,0.9642,0.7134,0.0,0.0,0.0,0.0,0.0,0.0,0.0,0.0,0.0,0.0,0.0,0.0,0.0,0.0,0.0,0.0,0.0,0.0,0.0,0.0,0.0,0.0,0.0,0.0,0.0,0.0,0.0,0.0,0.0,0.0,0.0,0.0,0.0,0.0,0.0,0.0,0.0,0.0,0.0,0.0,0.0,0.0,0.4774,0.4461,0.0,0.0,0.0,0.4459,0.3402,0.0,0.0,0.0,0.0,0.0,0.0,0.0,0.0,0.0,0.0,0.0,0.0,0.0,0.0,0.0,0.0,0.0,0.0,0.0,0.0,0.0,0.0,0.0,0.0,0.0,0.0,0.0,0.0,0.0,0.0,0.0,0.0,0.0,0.0,0.0,0.0,0.0,0.0,0.0,0.0,0.0,0.0,0.0,0.0,0.0,0.0,0.0,0.0,0.0,0.0,0.0,0.0,0.0,0.0,0.0,0.0,0.0,0.7853,1.2712,1.5132,1.4974,1.4673,1.455,1.4589,1.0391,0.0,0.0,0.0,0.0,0.0,0.0,0.0,0.0,0.0,0.0,0.0,0.0,0.0,0.0,0.0,0.0,0.0,0.0,0.0,0.0,0.0,0.0,0.0,0.0,0.0,0.0,0.0,0.046,0.0,0.0,0.0,0.0,0.0,0.0,0.0,0.0,0.0,0.0,0.0,0.0,0.0,0.0,0.5095,0.4706,0.4911,0.5028,0.0,0.0,0.426,0.3462,0.5895,0.6784,0.0,0.0,0.0,0.0,0.0,0.0,0.0,0.0,0.0,0.0,0.0,0.0,0.0,0.0,0.0,0.0,0.0,0.0,0.0,0.0,0.0,0.0,0.0,0.0,0.0,0.0,0.0,0.0,0.0,0.0,0.0,0.0,0.0,0.0,0.0,0.0,0.0,0.0,0.0,0.0,0.0,0.0,0.0,0.0,0.0,0.0,0.0,0.0,0.0,0.0,0.0,0.0,0.0,0.0,0.8307,0.816,1.3529,1.6063,1.5479,1.5186,1.4994,1.4828,1.2131,0.9652,0.0,0.0,0.0,0.0,0.0,0.0,0.0,0.0,0.0,0.0,0.0,0.0,0.0,0.0,0.0,0.0,0.0,0.0,0.0,0.0,0.0,0.0,0.0,0.0,0.0,0.0,0.0,0.0,0.0,0.0,0.0,0.0,0.0,0.0,0.0,0.0,0.0,0.0,0.0,0.0,0.0,0.4835,0.4804,0.4544,0.4972,0.0,0.5392,0.4946,0.6664,0.8605,0.8832,0.5475,0.0,0.0,0.0,0.0,0.0,0.0,0.0,0.0,0.0,0.0,0.0,0.0,0.0,0.0,0.0,0.0,0.0,0.0,0.0,0.0,0.0,0.0,0.0,0.0,0.0,0.0,0.0,0.0,0.0,0.0,0.0,0.0,0.0,0.0,0.0,0.0,0.0,0.0,0.0,0.0,0.0,0.0,0.0,0.0,0.0,0.0,0.0,0.0,0.0,0.0,0.0,0.0,0.0,0.8389,0.8248,1.3576,1.6224,1.5854,1.5408,1.5134,1.5078,1.2508,0.9953,0.0,0.0,0.0,0.0,0.0,0.0,0.0,0.0,0.0,0.0,0.0,0.0,0.0,0.0,0.0,0.0,0.0,0.0,0.0,0.0,0.0,0.0,0.0,0.0,0.0,0.0,0.0,0.0,0.3395,0.3374,0.2419,0.0,0.0,0.0,0.0,0.0,0.0,0.0,0.0,0.0,0.0,0.5613,0.6485,0.6692,0.0,0.0,0.67,0.6153,0.5862,0.7278,0.7292,0.4034,0.3562,0.0,0.0,0.0,0.0,0.0,0.0,0.0,0.0,0.0,0.0,0.0,0.0,0.0,0.0,0.0,0.0,0.0,0.0,0.0,0.0,0.0,0.0,0.0,0.0,0.0,0.0,0.0,0.0,0.0,0.0,0.0,0.0,0.0,0.0,0.0,0.0,0.0,0.0,0.0,0.0,0.0,0.0,0.0,0.0,0.0,0.0,0.0,0.0,0.0,0.0,0.0,0.0,0.8509,0.8339,1.3782,1.649,1.6278,1.575,1.5462,1.541,1.3474,1.1214,0.0,0.0,0.0,0.0,0.0,0.0,0.0,0.0,0.0,0.0,0.0,0.0,0.0,0.0,0.0,0.0,0.0,0.0,0.0,0.0,0.0,0.0,0.0,0.0,0.0,0.0,0.0,0.0,0.3742,0.3568,0.232,0.0,0.0,0.0,0.0,0.0,0.0,0.0,0.0,0.0,0.0,0.6395,0.6856,0.7065,0.7011,0.6614,0.608,0.5512,0.4955,0.5827,0.5826,0.37,0.0,0.0,0.0,0.0,0.0,0.0,0.0,0.0,0.0,0.0,0.0,0.0,0.0,0.0,0.0,0.0,0.0,0.0,0.0,0.0,0.0,0.0,0.0,0.0,0.0,0.0,0.0,0.0,0.0,0.0,0.0,0.0,0.0,0.0,0.0,0.0,0.0,0.0,0.0,0.0,0.0,0.0,0.0,0.0,0.0,0.0,0.0,0.0,0.0,0.0,0.0,0.0,0.0,0.8684,0.8404,1.4137,1.7024,1.6685,1.6292,1.6045,1.6045,1.5429,1.3934,1.1406,0.0,0.0,0.0,0.0,0.0,0.0,0.0,0.0,0.0,0.0,0.0,0.0,0.0,0.0,0.0,0.0,0.0,0.0,0.0,0.0,0.0,0.0,0.0,0.0,0.0,0.0,0.0443,0.1581,0.248,0.0,0.0,0.0,0.0,0.0,0.0,0.0,0.0,0.0,0.2887,0.5661,0.7031,0.5426,0.4857,0.4675,0.4553,0.3027,0.2499,0.4538,0.4844,0.4963,0.0,0.0,0.0,0.0,0.0,0.0,0.0,0.0,0.0,0.0,0.0,0.0,0.0,0.0,0.0,0.0,0.0,0.0,0.0,0.0,0.0,0.0,0.0,0.0,0.0,0.0,0.0,0.2586,0.2574,0.0,0.0,0.0,0.0,0.0,0.0,0.0,0.0,0.0,0.0,0.0,0.6718,0.6686,0.0,0.0,0.0,0.0,0.0,0.0,0.0,0.0,0.0,0.0,0.0,0.0,0.8794,0.8831,1.417,1.6945,1.6683,1.6209,1.596,1.596,1.5657,1.4216,1.156,0.0,0.0,0.0,0.0,0.0,0.0,0.0,0.0,0.0,0.0,0.0,0.0,0.0,0.0,0.0,0.0,0.0,0.0,0.0,0.0,0.0,0.0,0.0,0.0,0.0,0.2283,0.0,0.0,0.0,0.0,0.0,0.0,0.0,0.0,0.0,0.0,0.0,0.322,0.4544,0.4602,0.4741,0.5332,0.5308,0.5704,0.0,0.0,0.0,0.0,0.0,0.0,0.0,0.0,0.0,0.0,0.0,0.0,0.0,0.0,0.3401,0.205,0.2772,0.3605,0.3605,0.0,0.0,0.0,0.0,0.0,0.0,0.0,0.0,0.0,0.0,0.0,0.0,0.0,0.0,0.4728,0.0,0.4882,0.0,0.0,0.0,0.0,0.0,0.0,0.0,0.0,0.7792,0.9098,0.9954,0.9756,0.9732,0.0,0.8723,0.6464,0.0,0.0,0.0,0.0,0.0,0.0,0.0,0.0,0.8959,0.9089,1.443,1.7277,1.7177,1.6531,1.6209,1.6285,1.5914,1.4767,1.2778,1.0108,0.7867,0.0,0.0,0.0,0.0,0.0,0.0,0.0,0.0,0.0,0.0,0.0,0.0,0.0,0.0,0.0,0.0,0.0,0.0,0.0,0.0,0.0,0.0,0.0,0.2781,0.0,0.0,0.0,0.0,0.0,0.0,0.0,0.0,0.0,0.2894,0.3371,0.4177,0.548,0.5192,0.4801,0.4667,0.0,0.0,0.0,0.0,0.0,0.0,0.0,0.2606,0.2031,0.2507,0.338,0.4618,0.5386,0.5783,0.5808,0.0,0.0,0.4096,0.4652,0.5475,0.541,0.5392,0.5395,0.5402,0.5564,0.5742,0.0,0.0,0.0,0.0,0.0,0.0,0.0,0.0,0.8002,0.6637,0.0,0.6923,0.0,0.0,0.0,0.0,0.0,0.7466,0.0,0.0,1.4282,1.5509,1.3477,1.3078,1.3046,1.306,1.0389,0.905,0.8976,0.8834,0.0,0.0,0.0,0.0,0.0,0.0,0.9266,0.9559,1.5013,1.7997,1.8109,1.7181,1.6816,1.7011,1.6305,1.5574,1.4917,1.2624,1.1041,1.032,0.6107,0.0,0.0,0.0,0.0,0.0,0.0,0.0,0.0,0.0,0.0,0.0,0.0,0.0,0.0,0.0,0.0,0.0,0.0,0.0,0.0,0.2735,0.0,0.0,0.0,0.0,0.0,0.0,0.0,0.0,0.0,0.0,0.3065,0.4415,0.555,0.5662,0.0,0.0,0.0,0.0,0.4411,0.0893,0.0229,0.0326,0.043,0.1892,0.3604,0.531,0.0,0.0,0.8473,0.7096,0.6125,0.6047,0.7523,0.8001,0.6172,0.5948,0.5889,0.574,0.5827,0.5617,0.5632,0.6193,0.6368,1.0445,0.0,0.0,0.0,0.0,0.7534,0.9157,1.1797,1.1797,1.1253,1.0451,1.1109,0.0,0.0,0.0,0.0,0.0,0.0,1.0364,1.2298,1.384,1.5144,1.6278,1.6035,1.598,1.5981,1.5174,1.4929,1.5243,1.5134,1.1358,0.4239,0.0,0.0,0.0,0.0,1.0485,1.2637,1.6125,1.785,1.762,1.7088,1.6621,1.6274,1.6018,1.554,1.4778,1.3594,1.2072,1.0242,0.8414,0.0,0.0,0.0,0.0,0.0,0.0,0.0,0.0,0.0,0.0,0.0,0.0,0.0,0.0,0.0,0.0,0.0,0.0,0.0,0.2686,0.394,0.3851,0.0,0.0,0.0,0.0,0.0,0.0,0.0,0.0,0.0,0.5074,0.416,0.3573,0.0,0.0,0.2074,0.0971,0.2572,0.3822,0.3736,0.4146,0.0,0.5856,0.5611,0.5496,0.603,0.7589,0.8748,0.8669,0.9353,0.993,0.9924,1.0344,1.0474,0.9905,0.9647,0.9521,0.9364,0.9341,0.9291,0.9234,0.9556,0.9889,1.6021,1.3011,1.0658,1.0293,1.1283,1.1061,1.2532,1.5135,1.4852,1.4153,1.325,1.4226,1.2522,0.8947,0.9042,0.0,0.0,0.0,1.2922,1.5531,1.5466,1.6365,1.795,1.7805,1.7765,1.7945,1.7806,1.7907,1.8168,1.6862,1.3469,0.8094,0.0,0.0,0.6868,0.9746,1.2078,1.3928,1.6449,1.7686,1.7517,1.6962,1.6416,1.5931,1.5813,1.5371,1.4503,1.406,1.2989,1.122,0.9843,0.7952,0.0,0.0,0.0,0.0,0.0,0.0,0.0,0.0,0.0,0.0,0.0,0.2404,0.1256,0.0,0.0,0.0,0.3915,0.3811,0.3758,0.4189,0.0,0.0,0.0,0.0,0.0,0.0,0.0,0.2373,0.4501,0.6104,0.6172,0.4935,0.4334,0.5264,0.4378,0.3364,0.2613,0.0,0.5567,0.5617,0.6012,0.6601,0.7431,0.7507,0.7688,0.8497,0.9427,1.0104,1.0106,1.0987,1.1665,1.1665,1.166,1.1556,1.1497,1.1402,1.1274,1.1077,1.0901,1.0846,1.0979,1.1318,1.1697,2.1124,2.0167,1.4728,1.3562,1.5258,1.4684,1.5797,1.8006,1.7386,1.593,1.4216,1.6463,1.4811,1.0333,1.0625,0.0,1.4588,1.4928,1.6489,1.9002,1.8575,1.8583,1.9005,1.8652,1.8688,1.9107,1.8779,1.8633,1.856,1.5822,1.426,1.4019,1.3735,1.2229,0.9871,1.2066,1.3491,1.3906,1.6022,1.7285,1.762,1.6917,1.6322,1.5877,1.5663,1.5112,1.4132,1.4087,1.3672,1.2668,1.0653,0.9334,0.8893,0.0,0.0,0.0,0.0,0.0,0.0,0.0,0.0,0.0,0.0,0.0,0.0,0.0,0.0,0.5424,0.5732,0.0,0.5642,0.4156,0.0,0.0,0.0,0.3954,0.5447,0.6176,0.6309,0.5663,0.0,0.0,0.6707,0.641,0.704,0.9213,0.9171,0.8291,0.654,0.7806,0.8548,0.6713,0.6673,0.6773,0.7124,0.8274,0.9817,1.1294,1.2006,1.1836,1.1803,1.177,1.1763,1.1713,1.1678,1.1577,1.1584,1.155,1.1518,1.1288,1.0989,1.0933,1.1333,1.1631,1.1936,2.3317,2.2871,2.1451,2.0208,1.9154,1.8989,1.96,2.0539,1.9854,1.9418,1.9281,1.9268,1.8434,1.7076,1.7718,1.8284,1.8868,1.9478,2.0243,2.1102,2.033,2.0005,2.005,1.9316,1.9,1.9107,1.9035,1.9094,1.9244,1.8352,1.6706,1.4481,1.4162,1.2638,0.9963,1.0468,1.178,1.3752,1.4284,1.5361,1.6952,1.6809,1.6313,1.5475,1.5397,1.489,1.3911,1.357,1.3155,1.2481,1.1662,1.0461,0.882,0.6465,0.0,0.0,0.0,0.0,0.0,0.0,0.0,0.0,0.0,0.2271,0.0811,0.0,0.3076,0.0,0.634,0.7967,0.7664,0.7621,0.0,0.0,0.5778,0.5593,0.574,0.7473,0.7847,0.5676,0.7116,0.838,0.8521,0.8355,0.9182,1.1646,0.8913,0.6519,0.6337,0.8039,0.8933,0.803,0.9217,1.03,0.9634,1.0188,1.0894,1.1182,1.1289,1.1252,1.1145,1.123,1.1354,1.1347,1.1497,1.159,1.1584,1.1525,1.1484,1.1491,1.1362,1.124,1.1269,1.1761,1.2217,2.4623,2.4342,2.4209,2.3381,2.2078,2.1526,2.1441,2.1612,2.091,2.0792,2.1012,2.073,2.0616,2.0761,2.1157,2.1158,2.0963,2.1294,2.1465,2.1415,2.0852,2.0585,2.0597,2.0306,2.0177,2.0188,2.0063,2.0091,2.0102,1.9757,1.869,1.7067,1.6823,1.5297,1.2489,1.0504,1.0271,1.1713,1.2665,1.4318,1.654,1.6392,1.5476,1.3794,1.3574,1.2559,1.0685,1.0365,1.0042,0.9606,0.9264,0.863,0.7433,0.557,0.4034,0.0,0.0,0.0,0.0,0.0,0.0,0.0,0.0,0.0,0.0,0.0,0.3987,0.394,0.6725,0.8122,0.7092,0.7322,0.7439,0.7277,0.7277,0.7576,0.8306,0.9752,1.0059,0.841,0.9563,1.0459,1.0386,1.0154,1.0599,1.2264,1.0017,0.8368,0.8829,0.9726,1.0051,0.9623,1.0694,1.147,1.0928,1.1097,1.1276,1.117,1.1273,1.1357,1.1314,1.1476,1.1619,1.1665,1.1663,1.1604,1.1658,1.1599,1.1567,1.1794,1.1802,1.1762,1.1783,1.2175,1.2544,2.5398,2.5155,2.4813,2.4583,2.4203,2.3112,2.2484,2.2151,2.1505,2.123,2.1309,2.1586,2.2022,2.2523,2.2565,2.2342,2.2015,2.1991,2.18,2.1485,2.1185,2.108,2.1091,2.1353,2.1444,2.1455,2.1234,2.104,2.0841,2.0418,1.9923,1.9535,1.9299,1.7702,1.4748,1.0958,0.9123,0.9286,1.1472,1.3724,1.5952,1.5126,1.3538,1.1375,1.0926,0.944,0.6777,0.663,0.6437,0.6024,0.5903,0.5948,0.6093,0.4297,0.3339,0.0,0.1743,0.0,0.0,0.0,0.0,0.0,0.0,0.0,0.0,0.5617,0.547,0.5515,0.7156,0.7587,0.6246,0.6174,0.6919,0.8661,0.888,0.9632,1.1378,1.2058,1.2145,1.172,1.215,1.2342,1.192,1.1694,1.1617,1.1898,1.1533,1.1206,1.1821,1.1483,1.1158,1.1248,1.1158,1.1062,1.1017,1.1062,1.1068,1.1146,1.1289,1.165,1.1553,1.1732,1.1978,1.2021,1.1821,1.1678,1.18,1.1692,1.177,1.2122,1.2244,1.2316,1.2476,1.2692,1.2992,2.5743,2.5424,2.5371,2.5184,2.4903,2.4685,2.4312,2.3795,2.309,2.2769,2.28,2.317,2.3236,2.3089,2.3615,2.3757,2.3676,2.4171,2.4494,2.4604,2.3592,2.312,2.3044,2.1843,2.1268,2.1229,2.0884,2.07,2.0656,2.0188,1.8563,1.594,1.5557,1.3726,1.0639,0.0,0.0,0.0,1.1837,1.3311,1.3408,1.088,0.9146,0.8335,0.8235,0.0,0.6893,0.6837,0.6571,0.6031,0.5998,0.0,0.0,0.0,0.0,0.0,0.0,0.0,0.0,0.0,0.0,0.0,0.5102,0.5117,0.5481,0.5435,0.5978,0.7269,0.8036,0.8852,0.9863,1.0237,1.0577,1.0941,1.1033,1.1091,1.1318,1.1993,1.2194,1.157,1.2179,1.2612,1.2475,1.2411,1.231,1.2373,1.2291,1.2068,1.1909,1.162,1.1276,1.0949,1.0605,1.0303,1.0253,1.0303,1.0392,1.0253,1.0291,1.0408,1.0513,1.0948,1.122,1.1333,1.1536,1.18,1.1986,1.1803,1.1768,1.2278,1.2525,1.271,1.2751,1.297,1.3231,2.656,2.636,2.6066,2.5865,0.0,2.5424,2.5163,2.4854,2.4024,2.3788,2.4004,2.3981,2.4142,2.4422,2.4569,2.4685,2.4776,2.4921,2.5066,2.5173,2.4301,2.3824,2.3674,2.3009,2.2423,2.2008,2.185,2.1561,2.1103,2.0422,1.9233,1.7581,1.7057,1.6069,1.4786,1.4506,1.327,1.1065,1.2506,1.3658,1.4455,1.2752,1.1016,0.9509,0.9095,0.0,0.0,0.0,0.0,0.0,0.0,0.0,0.0,0.5954,0.0,0.6681,0.5839,0.5688,0.6459,0.6611,0.7119,0.8194,0.8415,0.801,0.7038,0.795,0.8902,0.9542,0.9896,1.0331,1.0965,1.1445,1.1671,1.1612,1.1806,1.196,1.2092,1.2214,1.2268,1.2213,1.232,1.2318,1.2069,1.2014,1.1865,1.176,1.1588,1.1517,1.1347,1.1456,1.1414,1.097,1.0685,1.0442,1.0238,1.0397,1.0487,1.0442,1.0739,1.0984,1.0925,1.1306,1.1663,1.1702,1.1848,1.1999,1.2115,1.1932,1.1842,1.2362,1.2496,1.2697,1.3102,1.3567,1.3904,2.7309,2.7255,2.6694,2.644,2.6346,2.5812,2.5558,2.5464,0.0,0.0,0.0,2.4642,2.4925,2.5647,2.5362,2.5398,2.5626,2.5318,2.5178,2.5166,2.4541,2.4163,2.3922,2.3997,2.3615,2.2889,2.2959,2.2502,2.1543,2.0777,2.0297,2.0085,1.9553,1.9493,1.9959,1.9522,1.7551,1.4097,1.3386,1.4003,1.5626,1.4657,1.2996,1.0733,1.0065,0.873,0.6659,0.6206,0.5981,0.5903,0.5564,0.554,0.5866,0.5866,0.5997,0.6296,0.6339,0.6973,0.8304,0.8451,0.9257,1.1176,1.1513,1.0906,0.9083,1.0699,1.1647,1.1383,1.1444,1.1419,1.1262,1.1575,1.1793,1.1767,1.2095,1.2476,1.2809,1.2594,1.2527,1.291,1.2678,1.2267,1.1981,1.1915,1.1605,1.1265,1.1409,1.1153,1.1167,1.1371,1.1333,1.1062,1.0919,1.0856,1.0741,1.0896,1.1062,1.1009,1.154,1.1977,1.194,1.2075,1.2311,1.2289,1.226,1.2234,1.2385,1.2193,1.2197,1.2738,1.2736,1.2822,1.3582,1.4252,1.4603,2.7309,2.7282,2.6894,2.6613,2.636,2.6078,2.5745,2.5504,2.5726,2.5672,2.5407,2.571,2.5726,2.5541,2.5757,2.6024,2.6266,2.6227,2.6255,2.6312,2.5402,2.4889,2.4675,2.376,2.3263,2.3135,2.3051,2.243,2.1438,2.1059,2.0436,1.952,1.9178,1.8976,1.8801,1.8355,1.7838,1.717,1.4612,1.3233,1.3166,1.0152,0.8371,0.7986,0.7572,0.6885,0.6115,0.6108,0.5825,0.5519,0.5412,0.6105,0.7617,0.7621,0.8257,0.9783,0.9927,1.0102,1.043,1.0577,1.0944,1.1618,1.1744,1.1475,1.0811,1.1052,1.1202,1.1138,1.124,1.1337,1.1618,1.1802,1.2011,1.2313,1.2441,1.2527,1.2656,1.2844,1.3045,1.3163,1.3413,1.3507,1.3317,1.3238,1.2962,1.2733,1.2495,1.2906,1.2548,1.1688,1.0946,1.0936,1.0988,1.1149,1.138,1.1557,1.1597,1.1607,1.1681,1.1869,1.1865,1.2035,1.2233,1.2213,1.2306,1.2498,1.2856,1.2766,1.2915,1.3559,1.3766,1.4019,1.4207,1.4801,1.5166,2.7938,2.775,2.7415,2.7228,2.7081,2.6827,2.6626,2.6506,2.6902,2.6483,2.5531,2.5709,2.5845,2.5985,2.6172,2.6321,2.6518,2.6505,2.6406,2.6177,2.5526,2.5151,2.5071,2.4439,2.3897,2.3457,2.3657,2.3109,2.1881,2.1365,2.0765,1.9979,1.9296,1.8842,1.8569,1.8244,1.7903,1.7502,1.6286,1.5448,1.5002,1.2865,1.1615,1.1392,1.077,1.0182,0.9663,0.9515,0.9195,0.8698,0.8507,0.8788,0.9543,0.9392,0.9763,1.08,1.0683,1.0705,1.0971,1.1541,1.1991,1.2273,1.2545,1.2488,1.2123,1.2239,1.2322,1.2371,1.2388,1.2436,1.2436,1.2611,1.2836,1.2978,1.3188,1.3361,1.3348,1.3197,1.3313,1.3594,1.3548,1.3495,1.3495,1.3442,1.3232,1.2836,1.2813,1.2788,1.2711,1.1813,1.1258,1.1775,1.1926,1.1891,1.1926,1.1932,1.1983,1.2118,1.214,1.223,1.234,1.2529,1.2595,1.2745,1.2805,1.2993,1.338,1.3284,1.3408,1.3672,1.383,1.3901,1.4202,1.4774,1.5123,2.8906,2.8692,2.8159,2.7805,2.7589,2.7428,2.7362,2.7363,2.7703,2.7135,2.6024,2.5983,2.6238,2.656,2.6587,2.6679,2.683,2.6652,2.6403,2.6093,2.5554,2.5293,2.519,2.5016,2.4472,2.3804,2.4192,2.3667,2.2309,2.1766,2.1127,2.0346,1.9396,1.8729,1.8408,1.8121,1.7647,1.7067,1.7188,1.712,1.6743,1.582,1.5112,1.4614,1.3895,1.333,1.2791,1.2426,1.2071,1.1669,1.1202,1.1002,1.105,1.0752,1.0729,1.1047,1.0799,1.0809,1.1307,1.1995,1.2557,1.2885,1.3248,1.338,1.3249,1.3443,1.351,1.3348,1.3293,1.3268,1.3129,1.3356,1.3583,1.3611,1.3948,1.4079,1.4109,1.371,1.3597,1.4001,1.371,1.3471,1.3465,1.3439,1.3257,1.2923,1.2635,1.2564,1.2397,1.2069,1.2193,1.2526,1.2609,1.243,1.2318,1.2187,1.2303,1.2578,1.2606,1.269,1.2896,1.3051,1.3096,1.3146,1.3167,1.3273,1.3617,1.3699,1.377,1.4014,1.4151,1.4164,1.4506,1.4751,1.5083,3.0263,3.0108,2.9156,2.8219,2.7443,2.7617,2.7576,2.7389,2.7618,2.7551,2.7176,2.7514,2.7487,2.7269,2.7215,2.7307,2.7505,2.6908,2.661,2.655,2.5729,2.5227,2.5017,2.4794,2.4389,2.4057,2.4244,2.3614,2.2174,2.2191,2.1406,1.9828,1.9118,1.8572,1.7921,1.7465,1.6984,1.6478,1.6313,1.6156,1.5957,1.5363,1.4818,1.435,1.3735,1.3276,1.2927,1.2482,1.2277,1.2289,1.1541,1.13,1.1601,1.1274,1.1107,1.1248,1.121,1.1478,1.2025,1.2175,1.2611,1.3388,1.3558,1.3748,1.4084,1.4159,1.3837,1.3262,1.3002,1.3192,1.3451,1.3591,1.3805,1.4108,1.4221,1.4278,1.4272,1.4228,1.4221,1.4228,1.4194,1.4207,1.4123,1.4035,1.3823,1.3402,1.3327,1.3199,1.3,1.2884,1.2871,1.2947,1.2359,1.2152,1.2733,1.2567,1.2471,1.2991,1.2914,1.2847,1.3048,1.3179,1.318,1.3293,1.3075,1.3207,1.3715,1.3977,1.4143,1.4492,1.4879,1.5485,1.5454,1.5171,1.5144,3.0413,3.0391,2.9381,2.8708,2.8393,2.8699,2.8734,2.8503,2.8598,2.849,2.8177,2.8122,2.7903,2.7563,2.7563,2.7558,2.753,2.7271,2.6861,2.6376,2.5952,2.5578,2.5252,2.5126,2.4783,2.4286,2.4468,2.3905,2.2732,2.2044,2.1214,2.0221,1.9476,1.8784,1.8252,1.7726,1.7156,1.6401,1.6331,1.5999,1.5387,1.495,1.4606,1.4387,1.39,1.3343,1.2764,1.2472,1.2154,1.1698,1.1383,1.1286,1.1509,1.1095,1.1022,1.1378,1.1423,1.176,1.2559,1.2609,1.3008,1.3945,1.4033,1.4155,1.4376,1.4428,1.4242,1.3923,1.3769,1.3812,1.3996,1.4033,1.4111,1.4349,1.4353,1.4333,1.4421,1.4346,1.4299,1.4299,1.4299,1.4299,1.4292,1.4245,1.3985,1.3588,1.3455,1.3321,1.2823,1.2485,1.2447,1.2461,1.1694,1.1653,1.2609,1.2526,1.2359,1.2484,1.2484,1.2526,1.2886,1.3239,1.337,1.3526,1.3387,1.3462,1.3988,1.405,1.4156,1.4516,1.4663,1.498,1.4907,1.493,1.5078,3.0793,3.0758,2.976,2.9199,2.9045,2.9379,2.9387,2.924,2.9227,2.9061,2.8829,2.8518,2.8272,2.7963,2.7869,2.7698,2.7503,2.736,2.6868,2.6146,2.5976,2.572,2.5391,2.5263,2.4911,2.4399,2.4314,2.379,2.2759,2.1944,2.1128,2.039,1.9728,1.9117,1.8514,1.8042,1.7332,1.6489,1.6269,1.5741,1.4919,1.4561,1.4427,1.4378,1.4036,1.3472,1.2779,1.2607,1.2286,1.1634,1.145,1.1412,1.1544,1.114,1.1099,1.1455,1.1499,1.1899,1.2831,1.292,1.3293,1.422,1.4493,1.4644,1.4761,1.4886,1.4976,1.4969,1.4878,1.4778,1.4589,1.4705,1.4871,1.4955,1.4878,1.4871,1.4955,1.4782,1.463,1.4589,1.4462,1.4295,1.4129,1.4064,1.3828,1.3297,1.3184,1.3034,1.2393,1.2071,1.1956,1.2113,1.1597,1.1604,1.2343,1.1986,1.1819,1.2069,1.211,1.2276,1.265,1.3106,1.339,1.3487,1.3636,1.3762,1.3931,1.396,1.3929,1.4035,1.4173,1.4268,1.4253,1.4476,1.4584,3.1937,3.1733,3.0627,2.9707,2.9001,2.9102,2.9088,2.9105,2.9062,2.9048,2.9052,2.8965,2.8788,2.8481,2.8257,2.7926,2.7487,2.7118,2.6639,2.6171,2.569,2.5433,2.5348,2.4963,2.4524,2.4146,2.374,2.3063,2.2136,2.1941,2.1292,2.0032,1.9858,1.9379,1.8558,1.8077,1.7332,1.6445,1.6013,1.5308,1.4476,1.4367,1.4278,1.4105,1.3919,1.3617,1.3296,1.2923,1.2673,1.2762,1.1921,1.1666,1.2021,1.1716,1.1455,1.1499,1.1499,1.1943,1.2793,1.2976,1.3471,1.4386,1.5002,1.5291,1.5478,1.5773,1.5954,1.6091,1.6038,1.5888,1.5456,1.5694,1.5956,1.5992,1.6076,1.6016,1.6045,1.5646,1.5414,1.5203,1.484,1.4345,1.3787,1.3635,1.3362,1.2948,1.2723,1.2625,1.2342,1.2251,1.2239,1.2227,1.216,1.224,1.21,1.1682,1.1468,1.1694,1.2027,1.2235,1.265,1.3024,1.3259,1.3404,1.3398,1.35,1.3709,1.3808,1.3762,1.3782,1.3742,1.3774,1.3516,1.3682,1.3775,3.1655,3.1062,3.064,3.0086,2.965,2.9903,2.9883,2.9751,3.0101,2.9904,2.948,2.9423,2.8958,2.8175,2.8555,2.8532,2.8158,2.7705,2.7264,2.678,2.6147,2.569,2.5348,2.4921,2.4492,2.4064,2.3591,2.2902,2.1995,2.1389,2.0868,2.039,2.0042,1.9432,1.8646,1.8339,1.7639,1.6533,1.6225,1.5697,1.4829,1.4469,1.4126,1.3771,1.3633,1.3271,1.262,1.2322,1.212,1.1982,1.1677,1.1588,1.1721,1.1588,1.1499,1.1543,1.1766,1.2378,1.3343,1.3809,1.4457,1.5445,1.5745,1.5902,1.6132,1.6307,1.6399,1.646,1.678,1.6796,1.6567,1.6363,1.6234,1.6369,1.6309,1.6294,1.6308,1.6127,1.5903,1.5718,1.5271,1.4668,1.4007,1.372,1.3394,1.2567,1.2361,1.2164,1.1809,1.1688,1.1715,1.1598,1.1575,1.1547,1.1479,1.145,1.1429,1.1605,1.1861,1.2193,1.2609,1.2982,1.3272,1.3224,1.3192,1.3261,1.3446,1.3173,1.3186,1.2842,1.2854,1.2996,1.2703,1.2841,1.2909,3.1254,3.0437,3.0361,3.0227,2.9958,3.0227,3.0239,3.0094,3.0403,3.0293,2.9822,2.9751,2.9152,2.8387,2.8785,2.8802,2.8408,2.7957,2.7472,2.6828,2.6278,2.5769,2.5285,2.4742,2.4278,2.3849,2.3247,2.2514,2.1779,2.0998,2.0559,2.0453,2.0015,1.9489,1.8875,1.8514,1.775,1.6813,1.6489,1.5984,1.5152,1.4759,1.4271,1.3782,1.3597,1.3129,1.226,1.2079,1.1853,1.1577,1.1499,1.1588,1.1677,1.176,1.1872,1.2056,1.2538,1.3175,1.3977,1.4448,1.5059,1.5937,1.605,1.6116,1.6317,1.6617,1.6756,1.6879,1.7126,1.7375,1.7366,1.6827,1.6536,1.6903,1.6919,1.6896,1.7011,1.6788,1.6476,1.6152,1.5619,1.4951,1.4261,1.3816,1.3169,1.2369,1.2111,1.1771,1.1439,1.1374,1.1357,1.1281,1.1319,1.1297,1.1285,1.1337,1.1258,1.1385,1.1593,1.2039,1.2359,1.2775,1.303,1.2982,1.3024,1.3072,1.2949,1.2643,1.2288,1.1878,1.1968,1.2231,1.2088,1.2011,1.2076,3.0808,3.0088,2.9927,2.9985,2.9953,2.9972,2.9913,2.9918,2.9976,3.0025,2.9882,2.9905,2.9468,2.8848,2.9036,2.8763,2.8067,2.7762,2.7184,2.6377,2.5984,2.5548,2.509,2.4494,2.3928,2.341,2.2502,2.1853,2.1406,2.0787,2.0385,2.0141,1.9681,1.9362,1.9417,1.8503,1.777,1.7053,1.6544,1.5934,1.5302,1.501,1.4509,1.3803,1.3758,1.3261,1.2245,1.2227,1.21,1.1699,1.1615,1.1777,1.22,1.2359,1.2615,1.3032,1.3686,1.4257,1.4694,1.4838,1.5174,1.576,1.5796,1.5992,1.6295,1.6845,1.7312,1.7406,1.7375,1.7561,1.788,1.7336,1.7103,1.7935,1.7887,1.7848,1.7911,1.7647,1.7134,1.6535,1.5882,1.5339,1.4713,1.388,1.3035,1.2491,1.1905,1.1521,1.1455,1.1394,1.1444,1.1483,1.1439,1.134,1.1302,1.1297,1.1161,1.1072,1.1351,1.1647,1.1908,1.2276,1.2443,1.2484,1.2484,1.2526,1.2443,1.2179,1.2113,1.1797,1.1757,1.1543,1.1406,1.1342,1.1266,3.1099,3.0904,3.0209,3.0034,3.0181,3.0007,2.9913,2.9958,3.0227,3.0182,3.0003,3.0227,2.9784,2.9002,2.9052,2.8578,2.7578,2.7583,2.7325,2.6663,2.597,2.5445,2.5053,2.44,2.3886,2.3303,2.242,2.1944,2.155,2.0504,1.9769,1.962,1.9122,1.8726,1.86,1.8226,1.7567,1.6527,1.6257,1.5611,1.4393,1.3984,1.3523,1.2938,1.266,1.2278,1.1983,1.2561,1.2878,1.2691,1.2743,1.2746,1.2855,1.3095,1.3337,1.3604,1.4054,1.4731,1.5374,1.5448,1.5689,1.6283,1.6653,1.6862,1.6907,1.7195,1.7569,1.7803,1.7671,1.7616,1.7989,1.7943,1.7663,1.7663,1.7624,1.7663,1.7701,1.7661,1.7212,1.6359,1.6095,1.5639,1.4705,1.3772,1.3199,1.2517,1.1735,1.1254,1.1429,1.1136,1.1143,1.141,1.1449,1.1399,1.1301,1.1242,1.1183,1.109,1.1198,1.1364,1.1575,1.1694,1.1861,1.1944,1.1944,1.1944,1.1861,1.1766,1.1653,1.1382,1.1091,1.0901,1.073,1.0713,1.0723,3.1263,3.1156,3.0531,3.0287,3.0386,3.0154,3.0007,2.9927,3.0182,3.0182,3.0003,3.0182,2.9851,2.9076,2.8924,2.836,2.7504,2.7497,2.7145,2.6613,2.6032,2.5483,2.5079,2.423,2.3575,2.3085,2.2371,2.189,2.1656,2.0501,1.9804,1.9652,1.9124,1.8686,1.8287,1.7936,1.7254,1.6514,1.6234,1.5536,1.448,1.3989,1.3621,1.3168,1.2893,1.2847,1.3002,1.3625,1.3607,1.293,1.273,1.278,1.2884,1.312,1.3448,1.3978,1.4466,1.5085,1.5714,1.5789,1.605,1.6612,1.6774,1.6915,1.7102,1.7242,1.7577,1.7756,1.7624,1.753,1.7803,1.7476,1.7195,1.6868,1.7203,1.7343,1.7414,1.7436,1.7274,1.6589,1.6312,1.5664,1.4859,1.4039,1.3336,1.2495,1.1672,1.094,1.1014,1.0694,1.0847,1.101,1.1099,1.1138,1.1182,1.1218,1.1242,1.115,1.109,1.1224,1.1351,1.1313,1.1362,1.132,1.1362,1.1528,1.1445,1.1278,1.1131,1.0757,1.0661,1.0625,1.0618,1.0433,1.0424,3.1237,3.0881,3.0795,3.0635,3.0507,3.0453,3.0221,2.989,2.9909,2.9864,2.9837,2.9869,2.9631,2.9182,2.8777,2.8224,2.7694,2.7229,2.6725,2.6163,2.5846,2.5542,2.4935,2.3949,2.3302,2.2833,2.2285,2.1736,2.127,2.0582,2.0296,1.9816,1.9288,1.9038,1.8446,1.7662,1.7178,1.678,1.6385,1.5727,1.4818,1.4686,1.4507,1.405,1.4052,1.4251,1.446,1.4606,1.4007,1.238,1.2403,1.2615,1.2753,1.2847,1.3644,1.4547,1.4992,1.554,1.5917,1.605,1.6198,1.658,1.654,1.6213,1.6962,1.7507,1.7765,1.7804,1.7616,1.7515,1.7374,1.6829,1.6267,1.6025,1.654,1.7008,1.7203,1.6814,1.6526,1.6681,1.6306,1.5549,1.4846,1.4131,1.315,1.2146,1.1459,1.0805,1.0436,1.0257,1.0268,1.0436,1.0654,1.0698,1.0693,1.0772,1.0838,1.0937,1.0891,1.0944,1.1089,1.1048,1.0945,1.0904,1.0904,1.107,1.107,1.0945,1.0945,1.0906,1.081,1.0667,1.0498,1.0349,1.0123,3.1376,3.1396,3.0969,3.0875,3.0955,3.0782,3.0318,2.9748,2.9677,2.9558,2.9414,2.9362,2.9317,2.9137,2.87,2.8191,2.7694,2.7208,2.6743,2.6206,2.5831,2.5196,2.4421,2.3729,2.3322,2.3038,2.2277,2.1677,2.1153,2.0272,1.956,1.9046,1.8541,1.8176,1.8029,1.7832,1.7365,1.6779,1.6229,1.5531,1.4632,1.4224,1.3955,1.3874,1.3899,1.3993,1.4055,1.4087,1.4322,1.4372,1.4222,1.4356,1.4665,1.4947,1.5328,1.6027,1.6441,1.6701,1.6845,1.6634,1.6587,1.6728,1.7195,1.7663,1.7803,1.8345,1.8684,1.8662,1.8426,1.7994,1.764,1.7171,1.6508,1.561,1.5704,1.5838,1.5838,1.565,1.5415,1.4805,1.4758,1.439,1.3653,1.3004,1.2259,1.1401,1.0724,1.0152,0.9901,0.9752,0.9734,1.0,1.0209,1.0209,1.0209,1.0298,1.0382,1.058,1.0631,1.0677,1.0784,1.085,1.08,1.0737,1.0779,1.0904,1.0862,1.0779,1.0862,1.0945,1.0749,1.0508,1.0372,1.0251,0.9926,3.1517,3.1684,3.1303,3.1183,3.1162,3.0816,3.0346,2.9808,2.9436,2.9215,2.9048,2.8964,2.8925,2.8867,2.8372,2.801,2.7649,2.7208,2.6618,2.5936,2.5286,2.4555,2.3878,2.3521,2.3199,2.2739,2.2175,2.1519,2.089,2.0142,1.9499,1.8899,1.8376,1.8116,1.8022,1.7752,1.7374,1.6705,1.6173,1.5415,1.4469,1.4146,1.4052,1.4012,1.4012,1.4059,1.4294,1.4341,1.4523,1.4785,1.4772,1.4959,1.5417,1.5672,1.6073,1.6632,1.6632,1.6731,1.7025,1.6821,1.6821,1.7055,1.7803,1.8223,1.8472,1.8891,1.9099,1.9136,1.8717,1.8096,1.7458,1.6872,1.6068,1.5168,1.4757,1.467,1.4805,1.4711,1.4335,1.3911,1.367,1.3369,1.2391,1.2028,1.1428,1.0702,1.019,0.9766,0.9491,0.932,0.9221,0.9482,0.9674,0.9718,0.9808,0.9897,0.984,1.0049,1.0229,1.0257,1.0514,1.0666,1.0722,1.0695,1.0695,1.0695,1.0654,1.0612,1.0612,1.059,1.049,1.0303,1.0102,0.9948,0.9657,3.1724,3.1724,3.1664,3.1422,3.1115,3.0666,3.0181,2.9804,2.9215,2.8912,2.8739,2.8582,2.8435,2.8384,2.7965,2.7636,2.7468,2.7027,2.6334,2.5537,2.469,2.3977,2.3327,2.3245,2.2867,2.2222,2.1908,2.1159,2.0445,2.0205,1.9683,1.8977,1.8735,1.8557,1.8184,1.7717,1.7195,1.6774,1.6213,1.5556,1.4858,1.4596,1.4575,1.4528,1.4521,1.471,1.4986,1.5107,1.5006,1.4643,1.4529,1.4885,1.5308,1.5408,1.5777,1.6292,1.6518,1.6666,1.6821,1.7055,1.707,1.7562,1.8131,1.8442,1.8802,1.9001,1.9163,1.8861,1.8477,1.775,1.6877,1.5861,1.51,1.4538,1.3973,1.3782,1.3911,1.3717,1.3475,1.3428,1.2963,1.2245,1.1673,1.1269,1.0932,0.9602,0.9204,0.8882,0.8673,0.8628,0.8701,0.8928,0.9094,0.9232,0.9366,0.95,0.9419,0.9456,0.965,0.9822,1.0194,1.0378,1.0581,1.0654,1.0695,1.0654,1.0529,1.0487,1.0404,1.019,0.9993,0.9753,0.9555,0.9438,0.9234,3.1724,3.1664,3.1236,3.102,3.0872,3.0372,2.9839,2.9256,2.9052,2.8719,2.8348,2.8224,2.8074,2.7842,2.7686,2.7332,2.6709,2.6448,2.5924,2.4989,2.4636,2.375,2.301,2.2862,2.2657,2.2195,2.1205,2.0464,1.9962,1.9587,1.9061,1.8701,1.8533,1.8398,1.8316,1.7765,1.739,1.711,1.6368,1.5819,1.5524,1.5215,1.5119,1.5113,1.516,1.5214,1.5282,1.5242,1.5383,1.558,1.5336,1.5368,1.6119,1.6353,1.6774,1.7336,1.7569,1.7709,1.7849,1.7811,1.7952,1.8244,1.895,1.933,1.8592,1.9402,1.9173,1.8429,1.7884,1.7302,1.626,1.5215,1.4467,1.3926,1.3145,1.2503,1.2156,1.1944,1.1939,1.1794,1.1433,1.0816,1.0207,0.9748,0.9274,0.8513,0.8141,0.7821,0.7855,0.7937,0.8098,0.8339,0.8603,0.8733,0.878,0.8976,0.9061,0.8983,0.9166,0.9473,0.9798,0.9986,1.0112,1.0404,1.0695,1.057,1.0237,1.0195,1.0075,0.9783,0.9532,0.936,0.9193,0.9031,0.8863,3.1724,3.1629,3.1141,3.0916,3.0773,3.0093,2.9527,2.9152,2.8779,2.8476,2.8172,2.8038,2.768,2.7266,2.7271,2.688,2.6097,2.5834,2.5581,2.5127,2.4804,2.4128,2.3401,2.293,2.2723,2.2084,2.1461,2.0785,2.0315,1.975,1.9393,1.8947,1.8611,1.835,1.8224,1.7804,1.7362,1.6879,1.6444,1.6064,1.5752,1.5609,1.5418,1.5425,1.5411,1.5411,1.5398,1.5262,1.5417,1.5662,1.5646,1.5978,1.6868,1.7242,1.7709,1.8036,1.8176,1.8176,1.8223,1.8417,1.8552,1.8651,1.959,1.9393,1.9013,1.9385,1.9056,1.8042,1.7386,1.6882,1.5769,1.469,1.3942,1.3424,1.2673,1.1983,1.149,1.1126,1.0867,1.0654,1.0193,0.971,0.916,0.8633,0.8293,0.7869,0.7754,0.7436,0.7466,0.7508,0.7552,0.7762,0.8071,0.8226,0.8256,0.8448,0.8688,0.8697,0.8721,0.9072,0.9453,0.9527,0.9532,0.9903,1.0237,1.0028,0.9778,0.9741,0.9616,0.9281,0.9031,0.8942,0.8817,0.8566,0.8483,3.1724,3.1616,3.1046,3.076,3.0617,2.971,2.928,2.9147,2.8569,2.8246,2.802,2.7815,2.7354,2.6829,2.6841,2.6364,2.5718,2.5279,2.5142,2.4916,2.4749,2.4099,2.3482,2.3128,2.2685,2.1669,2.1461,2.125,2.0735,2.0341,1.9646,1.9369,1.896,1.856,1.8199,1.7895,1.7608,1.6976,1.6688,1.6407,1.6049,1.5877,1.5753,1.5547,1.552,1.552,1.5486,1.5364,1.5296,1.5418,1.5802,1.6469,1.7156,1.7756,1.8176,1.8176,1.8176,1.8176,1.8223,1.8511,1.8714,1.8862,1.9541,1.952,1.8878,1.853,1.8129,1.7455,1.6719,1.6071,1.5207,1.4229,1.3459,1.2931,1.2363,1.1752,1.1107,1.0517,0.9996,0.9809,0.9232,0.8622,0.8282,0.7845,0.7556,0.7263,0.7147,0.7039,0.7028,0.7084,0.7042,0.7225,0.7535,0.7754,0.7795,0.7943,0.8223,0.8274,0.8307,0.8592,0.8942,0.8942,0.8984,0.9365,0.9574,0.9449,0.9365,0.9281,0.9072,0.8738,0.8608,0.8566,0.8357,0.8144,0.806,3.1724,3.1616,3.0652,3.0223,3.008,2.9136,2.8764,2.8716,2.856,2.8129,2.757,2.7463,2.7051,2.6513,2.6384,2.6069,2.5473,2.5025,2.4606,2.4345,2.424,2.386,2.2876,2.3075,2.2673,2.1868,2.142,2.0969,2.0472,1.9823,1.9655,1.9181,1.8874,1.8713,1.8576,1.8327,1.7901,1.7482,1.7191,1.6942,1.6819,1.6495,1.6231,1.5932,1.5876,1.5834,1.5745,1.5575,1.5445,1.5602,1.6183,1.6577,1.6915,1.7336,1.7756,1.8083,1.8176,1.8176,1.8223,1.8316,1.8445,1.8543,1.8889,1.846,1.7843,1.7522,1.7172,1.6261,1.5472,1.4832,1.4206,1.3524,1.2898,1.2289,1.1578,1.0701,0.9784,0.9175,0.8864,0.8826,0.8227,0.7692,0.741,0.7042,0.6601,0.6316,0.6181,0.6078,0.5982,0.6234,0.6499,0.6726,0.7039,0.7218,0.7297,0.7516,0.7701,0.7773,0.7823,0.7959,0.819,0.8227,0.8399,0.8733,0.9031,0.9114,0.9031,0.8863,0.8692,0.8399,0.8315,0.819,0.8022,0.7813,0.7687,3.1521,3.1202,3.0414,2.9937,2.9615,2.8908,2.8572,2.8524,2.832,2.7972,2.7638,2.7352,2.6795,2.6314,2.6239,2.5891,2.5141,2.4737,2.4324,2.4005,2.4005,2.3678,2.2582,2.3013,2.2732,2.2141,2.1562,2.1157,2.0884,2.0456,1.9907,1.9518,1.9175,1.8947,1.8743,1.8417,1.811,1.7915,1.7622,1.7475,1.7426,1.7024,1.6665,1.6657,1.6398,1.63,1.6203,1.6043,1.5801,1.5767,1.6133,1.6455,1.6758,1.7149,1.7663,1.8083,1.8176,1.8176,1.8269,1.8363,1.8544,1.8375,1.8494,1.8159,1.7375,1.6991,1.6378,1.534,1.4306,1.3788,1.3495,1.2902,1.2372,1.1789,1.108,1.0228,0.9268,0.8385,0.7971,0.7738,0.7029,0.6619,0.6608,0.6214,0.569,0.5422,0.5257,0.517,0.5079,0.5391,0.5839,0.6088,0.635,0.6681,0.6843,0.7047,0.7223,0.7263,0.7368,0.7505,0.7562,0.7646,0.7771,0.8022,0.8315,0.8571,0.8566,0.8399,0.8232,0.8106,0.7897,0.7729,0.7646,0.7562,0.7352,3.1432,3.0869,3.0319,2.9841,2.9375,2.8812,2.8572,2.8476,2.8031,2.7731,2.7598,2.7141,2.6509,2.5987,2.5786,2.5448,2.4574,2.4387,2.4097,2.3751,2.3744,2.3521,2.3053,2.2945,2.2682,2.2002,2.1784,2.1554,2.1165,2.0724,2.0316,1.9766,1.9396,1.9108,1.8787,1.8706,1.8358,1.816,1.8019,1.8019,1.7764,1.736,1.716,1.738,1.6931,1.67,1.684,1.669,1.6285,1.6084,1.6197,1.6419,1.6617,1.7102,1.7569,1.7989,1.8129,1.8176,1.8269,1.8269,1.8239,1.8022,1.8044,1.7476,1.681,1.6046,1.552,1.4471,1.3482,1.2687,1.2479,1.2148,1.1663,1.1132,1.0607,0.9944,0.8802,0.7846,0.6894,0.6435,0.5792,0.5592,0.5571,0.5526,0.5006,0.4965,0.4805,0.4728,0.4693,0.4783,0.5136,0.5283,0.5614,0.6107,0.637,0.6559,0.6683,0.6748,0.6894,0.7032,0.7063,0.7105,0.7272,0.7444,0.7562,0.7771,0.7813,0.7855,0.7646,0.7478,0.7394,0.7314,0.723,0.7105,0.6937,3.1617,3.0869,3.0319,2.9841,2.9328,2.8812,2.8572,2.8476,2.7935,2.755,2.7164,2.6632,2.6078,2.5572,2.5087,2.4633,2.4184,2.4008,2.3684,2.3207,2.3199,2.2868,2.2202,2.2352,2.2137,2.167,2.1548,2.1299,2.0924,2.0382,1.989,1.9503,1.9355,1.9256,1.9108,1.9009,1.9157,1.9058,1.9058,1.8811,1.8358,1.7813,1.76,1.7585,1.7274,1.7118,1.7449,1.7358,1.6996,1.6442,1.6641,1.6576,1.6296,1.6915,1.7343,1.7616,1.7849,1.8176,1.8083,1.7896,1.7577,1.7195,1.654,1.5781,1.5119,1.4354,1.3553,1.2946,1.2171,1.1584,1.1228,1.1006,1.0578,1.0185,0.9707,0.8901,0.7904,0.7331,0.6333,0.5391,0.4905,0.4664,0.4579,0.4522,0.4429,0.4393,0.435,0.4276,0.4252,0.4338,0.4605,0.4843,0.5001,0.541,0.5758,0.5986,0.6025,0.6145,0.6336,0.6479,0.6437,0.644,0.6741,0.6867,0.6951,0.7091,0.7236,0.7232,0.6993,0.6902,0.6909,0.6864,0.6769,0.6605,0.646,3.1356,3.0427,3.0223,2.965,2.8908,2.838,2.8139,2.7983,2.732,2.6826,2.6584,2.6051,2.5566,2.5032,2.4789,2.4292,2.3658,2.3561,2.3228,2.2761,2.2721,2.2536,2.2227,2.2,2.1677,2.1374,2.0969,2.0571,2.0284,2.0136,1.9791,1.9306,1.9058,1.9009,1.9207,1.9009,1.9058,1.9058,1.9009,1.8754,1.8358,1.7813,1.7672,1.8465,1.7722,1.7714,1.7989,1.8099,1.7614,1.6998,1.6803,1.6609,1.6379,1.654,1.6735,1.7437,1.7569,1.7709,1.7663,1.7476,1.7008,1.6166,1.5181,1.436,1.3358,1.2251,1.1551,1.1211,1.0642,1.0182,0.9924,0.9854,0.9534,0.9134,0.866,0.7901,0.7097,0.6618,0.5847,0.4903,0.4022,0.3871,0.3625,0.3317,0.3373,0.3539,0.3414,0.3273,0.348,0.3735,0.4091,0.4534,0.4653,0.4769,0.5076,0.5281,0.5305,0.5408,0.5648,0.5774,0.5648,0.5735,0.6011,0.63,0.6413,0.6548,0.6666,0.6756,0.6674,0.6589,0.6508,0.6388,0.6271,0.6069,0.5822,3.1108,3.0242,3.0022,2.9461,2.8657,2.8067,2.7826,2.7788,2.6811,2.6305,2.6111,2.5615,2.4935,2.4438,2.4194,2.3756,2.3023,2.2974,2.2779,2.2485,2.2387,2.2329,2.2056,2.175,2.1456,2.121,2.0464,2.0038,1.989,1.975,1.9602,1.9264,1.8803,1.8853,1.9009,1.8861,1.8754,1.8952,1.8556,1.8309,1.8111,1.7367,1.7764,1.8217,1.8267,1.7962,1.8408,1.8647,1.8294,1.7489,1.6932,1.6675,1.6419,1.6173,1.6314,1.6829,1.7055,1.7017,1.6877,1.6644,1.6205,1.5127,1.3428,1.1967,1.0469,0.9693,0.941,0.9236,0.8753,0.8509,0.8458,0.8358,0.8101,0.7806,0.7572,0.6811,0.6146,0.5622,0.5142,0.4405,0.3616,0.311,0.2727,0.2161,0.2188,0.2573,0.2528,0.2357,0.2622,0.3058,0.3502,0.3947,0.4105,0.4232,0.4575,0.4703,0.4646,0.4727,0.4977,0.5037,0.496,0.5027,0.5271,0.5518,0.5758,0.5621,0.5472,0.5981,0.6404,0.6224,0.6032,0.5892,0.5739,0.5486,0.5189,3.1008,3.0474,2.9775,2.9235,2.8898,2.8138,2.792,2.7903,2.6819,2.6256,2.6014,2.5227,2.4243,2.3619,2.3444,2.316,2.2504,2.2495,2.2465,2.2465,2.2387,2.2142,2.1857,2.1514,2.1071,2.0382,1.9939,1.9701,1.9454,1.9454,1.9355,1.9207,1.8605,1.8861,1.8861,1.8605,1.8358,1.8358,1.7962,1.7764,1.7615,1.7218,1.7268,1.7722,1.7821,1.797,1.8457,1.8837,1.8645,1.7774,1.715,1.6586,1.6184,1.5892,1.5985,1.622,1.654,1.6341,1.5996,1.5813,1.5308,1.3846,1.1574,0.9027,0.7609,0.7185,0.7055,0.697,0.6499,0.6353,0.63,0.6288,0.6333,0.6286,0.6146,0.586,0.5194,0.453,0.4097,0.3708,0.316,0.2563,0.2124,0.1654,0.1684,0.2073,0.2074,0.1901,0.2036,0.2434,0.2875,0.327,0.3469,0.3732,0.4196,0.4288,0.4226,0.4243,0.443,0.4368,0.4231,0.439,0.473,0.4655,0.4845,0.4529,0.444,0.5125,0.5591,0.5634,0.5548,0.5283,0.4973,0.465,0.4379,3.0573,3.0015,2.9431,2.9019,2.8668,2.7778,2.7403,2.7327,2.6338,2.5615,2.5275,2.4594,2.3853,2.3405,2.3336,2.3079,2.2635,2.2586,2.2586,2.2529,2.2432,2.2112,2.171,2.1161,2.0727,2.0038,1.975,1.9503,1.9363,1.9314,1.9009,1.8762,1.8309,1.8168,1.8168,1.8111,1.7912,1.7558,1.7367,1.7218,1.7119,1.6772,1.6821,1.7623,1.7722,1.7771,1.8046,1.8405,1.8079,1.7611,1.6954,1.643,1.5934,1.5711,1.565,1.5791,1.6065,1.5792,1.5329,1.4892,1.3751,1.0682,0.8313,0.6277,0.5092,0.4284,0.4141,0.4095,0.4191,0.4095,0.424,0.4526,0.4716,0.4718,0.4671,0.4528,0.4196,0.3577,0.319,0.2896,0.2406,0.1824,0.1483,0.115,0.132,0.1576,0.1489,0.149,0.1625,0.176,0.2204,0.2558,0.2721,0.3073,0.3533,0.3629,0.3713,0.3789,0.3869,0.3814,0.3761,0.4141,0.4345,0.4178,0.4056,0.4064,0.4202,0.4518,0.4769,0.4908,0.4779,0.4531,0.4218,0.3855,0.349,3.0249,2.9835,2.9007,2.8643,2.8462,2.7685,2.7281,2.7045,2.6168,2.524,2.4551,2.4062,2.3572,2.3228,2.3167,2.3154,2.2784,2.2644,2.2606,2.2482,2.2172,2.1823,2.1286,2.0826,2.0284,1.9799,1.9503,1.9314,1.9314,1.9314,1.9009,1.8556,1.8019,1.7821,1.7722,1.7516,1.7268,1.697,1.6722,1.6672,1.6573,1.6374,1.6282,1.7126,1.7275,1.7417,1.7528,1.7776,1.7749,1.7236,1.6697,1.6197,1.5807,1.5556,1.5415,1.5502,1.5507,1.5331,1.4838,1.3616,1.1595,0.8404,0.623,0.4569,0.3191,0.2096,0.2382,0.2382,0.2239,0.2144,0.2524,0.2811,0.3097,0.3145,0.324,0.3146,0.3051,0.2574,0.2376,0.2132,0.165,0.127,0.1067,0.0782,0.0683,0.0811,0.0765,0.0855,0.117,0.1304,0.1483,0.1795,0.2018,0.2375,0.278,0.2883,0.2944,0.3029,0.3155,0.337,0.3461,0.3751,0.368,0.3331,0.3297,0.3585,0.3538,0.3348,0.3727,0.4186,0.3979,0.3687,0.3423,0.3058,0.256,3.0205,3.0009,2.8522,2.8179,2.8456,2.7985,2.7591,2.717,2.6339,2.5341,2.4274,2.373,2.3235,2.2848,2.2806,2.2838,2.2781,2.2429,2.2305,2.2267,2.1682,2.1115,2.073,2.0333,1.9947,1.9454,1.9264,1.9256,1.9207,1.9157,1.891,1.8309,1.7722,1.7474,1.7573,1.7169,1.6921,1.6821,1.6381,1.6232,1.6175,1.6133,1.6232,1.6431,1.6821,1.707,1.6991,1.7262,1.7198,1.685,1.6395,1.6,1.5772,1.5422,1.5275,1.5275,1.4679,1.4085,1.3309,1.1603,0.9262,0.679,0.4902,0.3383,0.2049,0.1383,0.1096,0.1048,0.1047,0.1048,0.1191,0.1286,0.1523,0.1716,0.1859,0.2145,0.205,0.1859,0.1664,0.152,0.114,0.0757,0.0605,0.0413,0.0137,0.0045,0.0045,0.0224,0.0584,0.0673,0.0808,0.1212,0.1436,0.1706,0.2062,0.2092,0.2167,0.2299,0.2431,0.2607,0.2789,0.2935,0.2769,0.2419,0.2556,0.2872,0.2424,0.1929,0.2544,0.311,0.3032,0.2819,0.2599,0.2284,0.1737,2.9898,2.9347,2.884,2.8509,2.8215,2.741,2.7075,2.6904,2.575,2.4607,2.3819,2.334,2.3022,2.2713,2.2599,2.2586,2.253,2.1979,2.178,2.1735,2.1139,2.0716,2.0342,2.0087,1.975,1.9404,1.9256,1.9058,1.8754,1.8861,1.8259,1.7566,1.7169,1.6672,1.6573,1.6424,1.6381,1.6374,1.6182,1.6133,1.6133,1.6133,1.6133,1.6133,1.6623,1.6722,1.6467,1.6771,1.6662,1.6319,1.5869,1.5669,1.5497,1.5181,1.5181,1.4966,1.4346,1.2957,1.157,0.9792,0.8003,0.596,0.4238,0.2764,0.1334,0.0334,0.0,-0.019,-0.0142,-0.0285,-0.0618,0.0095,0.0473,0.0714,0.1001,0.1526,0.1573,0.1287,0.1048,0.0905,0.0619,0.0332,0.0094,-0.0139,-0.0412,-0.0545,-0.0543,-0.027,0.0045,-0.0045,-0.0045,0.0584,0.0988,0.1167,0.1344,0.1517,0.1604,0.1693,0.174,0.1787,0.197,0.224,0.2107,0.1839,0.1975,0.2066,0.1574,0.126,0.1617,0.1929,0.1799,0.1707,0.1525,0.1301,0.0941,2.9566,2.8964,2.8562,2.8295,2.7991,2.737,2.6987,2.6505,2.5205,2.4226,2.3755,2.332,2.2916,2.2696,2.253,2.2382,2.228,2.1678,2.1399,2.1304,2.0718,2.0347,2.0047,1.9849,1.9553,1.9355,1.9256,1.9108,1.891,1.8811,1.8259,1.7417,1.6623,1.6424,1.6275,1.6182,1.6182,1.6182,1.6133,1.6133,1.6133,1.6133,1.6133,1.6175,1.6374,1.6481,1.6241,1.618,1.6126,1.5683,1.5445,1.5242,1.5093,1.5093,1.4999,1.4531,1.3545,1.2061,1.0406,0.9065,0.7573,0.6174,0.4284,0.2764,0.1477,0.062,-0.019,-0.0616,-0.1084,-0.1274,-0.1276,-0.0517,-0.0424,-0.019,-0.0048,0.0476,0.0429,0.0095,0.0048,-0.0048,-0.0095,-0.0332,-0.0471,-0.0699,-0.0967,-0.1053,-0.1094,-0.0815,-0.054,-0.063,-0.0675,-0.0135,0.0359,0.0539,0.0763,0.0987,0.1076,0.1167,0.1167,0.1212,0.1481,0.1794,0.1526,0.1257,0.1167,0.1034,0.0767,0.0677,0.0678,0.0588,0.0362,0.0316,0.0405,0.0314,0.0135,2.9226,2.8869,2.7881,2.7636,2.7782,2.7578,2.6936,2.5995,2.4956,2.4375,2.4087,2.3447,2.3021,2.2589,2.2464,2.2255,2.1846,2.1337,2.1174,2.0959,2.0276,1.9992,1.9784,1.9553,1.9404,1.9306,1.9256,1.9207,1.9207,1.8712,1.8168,1.7615,1.6871,1.6474,1.6175,1.6133,1.6133,1.6133,1.6133,1.6133,1.6133,1.6133,1.6133,1.6182,1.6182,1.6211,1.6064,1.6012,1.5813,1.5525,1.5383,1.4957,1.4763,1.4905,1.4435,1.3602,1.2442,1.114,0.9828,0.8574,0.7842,0.663,0.495,0.3526,0.2334,0.1237,0.0332,-0.0377,-0.0798,-0.1126,-0.1266,-0.1267,-0.1267,-0.1227,-0.1235,-0.1094,-0.1142,-0.1237,-0.1191,-0.1192,-0.1144,-0.1235,-0.1226,-0.1401,-0.1525,-0.1608,-0.1691,-0.1772,-0.1492,-0.113,-0.1083,-0.0811,-0.036,-0.0135,0.0135,0.0314,0.0539,0.0584,0.0718,0.0808,0.1122,0.1257,0.1077,0.0763,0.0314,0.0,-0.0226,-0.041,-0.0594,-0.0732,-0.0639,-0.059,-0.0362,-0.0449,-0.0673,2.961,2.8963,2.8445,2.8088,2.7634,2.6529,2.581,2.545,2.477,2.4199,2.3536,2.3383,2.2933,2.2515,2.2114,2.1767,2.1302,2.0803,2.0405,2.0087,1.9889,1.9617,1.9478,1.9355,1.9314,1.9314,1.9256,1.9108,1.8655,1.821,1.7714,1.7062,1.6722,1.6374,1.6182,1.6133,1.6133,1.6133,1.6133,1.6133,1.6133,1.6133,1.6133,1.6133,1.6133,1.6098,1.6003,1.5949,1.5646,1.5088,1.4967,1.4577,1.403,1.4005,1.3616,1.2141,1.1217,1.0352,0.9204,0.8249,0.7547,0.6986,0.5408,0.4097,0.295,0.1945,0.0896,0.0141,-0.0467,-0.0839,-0.1257,-0.1443,-0.1542,-0.1646,-0.1703,-0.1802,-0.1804,-0.1809,-0.181,-0.1812,-0.1764,-0.1809,-0.1796,-0.1917,-0.2038,-0.2119,-0.2245,-0.2372,-0.2271,-0.186,-0.1541,-0.1267,-0.0991,-0.0674,-0.0718,-0.0584,-0.0269,0.0,0.009,0.0224,0.0314,0.0404,0.0494,0.0224,-0.0314,-0.0767,-0.1137,-0.1326,-0.147,-0.1333,-0.124,-0.1233,-0.118,-0.1219,-0.1302,2.927,2.8789,2.8136,2.7482,2.675,2.5542,2.4931,2.4696,2.428,2.3817,2.3404,2.3114,2.2714,2.2213,2.1654,2.1182,2.0816,2.0498,2.0163,1.9902,1.967,1.9525,1.9395,1.9314,1.9314,1.9314,1.9256,1.9157,1.8605,1.8061,1.7566,1.7218,1.6679,1.6331,1.6182,1.6133,1.6133,1.6133,1.6133,1.6133,1.6133,1.6133,1.6133,1.6133,1.6133,1.6064,1.599,1.5949,1.5473,1.4889,1.4747,1.4282,1.353,1.3097,1.2661,1.1392,1.0656,0.9806,0.8812,0.8011,0.7521,0.6886,0.5632,0.4553,0.3567,0.2612,0.1507,0.0514,-0.0047,-0.0602,-0.1062,-0.1477,-0.1674,-0.1827,-0.1976,-0.2174,-0.2181,-0.2187,-0.219,-0.2193,-0.2193,-0.2241,-0.2274,-0.2389,-0.2512,-0.2601,-0.2636,-0.2713,-0.2607,-0.2278,-0.2003,-0.1773,-0.149,-0.1167,-0.1257,-0.1257,-0.0943,-0.0718,-0.0763,-0.0628,-0.0494,-0.0494,-0.0494,-0.0673,-0.0943,-0.1312,-0.1691,-0.2019,-0.2165,-0.1986,-0.1943,-0.207,-0.1964,-0.1855,-0.1892,2.8692,2.8472,2.7191,2.6259,2.545,2.4869,2.4317,2.3783,2.3599,2.3555,2.3395,2.2853,2.2358,2.1983,2.1328,2.0786,2.0531,2.0279,2.0085,1.98,1.9768,1.9631,1.9387,1.9314,1.9314,1.9314,1.9256,1.9256,1.9108,1.8564,1.7962,1.7722,1.7119,1.6573,1.6182,1.6133,1.6133,1.6133,1.6133,1.6133,1.6133,1.6133,1.6133,1.6133,1.6076,1.6056,1.6015,1.5871,1.5582,1.5041,1.4613,1.41,1.3011,1.2144,1.1598,1.1,1.0197,0.9445,0.8598,0.7881,0.7376,0.6627,0.5438,0.474,0.3944,0.2892,0.1693,0.098,0.0418,-0.0139,-0.0599,-0.1155,-0.1486,-0.1777,-0.2069,-0.2359,-0.2602,-0.2612,-0.2669,-0.2671,-0.2671,-0.267,-0.2711,-0.2778,-0.2712,-0.29,-0.2932,-0.3006,-0.2862,-0.2571,-0.2469,-0.2283,-0.208,-0.1797,-0.1662,-0.1616,-0.1526,-0.1436,-0.1438,-0.1302,-0.0988,-0.1212,-0.1571,-0.1573,-0.1531,-0.182,-0.2112,-0.2445,-0.2602,-0.2527,-0.2572,-0.2878,-0.2805,-0.2546,-0.2436,2.9205,2.8205,2.6893,2.5832,2.5053,2.4749,2.4165,2.3409,2.2942,2.2998,2.3194,2.2756,2.2264,2.1881,2.1097,2.0546,2.0392,2.0271,2.0093,1.9898,1.98,1.9613,1.9371,1.9322,1.9314,1.9314,1.9314,1.9207,1.9108,1.8704,1.821,1.7672,1.7169,1.6722,1.6133,1.6133,1.6133,1.6133,1.6103,1.6096,1.6133,1.6133,1.6133,1.6133,1.6126,1.6071,1.6017,1.5886,1.5155,1.4402,1.4265,1.3397,1.2027,1.1344,1.0759,1.0251,0.9634,0.8928,0.836,0.7738,0.7318,0.6562,0.561,0.4995,0.4086,0.2932,0.2022,0.1447,0.0882,0.037,-0.0185,-0.074,-0.1301,-0.1683,-0.2163,-0.2546,-0.2975,-0.3036,-0.3099,-0.31,-0.31,-0.3097,-0.3093,-0.3033,-0.3014,-0.2995,-0.2976,-0.301,-0.3022,-0.2875,-0.2895,-0.2745,-0.2716,-0.2474,-0.2251,-0.2075,-0.2034,-0.194,-0.1851,-0.1711,-0.1528,-0.1578,-0.1763,-0.1985,-0.208,-0.2237,-0.2443,-0.2745,-0.2905,-0.2831,-0.3147,-0.3396,-0.3322,-0.3105,-0.299,2.8836,2.8052,2.6787,2.5653,2.479,2.4466,2.3858,2.3049,2.2544,2.253,2.266,2.213,2.1707,2.1492,2.078,2.0478,2.0263,2.0231,2.0101,1.9998,1.9784,1.9622,1.9501,1.9297,1.9314,1.9264,1.9009,1.891,1.8861,1.8704,1.821,1.7722,1.7268,1.6871,1.6282,1.6133,1.6133,1.6133,1.613,1.6137,1.6146,1.6133,1.6133,1.6133,1.6112,1.6064,1.5925,1.5759,1.499,1.3976,1.3503,1.2788,1.1567,1.0672,0.9989,0.9452,0.8897,0.824,0.7813,0.748,0.71,0.6339,0.5432,0.4668,0.443,0.3317,0.2492,0.1869,0.1402,0.0885,0.0232,-0.0372,-0.0796,-0.1227,-0.1941,-0.2514,-0.2849,-0.3046,-0.31,-0.31,-0.31,-0.31,-0.3096,-0.3094,-0.3079,-0.3125,-0.3098,-0.3172,-0.3181,-0.328,-0.3295,-0.3271,-0.32,-0.3006,-0.2695,-0.2604,-0.2604,-0.2461,-0.2358,-0.2322,-0.2235,-0.1959,-0.1913,-0.2226,-0.241,-0.2424,-0.2679,-0.2986,-0.3058,-0.3032,-0.3432,-0.3909,-0.3788,-0.3672,-0.3685,2.8058,2.7844,2.6539,2.5487,2.4607,2.4104,2.3415,2.2637,2.2223,2.2012,2.1864,2.1199,2.101,2.083,2.0352,2.0253,2.0214,2.0223,2.0169,1.9893,1.9696,1.946,1.9292,1.9197,1.914,1.891,1.8605,1.8457,1.8358,1.8259,1.8061,1.7722,1.7424,1.7126,1.6431,1.6133,1.6133,1.6103,1.6144,1.6171,1.6137,1.6103,1.6153,1.6146,1.6133,1.6076,1.5837,1.5486,1.4859,1.3802,1.2694,1.1732,1.096,0.9959,0.9332,0.8758,0.8262,0.764,0.7151,0.7052,0.6669,0.6051,0.5099,0.4575,0.4385,0.3751,0.2873,0.2345,0.1878,0.1219,0.0607,0.0047,-0.0424,-0.0997,-0.176,-0.2477,-0.2811,-0.305,-0.3097,-0.3099,-0.3097,-0.3097,-0.3145,-0.3096,-0.3236,-0.3285,-0.3372,-0.3406,-0.3488,-0.3725,-0.3851,-0.3788,-0.3725,-0.3484,-0.3234,-0.3172,-0.3251,-0.3067,-0.2919,-0.2989,-0.2911,-0.253,-0.2385,-0.2609,-0.2752,-0.2722,-0.2874,-0.3131,-0.3157,-0.3226,-0.3784,-0.4222,-0.4186,-0.4155,-0.434,2.7943,2.7098,2.5634,2.4838,2.4477,2.3759,2.2864,2.208,2.172,2.1304,2.0985,2.0736,2.0668,2.1154,2.0531,2.0279,2.0231,2.0223,1.9787,1.9418,1.9355,1.9131,1.8865,1.8715,1.8679,1.8408,1.8111,1.792,1.7863,1.7813,1.7615,1.7169,1.7119,1.6772,1.6282,1.6133,1.6133,1.611,1.6123,1.6144,1.6157,1.6144,1.6171,1.6144,1.6133,1.5834,1.5516,1.5353,1.4626,1.3516,1.2131,1.0976,1.0015,0.9208,0.8551,0.8071,0.7623,0.7275,0.6931,0.677,0.6479,0.6098,0.5242,0.4623,0.4242,0.367,0.3028,0.2681,0.2162,0.1407,0.0749,0.0281,-0.0189,-0.0902,-0.1668,-0.2382,-0.2904,-0.3046,-0.3092,-0.309,-0.3088,-0.3135,-0.3181,-0.3316,-0.3584,-0.3725,-0.4051,-0.4086,-0.4046,-0.4249,-0.4405,-0.4348,-0.4242,-0.4236,-0.4136,-0.3938,-0.3881,-0.3657,-0.3444,-0.3336,-0.3207,-0.3009,-0.2954,-0.2909,-0.2923,-0.2894,-0.3093,-0.3319,-0.3432,-0.3595,-0.4134,-0.4499,-0.4506,-0.4649,-0.488]},{"header":{"parameterUnit":"m.s-1","parameterCategory":1,"la1":31.0,"la2":29.5877,"lo1":-88.7671,"lo2":-86.6584,"dy":0.0162,"dx":0.0185,"nx":115,"ny":88,"refTime":"2023-05-30T18:00:00:Z","depth":0,"parameterNumber":3,"parameterNumberName":"V-component_of_WINDS"},"data":[0.0,0.0,0.0,0.0,0.0,0.0,0.0,0.0,0.0,0.0,0.0,0.0,0.0,0.0,0.0,0.0,0.0,0.0,0.0,0.0,0.0,0.0,0.0,0.0,0.0,0.0,0.0,0.0,0.0,0.0,0.0,0.0,0.0,0.0,0.0,0.0,0.0,0.0,0.0,0.0,0.0,0.0,0.0,0.0,0.0,0.0,0.0,0.0,0.0,0.0,0.0,0.0,0.0,0.0,0.0,0.0,0.0,0.0,0.0,0.0,0.0,0.0,0.0,0.0,0.0,0.0,0.0,0.0,0.0,0.0,0.0,0.0,0.0,0.0,0.0,0.0,0.0,0.0,0.0,0.0,0.0,0.0,0.0,0.0,0.0,0.0,0.0,0.0,0.0,0.0,0.0,0.0,0.0,0.0,0.0,0.0,0.0,0.0,0.0,0.0,0.0,0.0,0.0,0.0,0.0,0.0,0.0,0.0,0.0,0.0,0.0,0.0,0.0,0.0,0.0,0.0,0.0,0.0,0.0,0.0,0.0,0.0,0.0,0.0,0.0,0.0,0.0,0.0,0.0,0.0,0.0,0.0,0.0,0.0,0.0,0.0,0.0,0.0,0.0,0.0,0.0,0.0,0.0,0.0,0.0,0.0,0.0,0.0,0.0,0.0,0.0,0.0,0.0,0.0,0.0,0.0,0.0,0.0,0.0,0.0,0.0,0.0,0.0,0.0,0.0,0.0,0.0,0.0,0.0,0.0,0.0,0.0,0.0,0.0,0.0,0.0,0.0,0.0,0.0,0.0,0.0,0.0,0.0,0.0,0.0,0.0,0.0,0.0,0.0,0.0,0.0,0.0,0.0,0.0,0.0,0.0,0.0,0.0,0.0,0.0,0.0,0.0,0.0,0.0,0.0,0.0,0.0,0.0,0.0,0.0,0.0,0.0,0.0,0.0,0.0,0.0,0.0,0.0,0.0,0.0,0.0,0.0,0.0,0.0,0.0,0.0,0.0,0.0,0.0,0.0,0.0,0.0,0.0,0.0,0.0,0.0,0.0,0.0,0.0,0.0,0.0,0.0,0.0,0.0,0.0,0.0,0.0,0.0,0.0,0.0,0.0,0.0,0.0,0.0,0.0,0.0,0.0,0.0,0.0,0.0,0.0,0.0,0.0,0.0,0.0,0.0,0.0,0.0,0.0,0.0,0.0,0.0,0.0,0.0,0.0,0.0,0.0,0.0,0.0,0.0,0.0,0.0,0.0,0.0,0.0,0.0,0.0,0.0,0.0,0.0,0.0,0.0,0.0,0.0,0.0,0.0,0.0,0.0,0.0,0.0,0.0,0.0,0.0,0.0,0.0,0.0,0.0,0.0,0.0,0.0,0.0,0.0,0.0,0.0,0.0,0.0,0.0,0.0,0.0,0.0,0.0,0.0,0.0,0.0,0.0,0.0,0.0,0.0,0.0,0.0,0.0,0.0,0.0,0.0,0.0,0.0,0.0,0.0,0.0,0.0,0.0,0.0,0.0,0.0,0.0,0.0,0.0,0.0,0.0,0.0,0.0,0.0,0.0,0.0,0.0,0.0,0.0,0.0,0.0,0.0,0.0,0.0,0.0,0.0,0.0,0.0,0.0,0.0,0.0,0.0,0.0,0.0,0.0,0.0,0.0,0.0,0.0,0.0,0.0,0.0,0.0,0.0,0.0,0.0,0.0,0.0,0.0,0.0,0.0,0.0,0.0,0.0,0.0,0.0,0.0,0.0,0.0,0.0,0.0,0.0,0.0,0.0,0.0,0.0,0.0,0.0,0.0,0.0,0.0,0.0,0.0,0.0,0.0,0.0,0.0,0.0,0.0,0.0,0.0,0.0,0.0,0.0,0.0,0.0,0.0,0.0,0.0,0.0,0.0,0.0,0.0,0.0,0.0,0.0,0.0,0.0,0.0,0.0,0.0,0.0,0.0,0.0,0.0,0.0,0.0,0.0,0.0,0.0,0.0,0.0,0.0,0.0,0.0,0.0,0.0,0.0,0.0,0.0,0.0,0.0,0.0,0.0,0.0,0.0,0.0,0.0,0.0,0.0,0.0,0.0,0.0,0.0,0.0,0.0,0.0,0.0,0.0,0.0,0.0,0.0,0.0,0.0,0.0,0.0,0.0,0.0,0.0,0.0,0.0,0.0,0.0,0.0,0.0,0.0,0.0,0.0,0.0,0.0,0.0,0.0,0.0,0.0,0.0,0.0,0.0,0.0,0.0,0.0,0.0,0.0,0.0,0.0,0.0,0.0,0.0,0.0,0.0,0.0,0.0,0.0,0.0,0.0,0.0,0.0,0.0,0.0,0.0,0.0,0.0,0.0,0.0,0.0,0.0,0.0,0.0,0.0,0.0,0.0,0.0,0.0,0.0,0.0,0.0,0.0,0.0,0.0,0.0,0.0,0.0,0.0,0.0,0.0,0.0,0.0,0.0,0.0,0.0,0.0,0.0,0.0,0.0,0.0,0.0,0.0,0.0,0.0,0.0,0.0,0.0,0.0,0.0,0.0,0.0,0.0,0.0,0.0,0.0,0.0,0.0,0.0,0.0,0.0,0.0,0.0,0.0,0.0,0.0,0.0,0.0,0.0,0.0,0.0,0.0,0.0,0.0,0.0,0.0,0.0,0.0,0.0,0.0,0.0,0.0,0.0,0.0,0.0,0.0,0.0,0.0,0.0,0.0,0.0,0.0,0.0,0.0,0.0,0.0,0.0,0.0,0.0,0.0,0.0,0.0,0.0,0.0,0.0,0.0,0.0,0.0,0.0,0.0,0.0,0.0,0.0,0.0,0.0,0.0,0.0,0.0,0.0,0.0,0.0,0.0,0.0,0.0,0.0,0.0,0.0,0.0,0.0,0.0,0.0,0.0,0.0,0.0,0.0,0.0,0.0,0.0,0.0,0.0,0.0,0.0,0.0,0.0,0.0,0.0,0.0,0.0,0.0,0.0,0.0,0.0,0.0,0.0,0.0,0.0,0.0,0.0,0.0,0.0,0.0,0.0,0.0,0.0,0.0,0.0,0.0,0.0,0.0,0.0,0.0,0.0,0.0,0.0,0.0,0.0,0.0,0.0,0.0,0.0,0.0,0.0,0.0,0.0,0.0,0.0,0.0,0.0,0.0,0.0,0.0,0.0,0.0,0.0,0.0,0.0,0.0,0.0,0.0,0.0,0.0,0.0,0.0,0.0,0.0,0.0,0.0,0.0,0.0,0.0,0.0,0.0,0.0,0.0,0.0,0.0,0.0,0.0,0.0,0.0,0.0,0.0,0.0,0.0,0.0,0.0,0.0,0.0,0.0,0.0,0.0,0.0,0.0,0.0,0.0,0.0,0.0,0.0,0.0,0.0,0.0,0.0,0.0,0.0,0.0,0.0,0.0,0.0,0.0,0.0,0.0,0.0,0.0,0.0,0.0,0.0,0.0,0.0,0.0,0.0,0.0,0.0,0.0,0.0,0.0,0.0,0.0,0.0,0.0,0.0,0.0,0.0,0.0,0.0,0.0,0.0,0.0,0.0,0.0,0.0,0.0,0.0,0.0,0.0,0.0,0.0,0.0,0.0,0.0,0.0,0.0,0.0,0.0,0.0,0.0,0.0,0.0,0.0,0.0,0.0,0.0,0.0,0.0,0.0,0.0,0.0,0.0,0.0,0.0,0.0,0.0,0.0,0.0,0.0,0.0,0.0,0.0,0.0,0.0,0.0,0.0,0.0,0.0,0.0,0.0,0.0,0.0,0.0,0.0,0.0,0.0,0.0,0.0,0.0,0.0,0.0,0.0,0.0,0.0,0.0,0.0,0.0,0.0,0.0,0.0,0.0,0.0,0.0,0.0,0.0,0.0,0.0,0.0,0.0,0.0,0.0,0.0,0.0,0.0,0.0,0.0,0.0,0.0,0.0,0.0,0.0,0.0,0.0,0.0,0.0,0.0,0.0,0.0,0.0,0.0,0.0,0.0,0.0,0.0,0.0,0.0,0.0,0.0,0.0,0.0,0.0,0.0,0.0,0.0,0.0,0.0,0.0,0.0,0.0,0.0,0.0,0.0,0.0,0.0,0.0,0.0,0.0,0.0,0.0,0.0,0.0,0.0,0.0,0.0,0.0,0.0,0.0,0.0,0.0,0.0,0.0,0.0,0.0,0.0,0.0,0.0,0.0,0.0,0.0,0.0,0.0,0.0,0.0,0.0,0.0,0.0,0.0,0.0,0.0,0.0,0.0,0.0,0.0,0.0,0.0,0.0,0.0,0.0,0.0,0.0,5.1445,0.0,0.0,0.0,0.0,0.0,0.0,0.0,0.0,0.0,0.0,0.0,0.0,0.0,0.0,0.0,0.0,0.0,0.0,0.0,0.0,0.0,0.0,0.0,0.0,0.0,0.0,0.0,0.0,0.0,0.0,0.0,0.0,0.0,0.0,0.0,0.0,0.0,0.0,0.0,0.0,0.0,0.0,0.0,0.0,0.0,0.0,0.0,0.0,0.0,0.0,0.0,0.0,0.0,0.0,0.0,0.0,0.0,0.0,0.0,0.0,0.0,0.0,0.0,0.0,0.0,0.0,0.0,0.0,0.0,0.0,0.0,0.0,0.0,0.0,0.0,0.0,0.0,0.0,0.0,0.0,0.0,0.0,0.0,0.0,0.0,0.0,0.0,0.0,0.0,0.0,0.0,0.0,0.0,0.0,0.0,0.0,0.0,0.0,0.0,0.0,0.0,0.0,0.0,0.0,0.0,0.0,0.0,0.0,0.0,0.0,5.2262,5.1445,5.2266,5.2305,5.1445,0.0,0.0,0.0,0.0,0.0,0.0,0.0,0.0,0.0,0.0,0.0,0.0,0.0,0.0,0.0,0.0,0.0,0.0,0.0,0.0,0.0,0.0,0.0,0.0,0.0,0.0,0.0,0.0,0.0,0.0,0.0,0.0,0.0,0.0,0.0,0.0,0.0,0.0,0.0,0.0,0.0,0.0,0.0,0.0,0.0,0.0,0.0,0.0,0.0,0.0,0.0,0.0,0.0,0.0,0.0,0.0,0.0,0.0,0.0,0.0,0.0,0.0,0.0,0.0,0.0,0.0,0.0,0.0,0.0,0.0,0.0,0.0,0.0,0.0,0.0,0.0,0.0,0.0,0.0,0.0,0.0,0.0,0.0,0.0,0.0,0.0,0.0,0.0,0.0,0.0,0.0,0.0,0.0,0.0,0.0,0.0,0.0,0.0,0.0,0.0,0.0,0.0,0.0,0.0,0.0,0.0,0.0,0.0,0.0,0.0,0.0,0.0,5.2461,5.2383,5.1719,0.0,0.0,0.0,0.0,0.0,0.0,0.0,0.0,0.0,0.0,0.0,0.0,0.0,0.0,0.0,0.0,0.0,0.0,0.0,0.0,0.0,0.0,0.0,0.0,0.0,0.0,0.0,0.0,0.0,0.0,0.0,0.0,0.0,0.0,0.0,0.0,0.0,0.0,0.0,0.0,0.0,0.0,0.0,0.0,0.0,0.0,0.0,0.0,0.0,0.0,0.0,0.0,0.0,0.0,0.0,0.0,0.0,0.0,0.0,0.0,0.0,0.0,0.0,0.0,0.0,0.0,0.0,0.0,0.0,0.0,0.0,0.0,0.0,0.0,0.0,0.0,0.0,0.0,0.0,0.0,0.0,0.0,0.0,0.0,0.0,0.0,0.0,0.0,0.0,0.0,0.0,0.0,0.0,0.0,0.0,0.0,0.0,0.0,0.0,0.0,0.0,0.0,0.0,0.0,0.0,0.0,0.0,0.0,0.0,0.0,5.2226,5.3711,5.3047,0.0,5.2539,0.0,0.0,0.0,0.0,0.0,0.0,0.0,0.0,0.0,0.0,0.0,0.0,0.0,0.0,0.0,0.0,0.0,0.0,0.0,0.0,0.0,0.0,0.0,0.0,0.0,0.0,0.0,0.0,0.0,0.0,0.0,0.0,0.0,0.0,0.0,0.0,0.0,0.0,0.0,0.0,0.0,0.0,0.0,0.0,0.0,0.0,0.0,0.0,0.0,0.0,0.0,0.0,0.0,0.0,0.0,0.0,0.0,0.0,0.0,0.0,0.0,0.0,0.0,0.0,0.0,0.0,0.0,0.0,0.0,0.0,0.0,0.0,0.0,0.0,0.0,0.0,0.0,0.0,0.0,0.0,0.0,0.0,0.0,0.0,0.0,0.0,0.0,0.0,0.0,0.0,0.0,0.0,0.0,0.0,0.0,0.0,0.0,0.0,0.0,0.0,0.0,0.0,0.0,0.0,0.0,0.0,0.0,0.0,0.0,0.0,5.1992,5.3203,5.2891,5.2461,0.0,0.0,0.0,0.0,0.0,0.0,0.0,0.0,0.0,0.0,0.0,0.0,0.0,0.0,0.0,0.0,0.0,0.0,0.0,0.0,0.0,0.0,0.0,0.0,0.0,0.0,0.0,0.0,0.0,0.0,0.0,0.0,0.0,0.0,0.0,0.0,0.0,0.0,0.0,0.0,0.0,0.0,0.0,0.0,0.0,0.0,0.0,0.0,0.0,0.0,0.0,0.0,0.0,0.0,0.0,0.0,0.0,0.0,0.0,0.0,0.0,0.0,0.0,0.0,0.0,0.0,0.0,0.0,0.0,0.0,0.0,0.0,0.0,0.0,0.0,0.0,0.0,0.0,0.0,0.0,0.0,0.0,0.0,0.0,0.0,0.0,0.0,0.0,0.0,0.0,0.0,0.0,0.0,0.0,0.0,0.0,0.0,0.0,0.0,0.0,0.0,0.0,0.0,0.0,0.0,0.0,0.0,0.0,0.0,0.0,5.1992,5.2187,5.3008,5.2578,5.2031,5.1406,0.0,0.0,0.0,0.0,0.0,0.0,0.0,0.0,0.0,0.0,0.0,0.0,0.0,0.0,0.0,0.0,0.0,0.0,0.0,0.0,0.0,0.0,0.0,0.0,0.0,0.0,0.0,0.0,0.0,0.0,0.0,0.0,0.0,0.0,0.0,0.0,0.0,0.0,0.0,0.0,0.0,0.0,0.0,0.0,0.0,0.0,0.0,0.0,0.0,0.0,0.0,0.0,0.0,0.0,0.0,0.0,0.0,0.0,0.0,0.0,0.0,0.0,0.0,0.0,0.0,0.0,0.0,0.0,0.0,0.0,0.0,0.0,0.0,0.0,0.0,0.0,0.0,0.0,0.0,0.0,0.0,0.0,0.0,0.0,0.0,0.0,0.0,0.0,0.0,0.0,0.0,0.0,0.0,0.0,0.0,0.0,0.0,0.0,0.0,0.0,0.0,0.0,0.0,0.0,0.0,0.0,0.0,0.0,5.4883,5.3476,5.3047,5.3828,5.2344,5.1445,0.0,0.0,0.0,0.0,0.0,0.0,0.0,0.0,0.0,0.0,0.0,0.0,0.0,0.0,0.0,0.0,0.0,0.0,0.0,0.0,0.0,0.0,0.0,0.0,0.0,0.0,0.0,0.0,0.0,0.0,0.0,0.0,0.0,0.0,0.0,0.0,0.0,0.0,0.0,0.0,0.0,0.0,0.0,0.0,0.0,0.0,0.0,0.0,0.0,0.0,0.0,0.0,0.0,0.0,0.0,0.0,0.0,0.0,0.0,0.0,0.0,0.0,0.0,0.0,0.0,0.0,0.0,0.0,0.0,0.0,0.0,0.0,0.0,0.0,0.0,0.0,0.0,0.0,0.0,0.0,0.0,0.0,0.0,0.0,0.0,0.0,0.0,0.0,0.0,0.0,0.0,0.0,0.0,0.0,0.0,0.0,0.0,0.0,0.0,0.0,0.0,0.0,0.0,0.0,0.0,0.0,0.0,0.0,0.0,5.2734,5.2734,5.2578,5.2305,5.1719,5.1172,0.0,0.0,0.0,0.0,0.0,0.0,0.0,0.0,0.0,0.0,0.0,0.0,0.0,0.0,0.0,0.0,0.0,0.0,0.0,0.0,0.0,0.0,0.0,0.0,0.0,0.0,0.0,0.0,0.0,0.0,0.0,0.0,0.0,0.0,0.0,0.0,0.0,0.0,0.0,0.0,0.0,0.0,0.0,0.0,0.0,0.0,0.0,0.0,0.0,0.0,0.0,0.0,0.0,0.0,0.0,0.0,0.0,0.0,0.0,0.0,0.0,0.0,0.0,0.0,0.0,0.0,0.0,0.0,0.0,0.0,0.0,0.0,0.0,0.0,0.0,0.0,0.0,0.0,0.0,0.0,0.0,0.0,0.0,0.0,0.0,0.0,0.0,0.0,0.0,0.0,0.0,0.0,0.0,0.0,0.0,0.0,0.0,0.0,0.0,0.0,0.0,0.0,0.0,0.0,0.0,0.0,0.0,0.0,0.0,5.1836,0.0,5.2266,5.1445,5.1133,5.0508,0.0,0.0,0.0,0.0,0.0,0.0,0.0,0.0,0.0,0.0,0.0,0.0,0.0,0.0,0.0,0.0,0.0,0.0,0.0,0.0,0.0,0.0,0.0,0.0,0.0,0.0,0.0,0.0,0.0,0.0,0.0,0.0,0.0,0.0,0.0,0.0,0.0,0.0,0.0,0.0,0.0,0.0,0.0,0.0,0.0,0.0,0.0,0.0,0.0,0.0,0.0,0.0,0.0,0.0,0.0,0.0,0.0,0.0,0.0,0.0,0.0,0.0,0.0,0.0,0.0,0.0,0.0,0.0,0.0,0.0,0.0,0.0,0.0,0.0,0.0,0.0,0.0,0.0,0.0,0.0,0.0,0.0,0.0,0.0,0.0,0.0,0.0,0.0,0.0,0.0,0.0,0.0,0.0,0.0,0.0,0.0,0.0,0.0,0.0,0.0,0.0,0.0,0.0,0.0,0.0,0.0,0.0,0.0,5.1797,5.2578,5.2656,5.2266,5.1445,5.0663,4.9413,0.0,0.0,0.0,0.0,0.0,0.0,0.0,0.0,0.0,0.0,0.0,0.0,0.0,0.0,0.0,0.0,0.0,0.0,0.0,0.0,0.0,0.0,0.0,0.0,0.0,0.0,0.0,0.0,0.0,0.0,0.0,0.0,0.0,0.0,0.0,0.0,0.0,0.0,0.0,0.0,0.0,0.0,0.0,0.0,0.0,0.0,0.0,0.0,0.0,0.0,0.0,0.0,0.0,0.0,0.0,0.0,0.0,0.0,0.0,0.0,0.0,0.0,0.0,0.0,0.0,0.0,0.0,0.0,0.0,0.0,0.0,0.0,0.0,0.0,0.0,0.0,0.0,0.0,0.0,0.0,0.0,0.0,0.0,0.0,0.0,0.0,0.0,0.0,0.0,0.0,0.0,0.0,0.0,0.0,0.0,0.0,0.0,0.0,0.0,0.0,0.0,0.0,0.0,0.0,0.0,0.0,0.0,0.0,0.0,5.0976,5.1523,5.1953,5.2187,5.0351,4.9609,0.0,0.0,0.0,0.0,0.0,0.0,0.0,0.0,0.0,0.0,0.0,0.0,0.0,0.0,0.0,0.0,0.0,0.0,0.0,0.0,0.0,0.0,0.0,0.0,0.0,0.0,0.0,0.0,0.0,0.0,0.0,0.0,0.0,0.0,0.0,0.0,0.0,0.0,0.0,0.0,0.0,0.0,0.0,0.0,0.0,0.0,0.0,0.0,0.0,0.0,0.0,0.0,0.0,0.0,0.0,0.0,0.0,0.0,0.0,0.0,0.0,0.0,0.0,0.0,0.0,0.0,0.0,0.0,0.0,0.0,0.0,0.0,0.0,0.0,0.0,0.0,0.0,0.0,0.0,0.0,0.0,0.0,0.0,0.0,0.0,0.0,0.0,0.0,0.0,0.0,0.0,0.0,0.0,0.0,0.0,0.0,0.0,0.0,0.0,0.0,0.0,0.0,0.0,0.0,0.0,0.0,0.0,0.0,0.0,5.0143,5.0887,5.1435,5.1631,4.9793,4.9172,4.9882,0.0,0.0,0.0,0.0,0.0,0.0,0.0,0.0,0.0,0.0,0.0,0.0,0.0,0.0,0.0,0.0,0.0,0.0,0.0,0.0,0.0,0.0,0.0,0.0,0.0,0.0,0.0,0.0,0.0,0.0,0.0,0.0,0.0,0.0,0.0,0.0,0.0,0.0,0.0,0.0,0.0,0.0,0.0,0.0,0.0,0.0,0.0,0.0,0.0,0.0,0.0,0.0,0.0,0.0,0.0,0.0,0.0,0.0,0.0,0.0,0.0,0.0,0.0,0.0,0.0,0.0,0.0,0.0,0.0,0.0,0.0,0.0,0.0,0.0,0.0,0.0,0.0,0.0,0.0,0.0,0.0,0.0,0.0,0.0,0.0,0.0,0.0,0.0,0.0,0.0,0.0,0.0,0.0,0.0,0.0,0.0,0.0,0.0,0.0,0.0,0.0,0.0,0.0,0.0,0.0,0.0,0.0,0.0,4.9895,5.0764,5.0888,5.0189,4.9284,4.8466,0.0,0.0,0.0,0.0,0.0,0.0,0.0,0.0,0.0,0.0,0.0,0.0,0.0,0.0,0.0,0.0,0.0,0.0,0.0,0.0,0.0,0.0,0.0,0.0,0.0,0.0,0.0,0.0,0.0,0.0,0.0,0.0,0.0,0.0,0.0,0.0,0.0,0.0,0.0,0.0,0.0,0.0,0.0,0.0,0.0,0.0,0.0,0.0,0.0,0.0,0.0,0.0,0.0,0.0,0.0,0.0,0.0,0.0,0.0,0.0,0.0,0.0,0.0,0.0,0.0,0.0,0.0,0.0,0.0,0.0,0.0,0.0,0.0,0.0,0.0,0.0,0.0,0.0,0.0,0.0,0.0,0.0,0.0,0.0,0.0,0.0,0.0,0.0,0.0,0.0,0.0,0.0,0.0,0.0,0.0,0.0,0.0,0.0,0.0,0.0,0.0,0.0,0.0,0.0,0.0,0.0,0.0,0.0,0.0,5.0606,5.128,5.1897,5.2355,5.1152,5.0971,0.0,0.0,0.0,0.0,0.0,0.0,0.0,0.0,0.0,0.0,0.0,0.0,0.0,0.0,0.0,0.0,0.0,0.0,0.0,0.0,0.0,0.0,0.0,0.0,0.0,0.0,0.0,0.0,0.0,0.0,0.0,0.0,0.0,0.0,0.0,0.0,0.0,0.0,0.0,0.0,0.0,0.0,0.0,0.0,0.0,0.0,0.0,0.0,0.0,0.0,0.0,0.0,0.0,0.0,0.0,0.0,0.0,0.0,0.0,0.0,0.0,0.0,0.0,0.0,0.0,0.0,0.0,0.0,0.0,0.0,0.0,0.0,0.0,0.0,0.0,0.0,0.0,0.0,0.0,0.0,0.0,0.0,0.0,0.0,0.0,0.0,0.0,0.0,0.0,0.0,0.0,0.0,0.0,0.0,0.0,0.0,0.0,0.0,0.0,0.0,0.0,0.0,0.0,0.0,0.0,0.0,0.0,0.0,5.125,5.0782,5.1631,5.2362,5.2936,5.2029,5.1845,0.0,0.0,0.0,0.0,0.0,0.0,0.0,0.0,0.0,0.0,0.0,0.0,0.0,0.0,0.0,0.0,0.0,0.0,0.0,0.0,0.0,0.0,0.0,0.0,0.0,0.0,0.0,0.0,0.0,0.0,0.0,0.0,0.0,0.0,0.0,0.0,0.0,0.0,0.0,0.0,0.0,0.0,0.0,0.0,0.0,0.0,0.0,0.0,0.0,0.0,0.0,0.0,0.0,0.0,0.0,0.0,0.0,0.0,0.0,0.0,0.0,0.0,0.0,0.0,0.0,0.0,0.0,0.0,0.0,0.0,0.0,0.0,0.0,0.0,0.0,0.0,0.0,0.0,0.0,0.0,0.0,0.0,0.0,0.0,0.0,0.0,0.0,0.0,0.0,0.0,0.0,0.0,0.0,0.0,0.0,0.0,0.0,0.0,0.0,0.0,0.0,0.0,0.0,0.0,0.0,0.0,0.0,0.0,5.1566,5.0939,5.1949,5.2538,5.2634,5.2382,5.1939,0.0,0.0,0.0,0.0,0.0,0.0,0.0,0.0,0.0,0.0,0.0,0.0,0.0,0.0,0.0,0.0,0.0,0.0,0.0,0.0,0.0,0.0,0.0,0.0,0.0,0.0,0.0,0.0,0.0,0.0,0.0,0.0,0.0,0.0,0.0,0.0,0.0,0.0,0.0,0.0,0.0,0.0,0.0,0.0,0.0,0.0,0.0,0.0,0.0,0.0,0.0,0.0,0.0,0.0,0.0,0.0,0.0,0.0,0.0,0.0,0.0,0.0,0.0,0.0,0.0,0.0,0.0,0.0,0.0,0.0,0.0,0.0,0.0,0.0,0.0,0.0,0.0,0.0,0.0,0.0,0.0,0.0,0.0,0.0,0.0,0.0,0.0,0.0,0.0,0.0,0.0,0.0,0.0,0.0,0.0,0.0,0.0,0.0,0.0,0.0,0.0,0.0,0.0,0.0,0.0,0.0,0.0,0.0,5.1413,5.2328,5.2443,5.2835,5.3487,5.3224,5.3,0.0,0.0,0.0,0.0,0.0,0.0,0.0,0.0,0.0,0.0,0.0,0.0,0.0,0.0,0.0,0.0,0.0,0.0,0.0,0.0,0.0,0.0,0.0,0.0,0.0,0.0,0.0,0.0,0.0,0.0,0.0,0.0,0.0,0.0,0.0,0.0,0.0,0.0,0.0,0.0,0.0,0.0,0.0,0.0,0.0,0.0,0.0,0.0,5.3998,0.0,0.0,0.0,0.0,0.0,0.0,0.0,0.0,0.0,0.0,0.0,0.0,0.0,0.0,0.0,0.0,0.0,0.0,0.0,0.0,0.0,0.0,0.0,0.0,0.0,0.0,0.0,0.0,0.0,0.0,0.0,0.0,0.0,0.0,0.0,0.0,0.0,0.0,0.0,0.0,0.0,0.0,0.0,0.0,0.0,0.0,0.0,0.0,0.0,0.0,0.0,0.0,0.0,0.0,0.0,0.0,0.0,0.0,0.0,5.1759,5.2741,5.2964,5.3272,5.3718,5.3656,5.3499,0.0,0.0,0.0,0.0,0.0,0.0,0.0,0.0,0.0,0.0,0.0,0.0,0.0,0.0,0.0,0.0,0.0,0.0,0.0,0.0,0.0,0.0,0.0,0.0,0.0,0.0,0.0,0.0,0.0,0.0,0.0,0.0,0.0,0.0,0.0,0.0,0.0,0.0,0.0,0.0,0.0,0.0,0.0,0.0,0.0,0.0,0.0,0.0,0.0,0.0,0.0,0.0,0.0,0.0,0.0,0.0,0.0,0.0,0.0,0.0,0.0,0.0,0.0,0.0,0.0,0.0,0.0,0.0,0.0,0.0,0.0,0.0,0.0,0.0,0.0,0.0,0.0,0.0,0.0,0.0,0.0,0.0,0.0,0.0,0.0,0.0,0.0,0.0,0.0,0.0,0.0,0.0,0.0,0.0,0.0,0.0,0.0,0.0,0.0,0.0,0.0,0.0,0.0,0.0,0.0,0.0,0.0,5.2197,5.243,5.3112,5.3501,5.3738,5.3866,5.4084,5.3946,5.3503,0.0,0.0,0.0,0.0,0.0,0.0,0.0,0.0,0.0,0.0,0.0,0.0,0.0,0.0,0.0,0.0,0.0,0.0,0.0,0.0,0.0,0.0,0.0,0.0,0.0,0.0,0.0,0.0,0.0,0.0,0.0,0.0,0.0,0.0,0.0,0.0,0.0,0.0,5.1757,5.3281,0.0,0.0,0.0,0.0,0.0,0.0,0.0,0.0,5.4511,0.0,0.0,0.0,0.0,0.0,0.0,0.0,0.0,0.0,0.0,0.0,0.0,0.0,0.0,0.0,0.0,0.0,0.0,0.0,0.0,0.0,0.0,0.0,0.0,0.0,0.0,0.0,0.0,0.0,0.0,0.0,0.0,0.0,0.0,0.0,0.0,0.0,0.0,0.0,0.0,0.0,0.0,0.0,0.0,0.0,0.0,0.0,0.0,0.0,0.0,0.0,0.0,0.0,0.0,0.0,0.0,5.3038,5.3011,5.3484,5.4534,5.3978,5.4003,5.467,5.495,5.4818,5.4289,0.0,0.0,0.0,0.0,0.0,0.0,0.0,0.0,0.0,0.0,0.0,0.0,0.0,0.0,0.0,0.0,0.0,0.0,0.0,0.0,0.0,0.0,0.0,0.0,0.0,0.0,0.0,0.0,0.0,0.0,0.0,0.0,0.0,0.0,0.0,0.0,0.0,0.0,0.0,5.4993,5.5895,0.0,0.0,0.0,0.0,0.0,0.0,0.0,0.0,5.3991,0.0,0.0,0.0,0.0,0.0,0.0,0.0,0.0,0.0,0.0,0.0,0.0,0.0,0.0,0.0,0.0,0.0,0.0,0.0,0.0,0.0,0.0,0.0,0.0,0.0,0.0,0.0,0.0,0.0,0.0,0.0,0.0,0.0,0.0,0.0,0.0,0.0,0.0,0.0,0.0,0.0,0.0,0.0,0.0,0.0,0.0,0.0,0.0,0.0,0.0,0.0,0.0,0.0,0.0,0.0,5.3846,5.3718,5.4051,5.4836,5.4541,5.4731,5.5542,5.5409,5.544,0.0,0.0,0.0,0.0,0.0,0.0,0.0,0.0,0.0,0.0,0.0,0.0,0.0,0.0,0.0,0.0,0.0,0.0,0.0,0.0,0.0,0.0,0.0,0.0,0.0,0.0,0.0,0.0,0.0,0.0,0.0,0.0,0.0,0.0,0.0,0.0,0.0,0.0,0.0,0.0,5.4968,5.5629,5.5081,0.0,0.0,0.0,0.0,0.0,0.0,5.3784,5.3757,0.0,0.0,0.0,0.0,0.0,0.0,0.0,0.0,0.0,0.0,0.0,0.0,0.0,0.0,0.0,0.0,0.0,0.0,0.0,0.0,0.0,0.0,0.0,0.0,0.0,0.0,0.0,0.0,0.0,0.0,0.0,0.0,0.0,0.0,0.0,0.0,0.0,0.0,0.0,0.0,0.0,0.0,0.0,0.0,0.0,0.0,0.0,0.0,0.0,0.0,0.0,0.0,0.0,0.0,0.0,5.4715,5.4706,5.4938,5.5375,5.5193,5.5549,5.6376,5.577,5.5905,0.0,0.0,0.0,0.0,0.0,0.0,0.0,0.0,0.0,0.0,0.0,0.0,0.0,0.0,0.0,0.0,0.0,0.0,0.0,0.0,0.0,0.0,0.0,0.0,0.0,0.0,0.0,0.0,0.0,0.0,0.0,0.0,0.0,0.0,0.0,0.0,0.0,0.0,0.0,0.0,0.0,5.5569,5.5424,5.5504,0.0,0.0,0.0,0.0,5.4057,5.4273,0.0,0.0,0.0,0.0,0.0,0.0,0.0,0.0,0.0,0.0,0.0,0.0,0.0,0.0,0.0,0.0,0.0,0.0,0.0,0.0,0.0,0.0,0.0,0.0,0.0,0.0,0.0,0.0,0.0,0.0,0.0,0.0,0.0,0.0,0.0,0.0,0.0,0.0,0.0,0.0,0.0,0.0,0.0,0.0,0.0,0.0,0.0,0.0,0.0,0.0,0.0,0.0,0.0,0.0,0.0,0.0,5.5538,5.6527,5.7045,5.7002,5.6289,5.6321,5.721,5.6202,5.606,0.0,0.0,0.0,0.0,0.0,0.0,0.0,0.0,0.0,0.0,0.0,0.0,0.0,0.0,0.0,0.0,0.0,0.0,0.0,0.0,0.0,0.0,0.0,0.0,0.0,0.0,0.0,0.0,0.0,0.0,0.0,0.0,0.0,0.0,0.0,0.0,0.0,0.0,0.0,0.0,0.0,5.725,5.7139,5.7223,5.6968,0.0,0.0,5.5579,5.4881,5.5922,0.0,0.0,0.0,0.0,0.0,0.0,0.0,0.0,0.0,0.0,0.0,0.0,0.0,0.0,0.0,0.0,0.0,0.0,0.0,0.0,0.0,0.0,0.0,0.0,0.0,0.0,0.0,0.0,0.0,0.0,0.0,0.0,0.0,0.0,0.0,0.0,0.0,0.0,0.0,0.0,0.0,0.0,0.0,0.0,0.0,0.0,0.0,0.0,0.0,0.0,0.0,0.0,0.0,0.0,0.0,5.6438,5.6377,5.7009,5.7347,5.7311,5.6964,5.7201,5.8112,5.7042,5.6819,0.0,0.0,0.0,0.0,0.0,0.0,0.0,0.0,0.0,0.0,0.0,0.0,0.0,0.0,0.0,0.0,0.0,0.0,0.0,0.0,0.0,0.0,0.0,0.0,0.0,0.0,0.0,0.0,0.0,0.0,0.0,0.0,0.0,0.0,0.0,0.0,0.0,0.0,0.0,0.0,0.0,0.0,5.7458,5.7483,0.0,0.0,0.0,5.5877,5.5129,0.0,0.0,0.0,0.0,0.0,0.0,0.0,0.0,0.0,0.0,0.0,0.0,0.0,0.0,0.0,0.0,0.0,0.0,0.0,0.0,0.0,0.0,0.0,0.0,0.0,0.0,0.0,0.0,0.0,0.0,0.0,0.0,0.0,0.0,0.0,0.0,0.0,0.0,0.0,0.0,0.0,0.0,0.0,0.0,0.0,0.0,0.0,0.0,0.0,0.0,0.0,0.0,0.0,0.0,0.0,0.0,0.0,5.7237,5.7638,5.7859,5.79,5.7775,5.8088,5.8924,5.7824,0.0,0.0,0.0,0.0,0.0,0.0,0.0,0.0,0.0,0.0,0.0,0.0,0.0,0.0,0.0,0.0,0.0,0.0,0.0,0.0,0.0,0.0,0.0,0.0,0.0,0.0,0.0,4.9646,0.0,0.0,0.0,0.0,0.0,0.0,0.0,0.0,0.0,0.0,0.0,0.0,0.0,0.0,5.7509,5.7777,5.7956,5.7829,0.0,0.0,5.6911,5.6104,5.6686,5.6784,0.0,0.0,0.0,0.0,0.0,0.0,0.0,0.0,0.0,0.0,0.0,0.0,0.0,0.0,0.0,0.0,0.0,0.0,0.0,0.0,0.0,0.0,0.0,0.0,0.0,0.0,0.0,0.0,0.0,0.0,0.0,0.0,0.0,0.0,0.0,0.0,0.0,0.0,0.0,0.0,0.0,0.0,0.0,0.0,0.0,0.0,0.0,0.0,0.0,0.0,0.0,0.0,0.0,0.0,5.7962,5.8062,5.8896,5.943,5.9585,5.8853,5.8903,5.975,5.8482,5.7872,0.0,0.0,0.0,0.0,0.0,0.0,0.0,0.0,0.0,0.0,0.0,0.0,0.0,0.0,0.0,0.0,0.0,0.0,0.0,0.0,0.0,0.0,0.0,0.0,0.0,0.0,0.0,0.0,0.0,0.0,0.0,0.0,0.0,0.0,0.0,0.0,0.0,0.0,0.0,0.0,0.0,5.7806,5.8592,5.9397,5.9833,0.0,5.9757,5.9521,5.8489,5.9577,5.9544,5.6532,0.0,0.0,0.0,0.0,0.0,0.0,0.0,0.0,0.0,0.0,0.0,0.0,0.0,0.0,0.0,0.0,0.0,0.0,0.0,0.0,0.0,0.0,0.0,0.0,0.0,0.0,0.0,0.0,0.0,0.0,0.0,0.0,0.0,0.0,0.0,0.0,0.0,0.0,0.0,0.0,0.0,0.0,0.0,0.0,0.0,0.0,0.0,0.0,0.0,0.0,0.0,0.0,0.0,5.8306,5.8918,5.9846,6.0681,6.1303,6.0531,6.0278,6.0614,5.9321,5.8495,0.0,0.0,0.0,0.0,0.0,0.0,0.0,0.0,0.0,0.0,0.0,0.0,0.0,0.0,0.0,0.0,0.0,0.0,0.0,0.0,0.0,0.0,0.0,0.0,0.0,0.0,0.0,0.0,5.2233,5.2352,5.2757,0.0,0.0,0.0,0.0,0.0,0.0,0.0,0.0,0.0,0.0,5.9305,6.012,6.049,0.0,0.0,6.0568,5.9801,5.9517,5.9006,5.8335,5.7241,5.5746,0.0,0.0,0.0,0.0,0.0,0.0,0.0,0.0,0.0,0.0,0.0,0.0,0.0,0.0,0.0,0.0,0.0,0.0,0.0,0.0,0.0,0.0,0.0,0.0,0.0,0.0,0.0,0.0,0.0,0.0,0.0,0.0,0.0,0.0,0.0,0.0,0.0,0.0,0.0,0.0,0.0,0.0,0.0,0.0,0.0,0.0,0.0,0.0,0.0,0.0,0.0,0.0,5.8683,5.9339,6.0601,6.154,6.2242,6.1733,6.1444,6.1376,6.031,5.942,0.0,0.0,0.0,0.0,0.0,0.0,0.0,0.0,0.0,0.0,0.0,0.0,0.0,0.0,0.0,0.0,0.0,0.0,0.0,0.0,0.0,0.0,0.0,0.0,0.0,0.0,0.0,0.0,5.3933,5.3984,5.3817,0.0,0.0,0.0,0.0,0.0,0.0,0.0,0.0,0.0,0.0,6.0522,6.1061,6.1116,6.124,6.1638,6.0712,5.9982,6.003,5.9167,5.85,5.8398,0.0,0.0,0.0,0.0,0.0,0.0,0.0,0.0,0.0,0.0,0.0,0.0,0.0,0.0,0.0,0.0,0.0,0.0,0.0,0.0,0.0,0.0,0.0,0.0,0.0,0.0,0.0,5.793,0.0,0.0,5.7969,0.0,0.0,0.0,0.0,0.0,0.0,0.0,0.0,0.0,0.0,0.0,0.0,0.0,0.0,0.0,0.0,0.0,0.0,0.0,0.0,0.0,0.0,5.921,5.9329,6.1081,6.2043,6.2135,6.2158,6.2182,6.2182,6.1452,6.0807,6.0258,0.0,0.0,0.0,0.0,0.0,0.0,0.0,0.0,0.0,0.0,0.0,0.0,0.0,0.0,0.0,0.0,0.0,0.0,0.0,0.0,0.0,0.0,0.0,0.0,0.0,0.0,5.4139,5.4665,5.4748,0.0,0.0,0.0,0.0,0.0,0.0,0.0,0.0,0.0,5.8757,6.0164,6.112,6.1244,6.1292,6.111,6.0375,6.0275,6.0261,6.0181,6.0705,6.0931,0.0,0.0,0.0,0.0,0.0,0.0,0.0,0.0,0.0,0.0,0.0,0.0,0.0,0.0,0.0,0.0,0.0,0.0,0.0,0.0,0.0,0.0,0.0,0.0,0.0,0.0,0.0,5.7794,5.752,0.0,0.0,0.0,0.0,0.0,0.0,0.0,0.0,0.0,0.0,0.0,5.9544,6.0137,0.0,0.0,0.0,0.0,0.0,0.0,0.0,0.0,0.0,0.0,0.0,0.0,5.951,6.0215,6.1995,6.3238,6.3792,6.339,6.3131,6.3131,6.2361,6.1423,6.0348,0.0,0.0,0.0,0.0,0.0,0.0,0.0,0.0,0.0,0.0,0.0,0.0,0.0,0.0,0.0,0.0,0.0,0.0,0.0,0.0,0.0,0.0,0.0,0.0,0.0,5.7298,0.0,0.0,0.0,0.0,0.0,0.0,0.0,0.0,0.0,0.0,0.0,5.8975,6.0258,6.1468,6.1967,6.1331,6.2235,6.2827,0.0,0.0,0.0,0.0,0.0,0.0,0.0,0.0,0.0,0.0,0.0,0.0,0.0,0.0,5.9317,5.6916,5.5204,5.4099,5.4099,0.0,0.0,0.0,0.0,0.0,0.0,0.0,0.0,0.0,0.0,0.0,0.0,0.0,0.0,5.7658,0.0,5.7606,0.0,0.0,0.0,0.0,0.0,0.0,0.0,0.0,5.9689,5.9543,5.9485,6.0112,6.059,0.0,6.1336,6.1497,0.0,0.0,0.0,0.0,0.0,0.0,0.0,0.0,6.0394,6.1046,6.2817,6.42,6.4955,6.4356,6.4116,6.4419,6.3384,6.2257,6.11,6.0608,5.9758,0.0,0.0,0.0,0.0,0.0,0.0,0.0,0.0,0.0,0.0,0.0,0.0,0.0,0.0,0.0,0.0,0.0,0.0,0.0,0.0,0.0,0.0,0.0,5.8567,0.0,0.0,0.0,0.0,0.0,0.0,0.0,0.0,0.0,5.8913,5.9357,6.0207,6.1475,6.248,6.2746,6.1894,0.0,0.0,0.0,0.0,0.0,0.0,0.0,6.0452,6.1021,6.0456,6.01,6.0801,6.1562,6.2192,6.2465,0.0,0.0,5.9038,5.7507,5.6532,5.6185,5.5677,5.5088,5.4538,5.4364,5.4346,0.0,0.0,0.0,0.0,0.0,0.0,0.0,0.0,5.8084,5.8256,0.0,5.8222,0.0,0.0,0.0,0.0,0.0,5.973,0.0,0.0,5.7954,5.788,5.9709,5.9917,6.0404,6.128,6.2502,6.3144,6.3115,6.1399,0.0,0.0,0.0,0.0,0.0,0.0,6.177,6.1883,6.3604,6.4894,6.5715,6.5115,6.517,6.5926,6.4494,6.3348,6.2583,6.2049,6.1438,6.0652,6.0317,0.0,0.0,0.0,0.0,0.0,0.0,0.0,0.0,0.0,0.0,0.0,0.0,0.0,0.0,0.0,0.0,0.0,0.0,0.0,0.0,5.896,0.0,0.0,0.0,0.0,0.0,0.0,0.0,0.0,0.0,0.0,5.91,6.0307,6.1508,6.2361,0.0,0.0,0.0,0.0,6.1169,6.0618,5.9921,5.9804,6.0584,6.1924,6.2865,6.2666,0.0,0.0,6.2514,6.3197,6.3612,6.2795,6.3265,6.3443,6.2665,6.1078,5.9789,5.894,5.7557,5.6401,5.6242,5.6262,5.6163,6.0987,0.0,0.0,0.0,0.0,6.0273,5.9495,5.8311,5.8311,5.806,5.7614,5.8167,0.0,0.0,0.0,0.0,0.0,0.0,5.9534,5.8965,5.9505,5.963,5.9452,6.0771,6.1513,6.1795,6.2159,6.2941,6.3951,6.2289,6.1658,6.2082,0.0,0.0,0.0,0.0,6.308,6.4078,6.5586,6.6473,6.6777,6.6673,6.6509,6.6193,6.5773,6.4884,6.3538,6.3443,6.2835,6.1615,6.1576,0.0,0.0,0.0,0.0,0.0,0.0,0.0,0.0,0.0,0.0,0.0,0.0,0.0,0.0,0.0,0.0,0.0,0.0,0.0,6.0761,6.0614,6.0268,0.0,0.0,0.0,0.0,0.0,0.0,0.0,0.0,0.0,6.147,6.1422,6.1732,0.0,0.0,6.3364,6.1359,6.2838,6.3635,6.2192,6.3263,0.0,6.45,6.4953,6.5277,6.523,6.5342,6.5079,6.4222,6.4758,6.5225,6.4949,6.5081,6.4981,6.4122,6.3134,6.2087,6.1281,6.0691,6.0146,5.9562,5.8878,5.8506,6.2228,6.1211,6.1228,6.0696,5.9963,6.0044,5.9116,5.7615,5.7689,5.7704,5.7677,5.7726,5.8439,5.9645,6.05,0.0,0.0,0.0,6.047,5.9652,6.0758,6.1209,6.1211,6.2351,6.3256,6.3895,6.3934,6.4433,6.5374,6.4189,6.3709,6.3903,0.0,0.0,6.3025,6.3554,6.4385,6.5528,6.6592,6.7325,6.7732,6.7873,6.7405,6.6356,6.6666,6.6248,6.5083,6.51,6.4566,6.3429,6.3262,6.2504,0.0,0.0,0.0,0.0,0.0,0.0,0.0,0.0,0.0,0.0,0.0,6.0343,6.0612,0.0,0.0,0.0,6.179,6.1757,6.1448,6.1341,0.0,0.0,0.0,0.0,0.0,0.0,0.0,6.1243,6.2886,6.4124,6.4471,6.4499,6.4503,6.463,6.5165,6.4874,6.2993,0.0,6.5271,6.4208,6.5035,6.592,6.6186,6.6531,6.6825,6.7081,6.7075,6.6858,6.6383,6.6323,6.6365,6.6365,6.6128,6.575,6.5205,6.4666,6.3935,6.282,6.2018,6.1512,6.129,6.0513,6.0003,6.3945,6.2531,6.2547,6.1331,5.94,5.9584,5.8571,5.6784,5.6977,5.7563,5.8372,5.7413,5.8184,6.0332,6.1035,0.0,6.1055,6.1736,6.1944,6.167,6.1841,6.2735,6.4158,6.4384,6.5308,6.6773,6.6866,6.6907,6.6927,6.6543,6.6376,6.6308,6.3932,6.3282,6.4365,6.4903,6.558,6.6491,6.7058,6.7751,6.8593,6.881,6.8151,6.661,6.7343,6.7469,6.6843,6.6812,6.646,6.5744,6.519,6.4129,6.2535,0.0,0.0,0.0,0.0,0.0,0.0,0.0,0.0,0.0,0.0,0.0,0.0,0.0,0.0,6.3597,6.3139,0.0,6.1774,6.1853,0.0,0.0,0.0,6.351,6.5124,6.5255,6.5517,6.6399,0.0,0.0,6.7715,6.8529,6.8781,6.7972,6.7662,6.7225,6.6397,6.626,6.6326,6.6302,6.5913,6.5824,6.673,6.7384,6.7966,6.841,6.8526,6.8437,6.8244,6.7616,6.7141,6.7071,6.6442,6.5865,6.5904,6.5711,6.532,6.3814,6.232,6.1417,6.1901,6.1448,6.0872,6.5505,6.4586,6.4577,6.3011,6.0518,6.057,6.021,5.9649,5.988,5.9653,5.9123,5.9743,6.0414,6.1055,6.1035,6.1357,6.1956,6.2013,6.2301,6.284,6.3751,6.4426,6.4821,6.5736,6.6397,6.6773,6.6794,6.7142,6.7668,6.7025,6.685,6.7048,6.5918,6.559,6.6168,6.6327,6.7019,6.8357,6.8487,6.8934,6.9606,6.9681,6.9277,6.8388,6.8566,6.8398,6.7806,6.7835,6.748,6.6733,6.6564,6.5814,6.428,6.4206,0.0,0.0,0.0,0.0,0.0,0.0,0.0,0.0,0.0,6.2107,6.1987,0.0,6.262,0.0,6.4376,6.5179,6.5058,6.5613,0.0,0.0,6.4821,6.5151,6.6863,6.6888,6.6924,6.7418,6.842,6.9182,6.9401,6.9617,7.0341,7.1756,7.006,6.8087,6.6574,6.7295,6.7852,6.7532,6.8563,6.9435,6.9097,6.9728,7.0017,6.9615,6.9558,6.9327,6.8672,6.7787,6.7172,6.7134,6.6474,6.5942,6.5904,6.5359,6.5128,6.5166,6.4436,6.3545,6.3103,6.2695,6.2489,6.765,6.688,6.6512,6.5233,6.3332,6.2738,6.1941,6.1136,6.138,6.0925,6.0063,6.1069,6.1726,6.2048,6.2327,6.278,6.334,6.3641,6.4037,6.4589,6.5634,6.6169,6.6206,6.7602,6.8252,6.8289,6.8692,6.8928,6.8966,6.8618,6.8553,6.8773,6.7948,6.7948,6.8638,6.7508,6.7465,6.8617,6.8964,6.9597,7.0588,7.0302,6.9989,6.9743,6.9428,6.9023,6.8428,6.8083,6.7697,6.7286,6.6979,6.6394,6.5556,6.531,6.4796,0.0,0.0,0.0,0.0,0.0,0.0,0.0,0.0,0.0,0.0,0.0,6.4604,6.4998,6.6418,6.7364,6.748,6.7887,6.8268,6.8521,6.8167,6.8488,7.0174,7.0224,7.0181,7.0398,7.1433,7.2136,7.2186,7.2535,7.3103,7.403,7.2712,7.1032,6.9401,6.9479,6.959,6.9296,7.0245,7.0914,7.0486,7.0815,7.0945,7.0527,7.0431,7.022,6.9713,6.8578,6.784,6.811,6.7,6.6019,6.6327,6.5782,6.5391,6.5628,6.5468,6.484,6.3963,6.3372,6.3061,6.9779,6.8995,6.8288,6.754,6.6722,6.5494,6.3935,6.223,6.2456,6.2096,6.1449,6.2139,6.2731,6.3383,6.4279,6.477,6.5088,6.5962,6.6477,6.6744,6.7577,6.8019,6.8057,6.957,7.0278,7.0315,7.1116,7.1174,7.0499,7.0623,7.0643,7.0589,6.9884,7.0023,7.0904,6.8702,6.7866,6.8514,6.9251,7.0194,7.1404,7.0784,7.0469,7.0573,6.9972,6.936,6.8808,6.8076,6.7624,6.7583,6.7045,6.6727,6.6714,6.611,6.5775,0.0,6.5211,0.0,0.0,0.0,0.0,0.0,0.0,0.0,0.0,6.6717,6.716,6.8176,6.8808,6.9273,6.9642,6.9688,7.0246,7.1508,7.1678,7.2251,7.3657,7.3787,7.3812,7.3999,7.4603,7.5007,7.4996,7.5703,7.5755,7.5118,7.4661,7.3881,7.2836,7.1743,7.1201,7.1266,7.1201,7.1098,7.1065,7.1098,7.1136,7.1124,7.1022,7.1043,7.094,6.9644,6.8809,6.9277,6.7686,6.6442,6.7135,6.6519,6.591,6.6005,6.5864,6.5453,6.4746,6.3988,6.3329,7.061,6.9853,6.9706,6.9192,6.8421,6.8168,6.6683,6.4501,6.4756,6.4746,6.461,6.4645,6.4829,6.5088,6.5772,6.6509,6.7325,6.802,6.8693,6.9359,6.9875,7.0114,7.014,7.0891,7.1228,7.124,7.1505,7.1599,7.1449,7.1582,7.1456,7.1166,7.1091,7.1029,7.0925,0.0,0.0,0.0,7.0973,7.1387,7.1686,7.1205,7.066,7.0092,6.9907,0.0,6.8835,6.8645,6.8239,6.7661,6.8135,0.0,0.0,0.0,0.0,0.0,0.0,0.0,0.0,0.0,0.0,0.0,7.0205,6.9891,6.8688,6.8574,6.9195,7.0642,7.0874,7.1446,7.2772,7.2839,7.2948,7.321,7.3275,7.3662,7.4615,7.4668,7.4873,7.5723,7.5825,7.5873,7.5816,7.5431,7.5329,7.5714,7.4699,7.4102,7.4404,7.3106,7.2211,7.2182,7.176,7.133,7.1258,7.133,7.1396,7.1258,7.1253,7.1236,7.1141,7.0364,6.9609,6.9828,6.8251,6.7135,6.7975,6.6936,6.6109,6.6652,6.6169,6.5576,6.5409,6.5207,6.5035,7.2848,7.2422,7.1615,7.1064,0.0,6.9853,6.8784,6.7483,6.6455,6.5917,6.5839,6.5888,6.6329,6.71,6.7504,6.8168,6.9007,6.9412,6.9816,7.0234,7.0954,7.1074,7.0754,7.2286,7.2633,7.1984,7.2889,7.2934,7.2255,7.241,7.2411,7.2187,7.1911,7.2298,7.3289,7.3345,7.2705,7.1374,7.1611,7.2156,7.2877,7.2322,7.2093,7.2228,7.1494,0.0,0.0,0.0,0.0,0.0,0.0,0.0,0.0,7.0256,0.0,7.019,7.0265,7.0317,7.029,7.1099,7.1875,7.2625,7.3858,7.351,7.1058,7.1512,7.2502,7.3721,7.4226,7.4995,7.6207,7.6295,7.6102,7.5716,7.5607,7.5781,7.6076,7.578,7.585,7.6571,7.6435,7.6159,7.6198,7.5851,7.5716,7.6128,7.5562,7.5098,7.5361,7.4159,7.3098,7.3127,7.2853,7.2573,7.2562,7.254,7.2329,7.202,7.1858,7.1623,7.1237,7.0387,6.9932,7.0163,6.895,6.8052,6.8706,6.7667,6.6731,6.7312,6.6611,6.5897,6.6057,6.5764,6.5413,7.4903,7.4757,7.334,7.2642,7.2386,7.0917,7.022,6.9963,0.0,0.0,0.0,6.7019,6.7789,6.8939,6.921,6.9779,7.0527,7.0639,7.0855,7.119,7.178,7.1826,7.1495,7.3445,7.3773,7.2733,7.4225,7.4325,7.3021,7.3364,7.3499,7.3355,7.2973,7.3878,7.5977,7.6171,7.5085,7.2947,7.2445,7.2886,7.4113,7.3474,7.3469,7.4307,7.306,7.2405,7.2468,7.1842,7.1508,7.1514,7.1698,7.1896,7.2027,7.2027,7.2173,7.2422,7.2457,7.2831,7.3595,7.3815,7.4387,7.5624,7.7035,7.6689,7.3976,7.4943,7.5948,7.6738,7.744,7.8154,7.8887,7.8921,7.8612,7.7866,7.7736,7.7676,7.7582,7.7064,7.6916,7.7407,7.705,7.6641,7.6726,7.6578,7.6508,7.6519,7.6339,7.6338,7.6138,7.4963,7.3901,7.3745,7.3608,7.3736,7.3793,7.373,7.3469,7.2845,7.2604,7.2296,7.1589,7.0734,7.0495,7.1054,6.9751,6.9161,6.957,6.8493,6.7659,6.8315,6.7282,6.635,6.6757,6.6338,6.5701,7.4903,7.483,7.3891,7.312,7.2422,7.1527,7.0734,7.0073,6.9617,6.9471,6.9568,6.9457,6.9617,6.9935,7.0646,7.138,7.2165,7.218,7.3,7.4431,7.3384,7.3188,7.3879,7.3809,7.3639,7.3516,7.4524,7.4673,7.4151,7.4827,7.4959,7.4638,7.517,7.6107,7.7197,7.7384,7.7264,7.6855,7.4956,7.4101,7.443,7.3994,7.347,7.2923,7.281,7.2329,7.1693,7.1615,7.1521,7.1623,7.2298,7.2987,7.363,7.3669,7.4269,7.558,7.5719,7.609,7.6952,7.7721,7.8183,7.8323,7.858,7.8541,7.8162,7.8326,7.8462,7.8629,7.8733,7.8798,7.8915,7.8967,7.8895,7.8572,7.8552,7.8538,7.8518,7.8329,7.8216,7.8395,7.8313,7.8098,7.8012,7.755,7.72,7.712,7.6723,7.6101,7.6002,7.5388,7.4631,7.4001,7.3796,7.3772,7.3934,7.3748,7.3742,7.3543,7.3491,7.3382,7.3106,7.2405,7.1896,7.2018,7.0695,6.9986,7.0438,6.9303,6.8639,6.8953,6.8234,6.7585,6.7745,6.7458,6.6856,7.6628,7.6114,7.5322,7.4808,7.4404,7.3582,7.3032,7.2701,7.2556,7.1545,7.0146,7.004,7.0531,7.1394,7.1784,7.2686,7.3985,7.3948,7.4439,7.5224,7.4663,7.4626,7.5064,7.5355,7.5077,7.4397,7.5604,7.5732,7.4917,7.5756,7.6165,7.6052,7.7034,7.7548,7.7534,7.8052,7.8131,7.7742,7.6209,7.5506,7.5636,7.5117,7.4649,7.4288,7.4854,7.4818,7.402,7.4473,7.4552,7.4179,7.5027,7.5663,7.6005,7.6496,7.7079,7.7769,7.7864,7.8019,7.8376,7.8689,7.9056,7.9448,7.9485,7.9691,8.0222,7.9809,7.948,7.9512,7.9905,8.0213,8.0213,8.0186,7.9913,7.9415,7.9341,7.9312,7.9235,7.8864,7.8765,7.9114,7.8844,7.8536,7.8536,7.8228,7.8026,7.8013,7.7344,7.6675,7.6213,7.5922,7.5612,7.5138,7.5034,7.508,7.5034,7.5073,7.4867,7.441,7.4288,7.4075,7.374,7.3153,7.2825,7.2283,7.1479,7.0969,7.0897,6.9762,6.938,6.9727,6.8939,6.8327,6.8464,6.8223,6.7346,7.8353,7.7642,7.6714,7.6136,7.5799,7.5359,7.505,7.4925,7.4967,7.3553,7.138,7.1146,7.1843,7.2973,7.3046,7.3927,7.5242,7.5264,7.5476,7.5914,7.5685,7.5731,7.5972,7.6564,7.6165,7.5353,7.6582,7.6664,7.5768,7.6535,7.716,7.745,7.8338,7.858,7.8174,7.8883,7.899,7.8398,7.7531,7.7026,7.6909,7.6267,7.5972,7.607,7.6601,7.6821,7.6437,7.7091,7.7305,7.6932,7.7554,7.7977,7.801,7.8683,7.9159,7.9233,7.9347,7.9424,7.9512,7.9372,7.9562,8.0222,8.0242,8.0497,8.1073,8.0605,8.0198,8.0304,8.0788,8.1188,8.1172,8.1174,8.0899,8.026,8.0123,8.01,8.0015,7.953,7.9391,7.9915,7.953,7.9174,7.9136,7.8982,7.8696,7.8276,7.7848,7.7147,7.6383,7.6198,7.6179,7.6125,7.6111,7.6061,7.6159,7.614,7.5805,7.5166,7.5082,7.483,7.4319,7.4014,7.357,7.2926,7.2366,7.1831,7.109,7.0478,7.0225,7.0455,6.9751,6.923,6.9359,6.9027,6.8035,7.9095,7.882,7.7594,7.6234,7.527,7.5747,7.5637,7.5124,7.5622,7.5439,7.4411,7.4329,7.438,7.4668,7.4647,7.5153,7.5954,7.5463,7.6066,7.7244,7.6203,7.6083,7.6851,7.6307,7.5905,7.601,7.6893,7.7089,7.654,7.7389,7.8015,7.8431,7.8687,7.9259,8.001,8.023,8.0333,8.0319,7.9516,7.875,7.7994,7.7237,7.6906,7.6955,7.6432,7.6513,7.7246,7.7438,7.7787,7.8418,7.8689,7.8843,7.8799,7.8965,7.9343,8.0034,8.0078,8.0396,8.1066,8.1162,8.1056,8.109,8.1022,8.1069,8.117,8.1077,8.1054,8.115,8.1231,8.128,8.1198,8.1214,8.1138,8.1047,8.0908,8.0977,8.0939,8.0946,8.0908,8.0946,8.0754,8.0831,8.0608,8.0108,7.9153,7.7997,7.7812,7.7319,7.6402,7.6223,7.6146,7.6094,7.6152,7.6185,7.609,7.6118,7.6054,7.5849,7.5901,7.5754,7.5442,7.4983,7.4507,7.3971,7.3217,7.2359,7.2026,7.1697,7.1306,7.0837,7.0757,7.0947,7.0434,7.0056,6.9382,7.9749,7.9172,7.8844,7.8343,7.7876,7.8055,7.7626,7.7003,7.726,7.6966,7.6249,7.6228,7.6017,7.5601,7.5601,7.6101,7.6942,7.6744,7.7054,7.784,7.7282,7.7283,7.7719,7.7473,7.7132,7.688,7.7601,7.7735,7.7517,7.8324,7.8998,7.9258,7.9404,7.9771,8.0255,8.0373,8.0497,8.0614,8.0269,7.9978,7.962,7.8511,7.786,7.7861,7.7593,7.7651,7.8104,7.8191,7.8399,7.8863,7.9423,7.9673,7.9681,8.0213,8.0656,8.0962,8.0956,8.1105,8.1301,8.1333,8.127,8.1154,8.1139,8.1316,8.1793,8.1823,8.1816,8.1832,8.1462,8.1177,8.1185,8.1139,8.1324,8.1639,8.14,8.1285,8.1785,8.1362,8.1093,8.1093,8.1093,8.1093,8.1054,8.0785,8.0077,7.9075,7.8821,7.8289,7.7144,7.6923,7.6692,7.6254,7.6257,7.6263,7.6111,7.6125,7.6152,7.6131,7.6131,7.6125,7.5985,7.5806,7.5346,7.4802,7.4034,7.3305,7.2809,7.228,7.1781,7.1351,7.0882,7.0856,7.0512,7.0427,6.9996,8.0482,7.9868,7.9995,7.9952,7.98,7.9636,7.9258,7.873,7.8693,7.8379,7.7882,7.7955,7.7546,7.6827,7.657,7.6881,7.7532,7.7665,7.7754,7.8,7.8057,7.8141,7.829,7.8332,7.8116,7.7827,7.8304,7.8424,7.8241,7.896,7.9546,7.9739,7.9865,8.0013,8.0195,8.0343,8.0459,8.0596,8.0641,8.0745,8.0742,7.9776,7.9046,7.8777,7.86,7.8659,7.9012,7.904,7.9248,7.9623,8.0202,8.0563,8.0544,8.1192,8.1553,8.1504,8.1497,8.144,8.1298,8.1284,8.1343,8.1424,8.1415,8.1745,8.2399,8.2575,8.2559,8.252,8.2021,8.1721,8.1438,8.1576,8.1982,8.2444,8.2021,8.1982,8.2444,8.1998,8.1668,8.1438,8.15,8.1331,8.1162,8.1054,8.0738,7.9996,7.9856,7.9485,7.8243,7.7859,7.7679,7.7022,7.7022,7.6784,7.6313,7.6212,7.6238,7.6198,7.6192,7.6165,7.6104,7.6027,7.5938,7.5286,7.4941,7.4481,7.3814,7.3093,7.2502,7.2203,7.1659,7.0923,7.0647,7.0561,7.0499,8.1337,8.1207,8.0838,8.039,7.9816,7.9821,7.9784,7.9695,7.9711,7.9674,7.9548,7.958,7.9229,7.8384,7.7635,7.7381,7.762,7.7791,7.7916,7.8074,7.8193,7.8276,7.8304,7.8427,7.8525,7.8519,7.8725,7.8966,7.915,7.9285,7.9462,7.9789,7.9833,7.995,8.0185,8.0295,8.0459,8.0605,8.0732,8.0868,8.1061,8.0962,8.0462,7.9738,7.8938,7.8991,7.9719,7.9899,8.0295,8.1151,8.1279,8.1395,8.1343,8.1427,8.1504,8.1497,8.1497,8.1433,8.1344,8.1354,8.1591,8.2109,8.2197,8.2501,8.3261,8.3325,8.329,8.3264,8.3234,8.2945,8.2391,8.2664,8.3051,8.3243,8.3187,8.3119,8.3273,8.315,8.2915,8.2279,8.2067,8.1878,8.13,8.1207,8.0935,8.033,8.005,7.9709,7.9042,7.874,7.8663,7.8586,7.8438,7.8109,7.6668,7.6456,7.6449,7.6257,7.6205,7.6172,7.6104,7.6041,7.5921,7.5777,7.5262,7.4887,7.465,7.4274,7.3806,7.3246,7.2379,7.1697,7.1189,7.0799,7.0662,8.1531,8.1717,8.1543,8.1415,8.1326,8.1192,8.0866,8.0373,8.0243,7.9983,7.9641,7.962,7.9292,7.8744,7.8856,7.8657,7.8293,7.8372,7.8485,7.861,7.8288,7.8193,7.8304,7.8441,7.8576,7.8708,7.8851,7.9054,7.9311,7.9477,7.9615,7.9739,7.9827,7.9978,8.0165,8.0235,8.0392,8.0587,8.065,8.0754,8.0997,8.1023,8.0885,8.0669,7.986,7.9842,8.0817,8.035,8.0499,8.1388,8.1472,8.1485,8.1466,8.1485,8.1497,8.1491,8.1459,8.1605,8.1928,8.197,8.2255,8.283,8.2932,8.3261,8.3972,8.4137,8.4119,8.4187,8.4602,8.4439,8.3768,8.345,8.3515,8.3966,8.3659,8.3583,8.3898,8.3695,8.3022,8.2301,8.2147,8.2138,8.2055,8.1985,8.1682,8.1063,8.0897,8.0492,7.9913,7.9694,7.9572,7.9076,7.8921,7.8728,7.8264,7.7479,7.7047,7.6508,7.6231,7.6179,7.6111,7.6048,7.5998,7.5967,7.5536,7.5445,7.5293,7.4945,7.4546,7.3773,7.2899,7.2318,7.1815,7.1234,7.0944,8.1686,8.1952,8.2022,8.2071,8.217,8.2071,8.1692,8.1163,8.1047,8.0755,8.043,8.0373,8.0094,7.9747,8.031,8.022,7.9532,7.936,7.9364,7.946,7.8821,7.8578,7.8694,7.862,7.8642,7.8774,7.8953,7.9165,7.9371,7.9581,7.9857,8.0166,8.0277,8.0406,8.0552,8.0596,8.0688,8.0609,8.0596,8.0817,8.1255,8.1367,8.1454,8.1539,8.1253,8.1172,8.1426,8.0821,8.0815,8.1407,8.1497,8.1485,8.1472,8.1736,8.1878,8.1891,8.2055,8.2311,8.2694,8.2732,8.302,8.3691,8.3789,8.4134,8.4931,8.4992,8.4965,8.51,8.5369,8.5399,8.4882,8.4353,8.4331,8.4737,8.4335,8.422,8.4795,8.4401,8.3786,8.3093,8.2758,8.2682,8.2725,8.2563,8.2273,8.1844,8.1646,8.1182,8.0756,8.0608,8.0492,7.995,7.9905,7.9751,7.9358,7.8798,7.7941,7.733,7.643,7.6282,7.6152,7.6083,7.608,7.6048,7.6041,7.6072,7.5856,7.5551,7.4937,7.4211,7.3485,7.2847,7.2238,7.1538,7.121,8.1855,8.2247,8.2223,8.2243,8.2296,8.2207,8.2186,8.206,8.208,8.1937,8.1823,8.2023,8.1517,8.1324,8.1713,8.1934,8.1225,8.0627,8.0371,8.0434,7.9822,7.9512,7.9576,7.9189,7.9035,7.919,7.929,7.9472,7.9715,7.9838,8.0264,8.097,8.1003,8.1039,8.1267,8.136,8.1203,8.0878,8.0864,8.1265,8.2062,8.2235,8.2285,8.2486,8.3048,8.2851,8.1626,8.151,8.1568,8.1627,8.1678,8.1537,8.1632,8.2082,8.2557,8.2571,8.3178,8.3518,8.3601,8.3615,8.3912,8.452,8.4712,8.4993,8.5572,8.5664,8.5571,8.5552,8.5638,8.56,8.5494,8.5446,8.5493,8.5522,8.5293,8.5341,8.5408,8.5542,8.5407,8.457,8.3901,8.3525,8.3439,8.3225,8.2887,8.2655,8.211,8.1652,8.1504,8.1394,8.1426,8.1381,8.1072,8.0691,8.042,8.0066,7.9099,7.8165,7.7098,7.6501,7.6263,7.6165,7.6138,7.6131,7.6131,7.6125,7.6138,7.5825,7.5677,7.5015,7.4231,7.3395,7.2783,7.2121,7.1382,8.3039,8.3487,8.2577,8.2517,8.292,8.2443,8.2186,8.217,8.2071,8.2088,8.2154,8.2071,8.1693,8.1476,8.2039,8.2123,8.1681,8.1844,8.1519,8.071,8.0525,8.0242,7.9915,8.028,8.0638,8.0768,8.1017,8.1188,8.1132,8.0919,8.0981,8.1138,8.0815,8.0908,8.1578,8.1582,8.1767,8.2382,8.2435,8.2719,8.3217,8.3287,8.3324,8.3456,8.3775,8.3714,8.3283,8.3119,8.307,8.3059,8.3091,8.2814,8.2323,8.181,8.189,8.24,8.2602,8.3277,8.4233,8.4379,8.4652,8.5256,8.5423,8.5501,8.5731,8.5714,8.5638,8.559,8.5657,8.5628,8.5551,8.5561,8.5619,8.5619,8.5667,8.5619,8.5571,8.5141,8.5073,8.54,8.4775,8.4383,8.4472,8.4273,8.3929,8.3441,8.2845,8.2359,8.2296,8.1824,8.1547,8.151,8.1465,8.1432,8.1052,8.0626,7.9885,7.8912,7.7831,7.6899,7.6591,7.6257,7.6231,7.6218,7.6218,7.6218,7.6231,7.6167,7.5986,7.5593,7.4768,7.4045,7.3439,7.277,7.2018,8.3895,8.431,8.3458,8.3214,8.3344,8.2847,8.2443,8.2223,8.2088,8.2088,8.2154,8.2088,8.1876,8.1823,8.225,8.2363,8.22,8.2779,8.2319,8.1302,8.1325,8.1131,8.0766,8.1147,8.1543,8.1683,8.1881,8.2052,8.2074,8.1846,8.1897,8.2054,8.1818,8.1959,8.2489,8.2606,8.2951,8.3261,8.3276,8.3568,8.3995,8.4158,8.4218,8.4329,8.4688,8.4695,8.4474,8.4534,8.4418,8.4011,8.3923,8.3638,8.3109,8.2834,8.2861,8.3249,8.3641,8.4206,8.5045,8.519,8.53,8.571,8.5797,8.577,8.5733,8.5704,8.5676,8.5599,8.5667,8.5686,8.559,8.5657,8.5714,8.5779,8.5752,8.5724,8.559,8.5227,8.514,8.5594,8.5409,8.5292,8.5357,8.4743,8.4501,8.3918,8.3051,8.2402,8.2274,8.1922,8.1705,8.1565,8.1553,8.1508,8.1502,8.1103,8.0626,7.9653,7.8596,7.7709,7.7098,7.6551,7.6307,7.6313,7.6307,7.6282,7.6295,7.6319,7.6183,7.5645,7.5264,7.4717,7.4087,7.3363,7.2733,8.453,8.4702,8.4609,8.4168,8.3675,8.3528,8.303,8.2402,8.2313,8.2329,8.2256,8.2203,8.2247,8.2407,8.255,8.2699,8.2919,8.3032,8.2867,8.235,8.2286,8.2258,8.2363,8.2167,8.2109,8.2159,8.2269,8.2376,8.2618,8.2551,8.2943,8.3541,8.3544,8.3922,8.3854,8.4222,8.3964,8.3646,8.3565,8.4089,8.4848,8.4911,8.4981,8.5098,8.5691,8.5737,8.5267,8.5559,8.5421,8.4409,8.4248,8.4098,8.4077,8.4695,8.4649,8.4658,8.5571,8.5672,8.5881,8.5816,8.5828,8.5795,8.5843,8.5905,8.576,8.581,8.5877,8.5829,8.5868,8.5849,8.5877,8.5826,8.5935,8.594,8.5843,8.5751,8.5752,8.575,8.5766,8.5815,8.5887,8.5988,8.5835,8.4728,8.4214,8.3772,8.2844,8.242,8.2034,8.2057,8.178,8.168,8.1612,8.1606,8.1567,8.1478,8.0957,8.0037,7.9058,7.8183,7.7373,7.6787,7.6368,7.6374,7.6374,7.635,7.635,7.6368,7.6368,7.6097,7.5716,7.5303,7.4695,7.3927,7.3485,8.5769,8.6261,8.5086,8.4829,8.5049,8.4572,8.3868,8.3284,8.3226,8.2895,8.2491,8.2343,8.2359,8.2423,8.2618,8.2752,8.2919,8.3121,8.3231,8.3115,8.3191,8.3386,8.3616,8.3612,8.3564,8.3602,8.3687,8.4006,8.4059,8.3633,8.3682,8.396,8.3633,8.3713,8.4145,8.4346,8.4643,8.508,8.5226,8.5356,8.5713,8.5861,8.5984,8.6076,8.6231,8.6215,8.6007,8.62,8.6161,8.5598,8.499,8.4651,8.4518,8.4231,8.4242,8.4668,8.4828,8.5175,8.5664,8.5825,8.5834,8.5806,8.5714,8.5619,8.559,8.6074,8.6281,8.6406,8.6456,8.6508,8.6461,8.6077,8.5928,8.6056,8.6039,8.5975,8.5975,8.6009,8.6052,8.6159,8.6167,8.5992,8.5597,8.5106,8.4545,8.4114,8.3572,8.3054,8.2494,8.2393,8.2238,8.1813,8.1669,8.1669,8.1669,8.1658,8.1253,8.0361,7.9409,7.8456,7.7653,7.6894,7.6546,7.6397,7.6392,7.6374,7.638,7.6392,7.638,7.6368,7.5883,7.5365,7.4989,7.4414,7.4143,8.6591,8.6904,8.6004,8.5673,8.5764,8.5391,8.4812,8.4175,8.385,8.3514,8.3034,8.265,8.2539,8.2518,8.269,8.2813,8.2934,8.3121,8.3312,8.3527,8.3685,8.3902,8.4138,8.4279,8.4368,8.4494,8.4603,8.4732,8.4768,8.4508,8.4458,8.4594,8.419,8.4326,8.4785,8.4882,8.516,8.5691,8.5952,8.6052,8.6176,8.6269,8.6285,8.6331,8.6331,8.6323,8.6285,8.6277,8.6207,8.6043,8.5689,8.5379,8.5258,8.4814,8.4659,8.5069,8.5069,8.5328,8.5589,8.5788,8.5788,8.5742,8.559,8.5501,8.5528,8.5876,8.615,8.6542,8.6434,8.6526,8.6777,8.6296,8.6171,8.6572,8.6445,8.6222,8.6159,8.6175,8.6238,8.6308,8.6307,8.6235,8.5789,8.5249,8.4662,8.4126,8.3364,8.2903,8.2503,8.2601,8.2533,8.2032,8.1734,8.1729,8.1718,8.1707,8.1242,8.039,7.9028,7.8237,7.7572,7.6802,7.6597,7.6403,7.6403,7.6403,7.6409,7.6415,7.6415,7.626,7.584,7.5708,7.5459,7.5244,7.4927,8.7014,8.7014,8.6995,8.6625,8.6072,8.615,8.5824,8.5046,8.4548,8.4115,8.3761,8.3155,8.2875,8.2727,8.2828,8.2897,8.2994,8.318,8.3361,8.369,8.4026,8.4313,8.4293,8.4356,8.4419,8.4591,8.4713,8.4863,8.4957,8.4975,8.5257,8.5377,8.5391,8.5469,8.555,8.5647,8.5714,8.5797,8.5905,8.6026,8.6189,8.6353,8.6515,8.6523,8.6485,8.6453,8.6366,8.6225,8.6203,8.6345,8.6245,8.6066,8.5992,8.6013,8.5907,8.5811,8.5728,8.5739,8.5788,8.5742,8.5819,8.5839,8.576,8.5614,8.5696,8.5932,8.6216,8.6642,8.6006,8.6279,8.6573,8.6368,8.6465,8.6878,8.6693,8.6408,8.6308,8.6299,8.6298,8.6305,8.6416,8.6442,8.6126,8.5235,8.4097,8.3866,8.3203,8.2767,8.2514,8.2519,8.2354,8.1937,8.1801,8.1824,8.1809,8.1794,8.1095,8.0265,7.8589,7.7544,7.7102,7.6565,7.6498,7.6409,7.6403,7.6409,7.6426,7.6432,7.6444,7.6433,7.6223,7.6332,7.6436,7.6175,7.5885,8.7014,8.6995,8.7149,8.7143,8.703,8.7123,8.6812,8.6185,8.6048,8.5212,8.4265,8.3895,8.3451,8.2911,8.3045,8.3039,8.3283,8.3407,8.3489,8.3856,8.4693,8.4742,8.4582,8.4582,8.4556,8.4678,8.4851,8.5033,8.5192,8.548,8.5759,8.6358,8.6034,8.5863,8.64,8.6116,8.5714,8.5771,8.5955,8.6137,8.6389,8.6841,8.7135,8.7097,8.7089,8.7119,8.6948,8.644,8.6415,8.6697,8.6423,8.606,8.5923,8.5879,8.5797,8.5686,8.5638,8.5609,8.558,8.5628,8.5838,8.6295,8.6143,8.6299,8.6541,8.6843,8.6934,8.6935,8.669,8.6489,8.6413,8.6286,8.6454,8.6701,8.6665,8.6562,8.6494,8.601,8.5972,8.6307,8.6119,8.5766,8.584,8.5147,8.4257,8.363,8.3118,8.2638,8.2517,8.2431,8.2219,8.192,8.1854,8.1801,8.1403,8.1145,8.0311,7.9612,7.8175,7.7155,7.6681,7.6499,7.6483,7.6444,7.6403,7.6421,7.6466,7.6472,7.6527,7.6565,7.6596,7.6578,7.6599,7.6657,7.6677,8.7014,8.7049,8.7183,8.7305,8.7355,8.7551,8.7454,8.7127,8.6798,8.6199,8.5436,8.5028,8.4405,8.376,8.4087,8.413,8.3722,8.4008,8.4494,8.4996,8.562,8.5732,8.565,8.5575,8.5549,8.5393,8.5874,8.6161,8.6273,8.6404,8.6805,8.7263,8.6856,8.7032,8.7377,8.7025,8.7035,8.709,8.7133,8.7204,8.738,8.7684,8.7718,8.7478,8.7401,8.7401,8.7325,8.6555,8.6607,8.6881,8.6526,8.5949,8.5779,8.5704,8.5609,8.5541,8.5511,8.5511,8.5501,8.55,8.567,8.6128,8.592,8.5924,8.6209,8.6767,8.708,8.6976,8.6911,8.6851,8.6663,8.6337,8.6501,8.6899,8.6735,8.6636,8.6545,8.5962,8.5799,8.6377,8.6117,8.6055,8.5801,8.5267,8.4673,8.4125,8.339,8.2909,8.224,8.2197,8.2193,8.2016,8.1947,8.1696,8.1104,8.0377,7.933,7.8622,7.7676,7.7006,7.6646,7.6558,7.6596,7.651,7.6466,7.6494,7.6526,7.657,7.6586,7.6627,7.6657,7.6628,7.6643,7.6671,7.6681,8.7014,8.7012,8.7217,8.7318,8.7368,8.7681,8.7826,8.7746,8.7279,8.6932,8.6718,8.6086,8.5455,8.5089,8.5454,8.5071,8.4615,8.4829,8.5562,8.5831,8.6489,8.6348,8.6316,8.6694,8.6933,8.6507,8.6881,8.7254,8.7418,8.7671,8.7709,8.8051,8.802,8.8025,8.822,8.8203,8.8021,8.8106,8.8161,8.8253,8.8478,8.8628,8.8491,8.8171,8.8017,8.8017,8.7825,8.7132,8.6748,8.744,8.6577,8.5976,8.5762,8.5599,8.5511,8.5511,8.5511,8.5511,8.5501,8.5479,8.5515,8.5523,8.549,8.5615,8.6039,8.6714,8.7158,8.7255,8.728,8.7243,8.7358,8.6771,8.6814,8.7171,8.6938,8.6707,8.6556,8.6039,8.6062,8.6516,8.6029,8.5621,8.6008,8.5892,8.5291,8.4611,8.3797,8.3061,8.2396,8.1999,8.2042,8.2065,8.1998,8.1938,8.1424,8.0193,7.9066,7.8314,7.7407,7.6904,7.6628,7.6628,7.6623,7.6617,7.6591,7.6607,7.6617,7.6627,7.6652,7.6691,7.6667,7.6671,7.6694,7.6678,7.6687,8.7014,8.7012,8.7315,8.7464,8.7514,8.7874,8.8037,8.8053,8.7898,8.7545,8.7108,8.6937,8.6452,8.6047,8.5964,8.5938,8.5994,8.6207,8.6165,8.632,8.7039,8.7144,8.6317,8.784,8.8267,8.7504,8.7534,8.7764,8.7801,8.783,8.8428,8.8811,8.8558,8.8512,8.882,8.8593,8.8481,8.8644,8.8701,8.8709,8.8852,8.927,8.9477,8.9213,8.9184,8.9231,8.9009,8.8047,8.7594,8.8201,8.6785,8.6034,8.577,8.5686,8.5599,8.5531,8.5511,8.5511,8.5501,8.5481,8.5853,8.6312,8.6317,8.6849,8.7456,8.7839,8.7829,8.8002,8.7748,8.7462,8.7526,8.6923,8.6623,8.6751,8.6849,8.6764,8.6715,8.6389,8.6146,8.67,8.5935,8.5239,8.5774,8.5883,8.5057,8.4373,8.3796,8.302,8.2322,8.2068,8.2008,8.2029,8.2003,8.1987,8.1863,8.0352,7.9079,7.8483,7.7693,7.6933,7.6712,7.6669,7.669,7.6652,7.6657,7.6647,7.6657,7.6677,7.6657,7.669,7.6699,7.6712,7.673,7.6752,7.6764,8.7046,8.7203,8.7398,8.7563,8.7713,8.799,8.81,8.8115,8.814,8.8046,8.7824,8.775,8.7472,8.7088,8.7355,8.7581,8.7677,8.7346,8.734,8.7671,8.8238,8.8367,8.7121,8.8986,8.9099,8.8805,8.8746,8.8763,8.8908,8.9048,8.9332,8.9658,8.9492,8.962,8.9863,8.9771,8.9514,8.9554,8.9612,8.964,8.965,9.0204,9.0192,8.9875,8.9844,8.9862,8.9601,8.8717,8.8205,8.8291,8.7311,8.6416,8.596,8.5723,8.5619,8.5531,8.5511,8.5511,8.5491,8.5471,8.5632,8.5988,8.6083,8.6593,8.7351,8.7665,8.81,8.8405,8.8143,8.7672,8.7678,8.6978,8.666,8.6623,8.6717,8.6821,8.6811,8.6587,8.6744,8.6804,8.5728,8.529,8.5761,8.5516,8.4692,8.4122,8.3702,8.3042,8.2304,8.2245,8.2215,8.1922,8.1824,8.1484,8.1275,8.0042,7.9085,7.8571,7.7855,7.7057,7.6777,7.6768,7.6756,7.673,7.6699,7.671,7.6671,7.669,7.6708,7.6721,7.6743,7.676,7.6768,7.6777,7.6797,8.7245,8.7321,8.7431,8.7595,8.7794,8.8021,8.81,8.8131,8.8232,8.8286,8.8369,8.8428,8.8253,8.8082,8.8467,8.893,8.9176,8.8498,8.8577,8.8833,8.9198,8.9338,8.9137,8.9528,8.9515,8.9282,8.9657,8.9994,8.9885,8.9988,9.0241,9.0323,9.0523,9.0624,9.0572,9.0429,9.0739,9.0779,9.0847,9.0847,9.0858,9.0896,9.0656,8.9937,8.9983,9.0106,9.004,8.9234,8.8673,8.8392,8.7657,8.6741,8.5987,8.5733,8.5638,8.5551,8.5521,8.5511,8.5491,8.5491,8.5578,8.5704,8.5579,8.6136,8.6984,8.7645,8.8017,8.8552,8.8234,8.7838,8.775,8.7126,8.6758,8.6749,8.6776,8.6854,8.6938,8.6951,8.6993,8.6597,8.5507,8.5325,8.5717,8.5016,8.4109,8.4189,8.3807,8.3264,8.264,8.2635,8.2496,8.1978,8.1565,8.0981,8.0373,7.9456,7.8858,7.8617,7.782,7.6984,7.6864,7.686,7.6844,7.6867,7.6777,7.6756,7.6752,7.6747,7.6768,7.6785,7.6793,7.684,7.6848,7.686,7.6875,8.7759,8.7321,8.7431,8.7595,8.781,8.8021,8.81,8.8131,8.8263,8.8384,8.8503,8.8664,8.8748,8.8814,8.8952,8.92,8.9282,8.9209,8.8972,8.8936,8.9301,8.9024,8.8226,8.9235,8.9409,8.9403,8.9754,9.0014,9.0182,9.0306,9.0416,9.054,9.0572,9.0593,9.0624,9.0645,9.0614,9.0635,9.0635,9.0687,9.0739,9.0848,9.081,9.0733,9.0714,9.0703,9.0561,8.9822,8.9255,8.8445,8.7653,8.679,8.6088,8.577,8.5724,8.5628,8.558,8.5511,8.5531,8.557,8.5676,8.5714,8.5843,8.6462,8.7135,8.8135,8.8697,8.8945,8.8345,8.7991,8.7879,8.7277,8.6937,8.6866,8.6881,8.6967,8.7064,8.7075,8.7153,8.659,8.5562,8.5419,8.5581,8.4527,8.3633,8.383,8.3871,8.3328,8.286,8.2777,8.2684,8.2123,8.1761,8.1187,8.0458,7.9384,7.8754,7.8627,7.7789,7.6954,7.6958,7.6997,7.7049,7.7038,7.7031,7.7175,7.7357,7.7319,7.7027,7.6957,7.7034,7.6999,7.689,7.6943,7.723,8.8392,8.7435,8.7464,8.766,8.799,8.8162,8.8239,8.8247,8.8496,8.8606,8.8679,8.8837,8.8978,8.9129,8.9197,8.9294,8.9464,8.9489,8.9415,8.9212,8.9464,8.935,8.9146,8.9484,8.9643,8.9675,8.9931,9.0224,9.0328,9.0362,9.0438,9.0583,9.0635,9.0645,9.0604,9.0645,9.0635,9.0635,9.0645,9.0658,9.0739,9.0848,9.0915,9.0758,9.0906,9.0867,9.0694,9.0473,8.9573,8.8738,8.798,8.7222,8.6271,8.5843,8.5845,8.5705,8.5638,8.5609,8.5619,8.5657,8.5751,8.5914,8.6094,8.6393,8.7106,8.8216,8.8862,8.8511,8.8267,8.8085,8.7957,8.7336,8.7057,8.6904,8.6952,8.7025,8.7133,8.7132,8.703,8.6345,8.5687,8.5459,8.5157,8.4427,8.3525,8.3128,8.3407,8.3295,8.2817,8.2454,8.2359,8.2219,8.1938,8.1618,8.0817,7.9904,7.8962,7.8564,7.7725,7.7128,7.7137,7.717,7.7462,7.787,7.8214,7.8281,7.8154,7.7714,7.7251,7.7258,7.7304,7.7393,7.752,7.8202,7.8338,8.8769,8.783,8.7657,8.7889,8.836,8.8344,8.842,8.8637,8.8733,8.8803,8.886,8.8964,8.9157,8.9254,8.932,8.9438,8.9629,8.9642,8.9692,8.9766,8.979,8.9764,8.9711,8.9947,9.0017,9.0075,9.0208,9.0383,9.0416,9.0487,9.0519,9.0631,9.0648,9.0638,9.0645,9.0676,9.0658,9.0617,9.0699,9.0749,9.0789,9.0934,9.0858,9.0808,9.0798,9.0819,9.0729,9.0641,8.9916,8.8682,8.8393,8.7567,8.6224,8.5952,8.5926,8.5826,8.5742,8.555,8.5578,8.5624,8.5867,8.6063,8.6305,8.652,8.6832,8.8062,8.8603,8.7875,8.7885,8.787,8.7836,8.7296,8.7124,8.7033,8.7093,8.7156,8.7205,8.7241,8.7192,8.6763,8.6057,8.506,8.4722,8.4269,8.3565,8.2733,8.2735,8.3091,8.2849,8.2404,8.2269,8.2171,8.1733,8.1609,8.1356,8.0488,7.9513,7.8686,7.7888,7.7493,7.7615,7.8002,7.8456,7.8909,7.9244,7.9136,7.8873,7.817,7.7588,7.7994,7.8283,7.8137,7.8384,7.9068,7.9166,8.8639,8.8659,8.803,8.8334,8.9103,8.8567,8.8718,8.9174,8.8935,8.8817,8.8889,8.9075,8.9307,8.9514,8.9641,8.9755,8.9841,8.9803,8.9892,8.9892,8.979,8.9851,8.9961,9.0043,9.0148,9.0306,9.0405,9.0497,9.0551,9.0551,9.0572,9.0604,9.0689,9.0676,9.0676,9.0689,9.0739,9.0739,9.0819,9.0858,9.0887,9.0963,9.0953,9.0906,9.0886,9.0857,9.0719,9.0561,8.9883,8.8347,8.8231,8.7623,8.6268,8.6005,8.5987,8.5944,8.5843,8.5563,8.527,8.5582,8.5992,8.62,8.6455,8.6797,8.6972,8.7048,8.7215,8.7339,8.7454,8.7426,8.7351,8.7195,8.7153,8.7156,8.7205,8.7225,8.7267,8.7343,8.7286,8.7108,8.6426,8.543,8.4622,8.4241,8.3459,8.2591,8.263,8.2986,8.2944,8.262,8.2332,8.2083,8.1489,8.1399,8.1767,8.098,7.981,7.93,7.8782,7.8433,7.8284,7.8823,7.9469,7.9669,7.9931,7.9754,7.972,7.9522,7.9334,7.9331,7.9337,7.9277,7.918,7.9591,7.941,8.879,8.8898,8.8763,8.8652,8.8561,8.8435,8.8593,8.8862,8.8915,8.8964,8.9061,8.9251,8.9412,8.9692,9.0234,9.0461,9.0574,9.0586,9.0586,9.0359,9.0181,8.9939,8.9996,9.0087,9.0228,9.0383,9.0487,9.054,9.061,9.0621,9.0645,9.0697,9.0749,9.0818,9.0818,9.0789,9.0828,9.0858,9.0934,9.0963,9.0981,9.1046,9.1037,9.0925,9.0906,9.0896,9.0722,9.0212,8.9361,8.8539,8.7991,8.7057,8.6235,8.6078,8.6009,8.5984,8.5893,8.5467,8.5035,8.5549,8.6215,8.6609,8.6829,8.7039,8.7156,8.7199,8.7206,8.7247,8.7243,8.7247,8.728,8.7265,8.7255,8.7294,8.7297,8.7304,8.736,8.7388,8.7246,8.7022,8.649,8.5723,8.4987,8.4328,8.3427,8.2563,8.2721,8.2799,8.2757,8.2715,8.2431,8.2265,8.1751,8.1622,8.1955,8.1091,8.0031,7.9793,7.9632,7.94,7.9207,7.9853,8.039,8.0556,8.0757,8.0913,8.1024,8.1124,8.0875,8.024,8.0287,8.0576,8.0475,8.0259,7.9924,8.9272,8.9329,8.9108,8.898,8.8915,8.916,8.9407,8.9683,8.9779,8.968,8.9668,8.9801,8.9931,9.0222,9.06,9.1168,9.1382,9.1457,9.1305,9.1014,9.0608,9.025,9.0178,9.0205,9.0328,9.0476,9.054,9.0621,9.0621,9.0621,9.0645,9.0699,9.0847,9.0886,9.0906,9.0906,9.0953,9.1009,9.1055,9.1064,9.1082,9.1118,9.1175,9.102,9.0992,9.0925,9.0704,9.0139,8.9228,8.8414,8.7682,8.6862,8.6338,8.6026,8.6052,8.5997,8.5757,8.5313,8.4964,8.5366,8.6255,8.6781,8.7043,8.7185,8.7285,8.7318,8.7311,8.7311,8.7315,8.7317,8.7307,8.7337,8.7328,8.7326,8.7323,8.7365,8.7368,8.7384,8.7116,8.6849,8.6429,8.6201,8.5032,8.4293,8.3435,8.2652,8.2496,8.2534,8.2492,8.245,8.2408,8.2285,8.2202,8.2153,8.2179,8.1277,8.0532,8.0451,8.0289,8.0202,8.0277,8.085,8.1245,8.1377,8.1652,8.2109,8.2072,8.1806,8.1282,8.0712,8.0996,8.1401,8.1451,8.1231,8.0897,9.0111,9.0012,8.8937,8.9373,9.0597,9.0825,9.1313,9.1724,9.1479,9.099,9.0593,9.0737,9.0865,9.1004,9.1256,9.1811,9.2228,9.2314,9.2023,9.1429,9.0967,9.078,9.0468,9.0317,9.0443,9.0551,9.0631,9.0593,9.0604,9.0614,9.0666,9.0749,9.0906,9.0954,9.0935,9.0972,9.1018,9.1037,9.1157,9.1183,9.1154,9.1201,9.1183,9.1148,9.1037,9.0991,9.0846,9.0119,8.9256,8.8488,8.7659,8.6859,8.6146,8.609,8.6077,8.6077,8.5427,8.4736,8.403,8.4914,8.5869,8.6883,8.7167,8.7317,8.7359,8.7411,8.7376,8.7376,8.7259,8.7298,8.7335,8.7334,8.7252,8.7366,8.7363,8.7395,8.7398,8.7402,8.7171,8.7057,8.7063,8.6793,8.5388,8.4218,8.3437,8.2812,8.2461,8.2304,8.2341,8.2302,8.2301,8.2296,8.2292,8.2287,8.2161,8.1575,8.1065,8.1022,8.1018,8.0973,8.1124,8.1509,8.1867,8.2113,8.2187,8.2254,8.2269,8.2243,8.1796,8.1425,8.1701,8.2022,8.2146,8.2077,8.1661,9.0008,8.9655,9.0435,9.1112,9.1572,9.0715,9.0856,9.1559,9.1687,9.1434,9.1077,9.1483,9.1484,9.152,9.2353,9.2959,9.3174,9.2663,9.2269,9.2079,9.1335,9.0631,9.0355,9.0373,9.0487,9.0561,9.0593,9.0635,9.0658,9.0676,9.0759,9.0896,9.0972,9.1064,9.1082,9.1109,9.1157,9.1118,9.1192,9.1201,9.1201,9.1201,9.1201,9.1201,9.1073,9.1055,9.1062,9.0212,8.9358,8.8587,8.7756,8.6919,8.6236,8.6094,8.6094,8.5973,8.5444,8.4797,8.4327,8.4709,8.5564,8.6592,8.7241,8.7339,8.7372,8.7421,8.7422,8.7226,8.6875,8.6952,8.7224,8.6758,8.6678,8.7263,8.7416,8.7408,8.7408,8.7412,8.7298,8.73,8.7341,8.6913,8.5859,8.4726,8.3866,8.3318,8.2967,8.2499,8.2422,8.2344,8.2304,8.2302,8.2299,8.2296,8.2137,8.1783,8.1664,8.1662,8.1778,8.1894,8.2086,8.2118,8.216,8.2245,8.2281,8.2318,8.2446,8.2529,8.2328,8.2243,8.2441,8.2365,8.2251,8.2255,8.2143,9.0323,9.0313,9.0932,9.1833,9.2457,9.1665,9.1656,9.2244,9.2648,9.2424,9.2062,9.2456,9.2557,9.2531,9.3174,9.4133,9.4158,9.3897,9.2919,9.274,9.1792,9.1075,9.0661,9.0465,9.053,9.0572,9.0593,9.0624,9.0666,9.0687,9.0759,9.0925,9.1073,9.1109,9.1136,9.1192,9.1192,9.1192,9.1201,9.1201,9.1201,9.1201,9.1201,9.1154,9.1118,9.1139,9.0944,9.032,8.9456,8.8662,8.7872,8.6995,8.6426,8.6149,8.6165,8.5968,8.5219,8.4811,8.4754,8.4476,8.5485,8.6929,8.7199,8.7339,8.737,8.7419,8.7148,8.6873,8.6399,8.6475,8.667,8.6131,8.6366,8.6953,8.7304,8.7303,8.7342,8.7343,8.7422,8.7422,8.7383,8.6913,8.6327,8.5388,8.4408,8.3939,8.3547,8.3004,8.2537,8.2497,8.2458,8.2422,8.2343,8.2303,8.2301,8.222,8.218,8.2296,8.2296,8.2296,8.2291,8.2207,8.229,8.2295,8.2296,8.2415,8.2692,8.277,8.2888,8.2966,8.3046,8.2851,8.2421,8.2304,8.2304,9.1131,9.1736,9.0489,9.1463,9.3417,9.3477,9.3746,9.4133,9.4373,9.4041,9.3348,9.339,9.3416,9.3642,9.3793,9.4284,9.4861,9.5016,9.4052,9.3099,9.2411,9.1593,9.0879,9.053,9.0561,9.0583,9.0593,9.0604,9.0604,9.0707,9.0818,9.0887,9.1028,9.11,9.1154,9.1201,9.1201,9.1201,9.1201,9.1201,9.1201,9.1201,9.1201,9.1192,9.1192,9.1068,9.0816,9.0231,8.9393,8.8611,8.7803,8.7044,8.6483,8.6181,8.6261,8.5882,8.4834,8.4976,8.502,8.4684,8.5343,8.6661,8.7164,8.7311,8.7312,8.7257,8.6835,8.6483,8.6051,8.6008,8.5967,8.6006,8.6045,8.6554,8.71,8.718,8.7219,8.7257,8.7374,8.7414,8.7414,8.7061,8.6436,8.5613,8.4713,8.4242,8.3772,8.3301,8.2877,8.2844,8.2766,8.2613,8.2538,8.2343,8.2304,8.2304,8.2303,8.2302,8.2301,8.2301,8.2297,8.2295,8.2297,8.2301,8.2304,8.25,8.2968,8.3436,8.3787,8.3825,8.3708,8.3279,8.2851,8.2381,8.2302,9.2156,9.2034,9.2318,9.2958,9.3665,9.4065,9.4265,9.4362,9.4503,9.4207,9.3529,9.3568,9.3719,9.378,9.3916,9.4518,9.4864,9.4815,9.3982,9.3251,9.2575,9.1555,9.0905,9.0572,9.0621,9.0621,9.0593,9.0624,9.0679,9.0769,9.0867,9.0952,9.1055,9.1118,9.1192,9.1201,9.1201,9.1201,9.1201,9.1201,9.1201,9.1201,9.1201,9.1201,9.1201,9.1009,9.047,9.0163,8.9304,8.8092,8.7677,8.7109,8.6447,8.6293,8.6276,8.5707,8.5202,8.5075,8.4893,8.5187,8.5723,8.6358,8.6863,8.7286,8.7216,8.697,8.648,8.6054,8.5663,8.5503,8.5342,8.5339,8.565,8.6195,8.6702,8.6934,8.7012,8.7247,8.7325,8.7403,8.7404,8.7286,8.6661,8.5721,8.4897,8.4426,8.3993,8.3599,8.325,8.3182,8.3111,8.2959,8.2572,8.2341,8.2301,8.2302,8.2304,8.2304,8.2304,8.2304,8.2304,8.2304,8.2303,8.2304,8.2304,8.277,8.339,8.3817,8.4206,8.4286,8.417,8.3702,8.3234,8.2764,8.2333,9.2306,9.2539,9.2209,9.2406,9.2905,9.3285,9.345,9.3593,9.4307,9.4425,9.4086,9.3795,9.3933,9.4334,9.4263,9.4571,9.5372,9.5161,9.4354,9.3131,9.2542,9.1614,9.1003,9.0621,9.0621,9.0621,9.0593,9.0614,9.0689,9.0799,9.0896,9.0963,9.1103,9.1166,9.1192,9.1201,9.1201,9.1201,9.1201,9.1201,9.1201,9.1201,9.1201,9.1201,9.1201,9.0816,9.0393,9.0163,8.9175,8.8086,8.7833,8.7395,8.6961,8.6988,8.6658,8.6164,8.5628,8.5651,8.5641,8.5642,8.5961,8.6288,8.6653,8.6873,8.7153,8.7031,8.6354,8.574,8.5273,8.488,8.4681,8.4635,8.5257,8.5879,8.6266,8.6652,8.6926,8.716,8.7277,8.7394,8.7394,8.7393,8.6845,8.5865,8.5275,8.5116,8.4764,8.4292,8.3826,8.3523,8.3452,8.334,8.2799,8.2296,8.2295,8.2295,8.2299,8.2301,8.2301,8.2302,8.2303,8.2303,8.2303,8.2302,8.2299,8.2958,8.3772,8.4116,8.4425,8.4664,8.4821,8.431,8.3727,8.2948,8.2595,9.1874,9.3127,9.1066,9.1014,9.1771,9.2011,9.2158,9.2378,9.3997,9.4692,9.449,9.406,9.4259,9.4749,9.4498,9.4738,9.5314,9.5407,9.449,9.3153,9.3,9.2111,9.0965,9.0621,9.0621,9.0621,9.0593,9.0593,9.0624,9.0737,9.0819,9.0906,9.0981,9.1082,9.1192,9.1201,9.1201,9.1201,9.1201,9.1201,9.1201,9.1201,9.1201,9.1201,9.1171,9.1056,9.0825,9.0295,8.9513,8.8694,8.8212,8.7781,8.7712,8.7797,8.7358,8.6845,8.6156,8.6242,8.6331,8.6281,8.6483,8.6622,8.6587,8.6824,8.7059,8.6905,8.6233,8.558,8.5116,8.4765,8.4529,8.4679,8.5143,8.5724,8.6186,8.6491,8.6719,8.7031,8.7342,8.742,8.742,8.7381,8.7184,8.6283,8.5699,8.5732,8.5301,8.4751,8.46,8.414,8.3792,8.368,8.2903,8.2363,8.2327,8.2289,8.229,8.2292,8.237,8.2294,8.2299,8.2296,8.2289,8.2368,8.2525,8.3417,8.4153,8.4574,8.5155,8.5783,8.5703,8.5068,8.4289,8.332,8.2698,9.245,9.2433,9.1521,9.1786,9.2689,9.2164,9.24,9.3239,9.3757,9.3985,9.3896,9.3883,9.4322,9.5013,9.443,9.4631,9.5423,9.5369,9.4529,9.3612,9.3153,9.2274,9.0888,9.0659,9.0621,9.0621,9.0621,9.0604,9.0624,9.0669,9.0769,9.0915,9.0972,9.1055,9.1201,9.1201,9.1201,9.1201,9.1325,9.1287,9.1201,9.1201,9.1201,9.1201,9.1163,9.0855,9.0547,9.0094,8.9071,8.8128,8.8506,8.8325,8.801,8.8022,8.7623,8.7015,8.6653,8.6768,8.6825,8.6804,8.6919,8.7018,8.7046,8.7122,8.7052,8.6669,8.6187,8.5574,8.5112,8.4765,8.457,8.4801,8.5185,8.5725,8.6184,8.6408,8.655,8.6939,8.7367,8.7406,8.7406,8.7328,8.7211,8.6861,8.6314,8.5768,8.5221,8.4868,8.522,8.499,8.4208,8.3861,8.2963,8.2463,8.2508,8.2669,8.2865,8.2711,8.2753,8.256,8.2408,8.2641,8.2872,8.271,8.2903,8.3681,8.4496,8.5268,8.5888,8.6477,8.6075,8.5245,8.4544,8.3692,8.3032,9.2156,9.2112,9.1715,9.1917,9.2315,9.131,9.143,9.2443,9.301,9.3174,9.3263,9.3752,9.4492,9.4981,9.422,9.4566,9.5331,9.5178,9.4567,9.383,9.3077,9.2312,9.1499,9.0784,9.0621,9.0631,9.0645,9.0666,9.0676,9.0669,9.0769,9.0906,9.0953,9.1028,9.1175,9.1201,9.1201,9.1201,9.1479,9.1518,9.1278,9.1201,9.1201,9.1201,9.1086,9.0816,9.0603,9.0236,8.9575,8.8868,8.9021,8.8534,8.8229,8.8106,8.7675,8.7184,8.6929,8.7072,8.7111,8.714,8.7172,8.7231,8.7253,8.7258,8.727,8.6851,8.6175,8.5643,8.5691,8.5425,8.5078,8.5155,8.5895,8.6515,8.6775,8.6956,8.7023,8.7212,8.7406,8.7406,8.7406,8.7406,8.7289,8.725,8.682,8.6779,8.6038,8.5488,8.5722,8.5875,8.5053,8.4429,8.3767,8.3461,8.3706,8.3748,8.3748,8.3518,8.313,8.3444,8.3603,8.3532,8.3494,8.329,8.3363,8.3832,8.4645,8.5495,8.6235,8.6822,8.6142,8.5262,8.4642,8.4099,8.3356,9.1416,9.1971,9.1421,9.1517,9.1636,9.0153,9.0133,9.1217,9.2123,9.2575,9.2851,9.3926,9.4769,9.4689,9.4233,9.4774,9.5102,9.514,9.4632,9.4092,9.3415,9.2546,9.1743,9.1045,9.0777,9.0666,9.0689,9.0719,9.0739,9.0759,9.0799,9.0906,9.0963,9.102,9.1148,9.1201,9.1201,9.1325,9.1556,9.171,9.1518,9.1325,9.1317,9.1278,9.1201,9.1171,9.0975,9.0719,9.0309,9.0002,8.9613,8.9114,8.8858,8.87,8.7865,8.7453,8.7305,8.7322,8.7207,8.7176,8.7167,8.7212,8.7273,8.7302,8.7312,8.6989,8.6319,8.5983,8.6073,8.5929,8.5584,8.5586,8.6405,8.7064,8.7209,8.7308,8.7337,8.7329,8.7328,8.7367,8.7328,8.7328,8.7326,8.7289,8.7205,8.7243,8.7044,8.6691,8.6375,8.6404,8.6046,8.5697,8.5309,8.5124,8.4665,8.4237,8.3921,8.3889,8.3582,8.4283,8.4676,8.4298,8.4068,8.3905,8.4056,8.4565,8.4951,8.5646,8.6348,8.6932,8.6675,8.5951,8.521,8.4585,8.3676,9.1042,9.1298,9.0137,9.0521,9.155,9.0245,9.0234,9.1313,9.2243,9.274,9.3214,9.451,9.5444,9.5417,9.5314,9.5407,9.5178,9.514,9.4872,9.439,9.3566,9.2735,9.1952,9.1225,9.0794,9.0729,9.0789,9.0867,9.0838,9.0848,9.0887,9.0972,9.0981,9.1046,9.1175,9.1201,9.1201,9.1364,9.1441,9.1556,9.1633,9.1556,9.171,9.1556,9.1201,9.1253,9.1189,9.1137,9.0743,9.0441,9.0243,8.98,8.9637,8.9488,8.8808,8.7833,8.7677,8.755,8.746,8.7237,8.7181,8.7209,8.7264,8.7299,8.7319,8.7345,8.6705,8.6208,8.6145,8.6004,8.5778,8.5898,8.6445,8.7026,8.7367,8.7311,8.7256,8.7212,8.7172,8.7133,8.7054,8.7053,8.7012,8.6811,8.641,8.6404,8.6311,8.6036,8.6194,8.6497,8.6763,8.657,8.6341,8.5285,8.4195,8.3892,8.366,8.3748,8.4148,8.4895,8.5174,8.4829,8.4597,8.4637,8.5028,8.5537,8.5882,8.5678,8.6142,8.6683,8.705,8.6758,8.5976,8.5146,8.4312]}]]